<?xml version="1.0" encoding="UTF-8" standalone="no" ?>
<gpx xmlns="http://www.topografix.com/GPX/1/1" xmlns:xsi="http://www.w3.org/2001/XMLSchema-instance" xsi:schemaLocation="http://www.topografix.com/GPX/1/1 http://www.topografix.com/GPX/1/1/gpx.xsd" version="1.1" creator="VisuGPX - https://www.visugpx.com">
  <metadata>
    <name>Environs de Néronde</name>
    <desc><![CDATA[Passage sous et sur le Pont Marteau, Départ et Arrivée à Néronde.]]></desc>
  </metadata>
  <trk>
    <name><![CDATA[Environs de Néronde_1]]></name>
    <trkseg>
      <trkpt lat="45.83861" lon="4.23671">
        <ele>535.823</ele>
        <time>2019-09-30T11:37:56Z</time>
      </trkpt>
      <trkpt lat="45.83861" lon="4.23671">
        <ele>535.823</ele>
        <time>2019-09-30T11:37:56Z</time>
      </trkpt>
      <trkpt lat="45.83864" lon="4.23664">
        <ele>536.211</ele>
        <time>2019-09-30T11:38:02Z</time>
      </trkpt>
      <trkpt lat="45.83861" lon="4.23656">
        <ele>536.501</ele>
        <time>2019-09-30T11:38:07Z</time>
      </trkpt>
      <trkpt lat="45.83856" lon="4.23648">
        <ele>536.464</ele>
        <time>2019-09-30T11:38:13Z</time>
      </trkpt>
      <trkpt lat="45.83852" lon="4.23643">
        <ele>536.839</ele>
        <time>2019-09-30T11:38:18Z</time>
      </trkpt>
      <trkpt lat="45.8385" lon="4.23634">
        <ele>536.336</ele>
        <time>2019-09-30T11:38:24Z</time>
      </trkpt>
      <trkpt lat="45.8385" lon="4.23623">
        <ele>534.247</ele>
        <time>2019-09-30T11:38:30Z</time>
      </trkpt>
      <trkpt lat="45.83853" lon="4.23614">
        <ele>532.541</ele>
        <time>2019-09-30T11:38:36Z</time>
      </trkpt>
      <trkpt lat="45.83856" lon="4.23606">
        <ele>532.46</ele>
        <time>2019-09-30T11:38:41Z</time>
      </trkpt>
      <trkpt lat="45.83858" lon="4.236">
        <ele>532.458</ele>
        <time>2019-09-30T11:38:47Z</time>
      </trkpt>
      <trkpt lat="45.83855" lon="4.2359">
        <ele>534.718</ele>
        <time>2019-09-30T11:38:52Z</time>
      </trkpt>
      <trkpt lat="45.8386" lon="4.23589">
        <ele>534.558</ele>
        <time>2019-09-30T11:38:57Z</time>
      </trkpt>
      <trkpt lat="45.8386" lon="4.23589">
        <ele>535.115</ele>
        <time>2019-09-30T11:39:02Z</time>
      </trkpt>
      <trkpt lat="45.8386" lon="4.23588">
        <ele>533.577</ele>
        <time>2019-09-30T11:39:08Z</time>
      </trkpt>
      <trkpt lat="45.83866" lon="4.23583">
        <ele>534.777</ele>
        <time>2019-09-30T11:39:13Z</time>
      </trkpt>
      <trkpt lat="45.8387" lon="4.23572">
        <ele>533.051</ele>
        <time>2019-09-30T11:39:19Z</time>
      </trkpt>
      <trkpt lat="45.83873" lon="4.23564">
        <ele>533.758</ele>
        <time>2019-09-30T11:39:25Z</time>
      </trkpt>
      <trkpt lat="45.83879" lon="4.23561">
        <ele>534.875</ele>
        <time>2019-09-30T11:39:31Z</time>
      </trkpt>
      <trkpt lat="45.83883" lon="4.23553">
        <ele>532.798</ele>
        <time>2019-09-30T11:39:36Z</time>
      </trkpt>
      <trkpt lat="45.83883" lon="4.23547">
        <ele>530.782</ele>
        <time>2019-09-30T11:39:42Z</time>
      </trkpt>
      <trkpt lat="45.83884" lon="4.2354">
        <ele>530.368</ele>
        <time>2019-09-30T11:39:48Z</time>
      </trkpt>
      <trkpt lat="45.83886" lon="4.23529">
        <ele>531.621</ele>
        <time>2019-09-30T11:39:53Z</time>
      </trkpt>
      <trkpt lat="45.83882" lon="4.23521">
        <ele>531.526</ele>
        <time>2019-09-30T11:39:59Z</time>
      </trkpt>
      <trkpt lat="45.83884" lon="4.23516">
        <ele>530.663</ele>
        <time>2019-09-30T11:40:04Z</time>
      </trkpt>
      <trkpt lat="45.83886" lon="4.23509">
        <ele>528.252</ele>
        <time>2019-09-30T11:40:10Z</time>
      </trkpt>
      <trkpt lat="45.83888" lon="4.23502">
        <ele>529.505</ele>
        <time>2019-09-30T11:40:16Z</time>
      </trkpt>
      <trkpt lat="45.83893" lon="4.23495">
        <ele>527.006</ele>
        <time>2019-09-30T11:40:22Z</time>
      </trkpt>
      <trkpt lat="45.83896" lon="4.23488">
        <ele>517.147</ele>
        <time>2019-09-30T11:40:27Z</time>
      </trkpt>
      <trkpt lat="45.83901" lon="4.2348">
        <ele>510.269</ele>
        <time>2019-09-30T11:40:33Z</time>
      </trkpt>
      <trkpt lat="45.83905" lon="4.23473">
        <ele>508.111</ele>
        <time>2019-09-30T11:40:39Z</time>
      </trkpt>
      <trkpt lat="45.83911" lon="4.23468">
        <ele>508.023</ele>
        <time>2019-09-30T11:40:44Z</time>
      </trkpt>
      <trkpt lat="45.83913" lon="4.2346">
        <ele>522.015</ele>
        <time>2019-09-30T11:40:49Z</time>
      </trkpt>
      <trkpt lat="45.83917" lon="4.23454">
        <ele>510.433</ele>
        <time>2019-09-30T11:40:55Z</time>
      </trkpt>
      <trkpt lat="45.83918" lon="4.23454">
        <ele>507.153</ele>
        <time>2019-09-30T11:41:01Z</time>
      </trkpt>
      <trkpt lat="45.83918" lon="4.23455">
        <ele>507.487</ele>
        <time>2019-09-30T11:41:06Z</time>
      </trkpt>
      <trkpt lat="45.8392" lon="4.23453">
        <ele>507.122</ele>
        <time>2019-09-30T11:41:12Z</time>
      </trkpt>
      <trkpt lat="45.83925" lon="4.23445">
        <ele>505.64</ele>
        <time>2019-09-30T11:41:18Z</time>
      </trkpt>
      <trkpt lat="45.8393" lon="4.23442">
        <ele>503.05</ele>
        <time>2019-09-30T11:41:23Z</time>
      </trkpt>
      <trkpt lat="45.83935" lon="4.23435">
        <ele>503.105</ele>
        <time>2019-09-30T11:41:29Z</time>
      </trkpt>
      <trkpt lat="45.83942" lon="4.23432">
        <ele>500.126</ele>
        <time>2019-09-30T11:41:35Z</time>
      </trkpt>
      <trkpt lat="45.83948" lon="4.23429">
        <ele>497.163</ele>
        <time>2019-09-30T11:41:41Z</time>
      </trkpt>
      <trkpt lat="45.83953" lon="4.23425">
        <ele>496.146</ele>
        <time>2019-09-30T11:41:48Z</time>
      </trkpt>
      <trkpt lat="45.83961" lon="4.23413">
        <ele>497.189</ele>
        <time>2019-09-30T11:41:53Z</time>
      </trkpt>
      <trkpt lat="45.83967" lon="4.23408">
        <ele>497.684</ele>
        <time>2019-09-30T11:41:59Z</time>
      </trkpt>
      <trkpt lat="45.83971" lon="4.23424">
        <ele>496.139</ele>
        <time>2019-09-30T11:42:04Z</time>
      </trkpt>
      <trkpt lat="45.83979" lon="4.23402">
        <ele>495.234</ele>
        <time>2019-09-30T11:42:09Z</time>
      </trkpt>
      <trkpt lat="45.83982" lon="4.23402">
        <ele>491.715</ele>
        <time>2019-09-30T11:42:15Z</time>
      </trkpt>
      <trkpt lat="45.83985" lon="4.23397">
        <ele>490.023</ele>
        <time>2019-09-30T11:42:20Z</time>
      </trkpt>
      <trkpt lat="45.83992" lon="4.23393">
        <ele>489.503</ele>
        <time>2019-09-30T11:42:26Z</time>
      </trkpt>
      <trkpt lat="45.83992" lon="4.23391">
        <ele>490.396</ele>
        <time>2019-09-30T11:42:31Z</time>
      </trkpt>
      <trkpt lat="45.83992" lon="4.23389">
        <ele>491.098</ele>
        <time>2019-09-30T11:42:37Z</time>
      </trkpt>
      <trkpt lat="45.83992" lon="4.23388">
        <ele>491.288</ele>
        <time>2019-09-30T11:42:42Z</time>
      </trkpt>
      <trkpt lat="45.83992" lon="4.23388">
        <ele>491.594</ele>
        <time>2019-09-30T11:42:48Z</time>
      </trkpt>
      <trkpt lat="45.83992" lon="4.23388">
        <ele>491.392</ele>
        <time>2019-09-30T11:42:54Z</time>
      </trkpt>
      <trkpt lat="45.83991" lon="4.23388">
        <ele>489.866</ele>
        <time>2019-09-30T11:42:59Z</time>
      </trkpt>
      <trkpt lat="45.8399" lon="4.23388">
        <ele>490.367</ele>
        <time>2019-09-30T11:43:04Z</time>
      </trkpt>
      <trkpt lat="45.83991" lon="4.23386">
        <ele>491.503</ele>
        <time>2019-09-30T11:43:10Z</time>
      </trkpt>
      <trkpt lat="45.83991" lon="4.23386">
        <ele>491.104</ele>
        <time>2019-09-30T11:43:15Z</time>
      </trkpt>
      <trkpt lat="45.83991" lon="4.23386">
        <ele>491.576</ele>
        <time>2019-09-30T11:43:20Z</time>
      </trkpt>
      <trkpt lat="45.83991" lon="4.23386">
        <ele>491.104</ele>
        <time>2019-09-30T11:43:26Z</time>
      </trkpt>
      <trkpt lat="45.83991" lon="4.23386">
        <ele>490.917</ele>
        <time>2019-09-30T11:43:32Z</time>
      </trkpt>
      <trkpt lat="45.83991" lon="4.23386">
        <ele>490.345</ele>
        <time>2019-09-30T11:43:38Z</time>
      </trkpt>
      <trkpt lat="45.83991" lon="4.23385">
        <ele>490.691</ele>
        <time>2019-09-30T11:43:43Z</time>
      </trkpt>
      <trkpt lat="45.83991" lon="4.23385">
        <ele>490.684</ele>
        <time>2019-09-30T11:43:49Z</time>
      </trkpt>
      <trkpt lat="45.83991" lon="4.23385">
        <ele>491.375</ele>
        <time>2019-09-30T11:43:54Z</time>
      </trkpt>
      <trkpt lat="45.83991" lon="4.23385">
        <ele>492.213</ele>
        <time>2019-09-30T11:44:00Z</time>
      </trkpt>
      <trkpt lat="45.83991" lon="4.23385">
        <ele>492.401</ele>
        <time>2019-09-30T11:44:05Z</time>
      </trkpt>
      <trkpt lat="45.83991" lon="4.23385">
        <ele>492.479</ele>
        <time>2019-09-30T11:44:10Z</time>
      </trkpt>
      <trkpt lat="45.83991" lon="4.23385">
        <ele>492.53</ele>
        <time>2019-09-30T11:44:16Z</time>
      </trkpt>
      <trkpt lat="45.83991" lon="4.23385">
        <ele>492.563</ele>
        <time>2019-09-30T11:44:22Z</time>
      </trkpt>
      <trkpt lat="45.83991" lon="4.23385">
        <ele>492.566</ele>
        <time>2019-09-30T11:44:28Z</time>
      </trkpt>
      <trkpt lat="45.83991" lon="4.23385">
        <ele>492.578</ele>
        <time>2019-09-30T11:44:34Z</time>
      </trkpt>
      <trkpt lat="45.83991" lon="4.23385">
        <ele>492.586</ele>
        <time>2019-09-30T11:44:39Z</time>
      </trkpt>
      <trkpt lat="45.83991" lon="4.23385">
        <ele>492.652</ele>
        <time>2019-09-30T11:44:45Z</time>
      </trkpt>
      <trkpt lat="45.83991" lon="4.23385">
        <ele>492.698</ele>
        <time>2019-09-30T11:44:50Z</time>
      </trkpt>
      <trkpt lat="45.83991" lon="4.23384">
        <ele>492.694</ele>
        <time>2019-09-30T11:44:55Z</time>
      </trkpt>
      <trkpt lat="45.83991" lon="4.23383">
        <ele>489.787</ele>
        <time>2019-09-30T11:45:00Z</time>
      </trkpt>
      <trkpt lat="45.83993" lon="4.23382">
        <ele>490.672</ele>
        <time>2019-09-30T11:45:05Z</time>
      </trkpt>
      <trkpt lat="45.83997" lon="4.23376">
        <ele>489.338</ele>
        <time>2019-09-30T11:45:11Z</time>
      </trkpt>
      <trkpt lat="45.84" lon="4.23371">
        <ele>486.419</ele>
        <time>2019-09-30T11:45:16Z</time>
      </trkpt>
      <trkpt lat="45.84003" lon="4.23368">
        <ele>481.053</ele>
        <time>2019-09-30T11:45:22Z</time>
      </trkpt>
      <trkpt lat="45.84005" lon="4.23365">
        <ele>478.975</ele>
        <time>2019-09-30T11:45:27Z</time>
      </trkpt>
      <trkpt lat="45.84012" lon="4.23361">
        <ele>478.566</ele>
        <time>2019-09-30T11:45:33Z</time>
      </trkpt>
      <trkpt lat="45.84021" lon="4.23361">
        <ele>475.704</ele>
        <time>2019-09-30T11:45:39Z</time>
      </trkpt>
      <trkpt lat="45.84026" lon="4.23358">
        <ele>477.558</ele>
        <time>2019-09-30T11:45:44Z</time>
      </trkpt>
      <trkpt lat="45.84031" lon="4.23353">
        <ele>477.204</ele>
        <time>2019-09-30T11:45:50Z</time>
      </trkpt>
      <trkpt lat="45.84038" lon="4.23351">
        <ele>473.411</ele>
        <time>2019-09-30T11:45:56Z</time>
      </trkpt>
      <trkpt lat="45.84044" lon="4.23349">
        <ele>474.224</ele>
        <time>2019-09-30T11:46:01Z</time>
      </trkpt>
      <trkpt lat="45.84047" lon="4.23342">
        <ele>475.074</ele>
        <time>2019-09-30T11:46:06Z</time>
      </trkpt>
      <trkpt lat="45.84052" lon="4.23338">
        <ele>474.092</ele>
        <time>2019-09-30T11:46:12Z</time>
      </trkpt>
      <trkpt lat="45.84057" lon="4.23333">
        <ele>474.075</ele>
        <time>2019-09-30T11:46:18Z</time>
      </trkpt>
      <trkpt lat="45.84058" lon="4.23321">
        <ele>475.921</ele>
        <time>2019-09-30T11:46:24Z</time>
      </trkpt>
      <trkpt lat="45.84061" lon="4.2331">
        <ele>473.706</ele>
        <time>2019-09-30T11:46:30Z</time>
      </trkpt>
      <trkpt lat="45.84061" lon="4.23307">
        <ele>474.396</ele>
        <time>2019-09-30T11:46:35Z</time>
      </trkpt>
      <trkpt lat="45.84061" lon="4.23306">
        <ele>474.625</ele>
        <time>2019-09-30T11:46:40Z</time>
      </trkpt>
      <trkpt lat="45.84061" lon="4.23306">
        <ele>474.074</ele>
        <time>2019-09-30T11:46:46Z</time>
      </trkpt>
      <trkpt lat="45.84061" lon="4.23305">
        <ele>474.267</ele>
        <time>2019-09-30T11:46:52Z</time>
      </trkpt>
      <trkpt lat="45.84061" lon="4.23305">
        <ele>474.435</ele>
        <time>2019-09-30T11:46:57Z</time>
      </trkpt>
      <trkpt lat="45.84061" lon="4.23304">
        <ele>474.337</ele>
        <time>2019-09-30T11:47:03Z</time>
      </trkpt>
      <trkpt lat="45.84062" lon="4.23301">
        <ele>474.873</ele>
        <time>2019-09-30T11:47:08Z</time>
      </trkpt>
      <trkpt lat="45.84062" lon="4.23297">
        <ele>474.845</ele>
        <time>2019-09-30T11:47:14Z</time>
      </trkpt>
      <trkpt lat="45.84062" lon="4.23289">
        <ele>477.521</ele>
        <time>2019-09-30T11:47:19Z</time>
      </trkpt>
      <trkpt lat="45.84062" lon="4.2328">
        <ele>475.011</ele>
        <time>2019-09-30T11:47:25Z</time>
      </trkpt>
      <trkpt lat="45.8406" lon="4.23276">
        <ele>473.577</ele>
        <time>2019-09-30T11:47:30Z</time>
      </trkpt>
      <trkpt lat="45.84061" lon="4.23274">
        <ele>473.711</ele>
        <time>2019-09-30T11:47:35Z</time>
      </trkpt>
      <trkpt lat="45.84061" lon="4.23272">
        <ele>472.581</ele>
        <time>2019-09-30T11:47:41Z</time>
      </trkpt>
      <trkpt lat="45.84063" lon="4.23273">
        <ele>476.809</ele>
        <time>2019-09-30T11:47:46Z</time>
      </trkpt>
      <trkpt lat="45.84064" lon="4.23273">
        <ele>477.743</ele>
        <time>2019-09-30T11:47:51Z</time>
      </trkpt>
      <trkpt lat="45.84064" lon="4.23273">
        <ele>477.577</ele>
        <time>2019-09-30T11:47:57Z</time>
      </trkpt>
      <trkpt lat="45.84066" lon="4.23267">
        <ele>473.02</ele>
        <time>2019-09-30T11:48:02Z</time>
      </trkpt>
      <trkpt lat="45.84069" lon="4.23256">
        <ele>474.901</ele>
        <time>2019-09-30T11:48:07Z</time>
      </trkpt>
      <trkpt lat="45.84073" lon="4.23247">
        <ele>475.857</ele>
        <time>2019-09-30T11:48:13Z</time>
      </trkpt>
      <trkpt lat="45.84078" lon="4.23239">
        <ele>477.542</ele>
        <time>2019-09-30T11:48:19Z</time>
      </trkpt>
      <trkpt lat="45.84081" lon="4.23232">
        <ele>479.08</ele>
        <time>2019-09-30T11:48:25Z</time>
      </trkpt>
      <trkpt lat="45.8408" lon="4.23222">
        <ele>477.829</ele>
        <time>2019-09-30T11:48:30Z</time>
      </trkpt>
      <trkpt lat="45.84082" lon="4.23215">
        <ele>477.674</ele>
        <time>2019-09-30T11:48:35Z</time>
      </trkpt>
      <trkpt lat="45.84085" lon="4.2321">
        <ele>477.473</ele>
        <time>2019-09-30T11:48:40Z</time>
      </trkpt>
      <trkpt lat="45.84089" lon="4.23206">
        <ele>477.261</ele>
        <time>2019-09-30T11:48:46Z</time>
      </trkpt>
      <trkpt lat="45.84089" lon="4.23196">
        <ele>477.924</ele>
        <time>2019-09-30T11:48:52Z</time>
      </trkpt>
      <trkpt lat="45.84091" lon="4.23191">
        <ele>479.288</ele>
        <time>2019-09-30T11:48:58Z</time>
      </trkpt>
      <trkpt lat="45.84093" lon="4.23186">
        <ele>481.196</ele>
        <time>2019-09-30T11:49:03Z</time>
      </trkpt>
      <trkpt lat="45.84095" lon="4.23179">
        <ele>483.17</ele>
        <time>2019-09-30T11:49:09Z</time>
      </trkpt>
      <trkpt lat="45.84096" lon="4.23173">
        <ele>483.557</ele>
        <time>2019-09-30T11:49:15Z</time>
      </trkpt>
      <trkpt lat="45.84097" lon="4.23172">
        <ele>483.38</ele>
        <time>2019-09-30T11:49:21Z</time>
      </trkpt>
      <trkpt lat="45.84099" lon="4.23169">
        <ele>482.627</ele>
        <time>2019-09-30T11:49:26Z</time>
      </trkpt>
      <trkpt lat="45.84099" lon="4.23166">
        <ele>481.591</ele>
        <time>2019-09-30T11:49:31Z</time>
      </trkpt>
      <trkpt lat="45.84101" lon="4.23165">
        <ele>482.81</ele>
        <time>2019-09-30T11:49:37Z</time>
      </trkpt>
      <trkpt lat="45.84102" lon="4.23163">
        <ele>481.748</ele>
        <time>2019-09-30T11:49:42Z</time>
      </trkpt>
      <trkpt lat="45.84103" lon="4.23157">
        <ele>486.079</ele>
        <time>2019-09-30T11:49:47Z</time>
      </trkpt>
      <trkpt lat="45.84106" lon="4.23148">
        <ele>485.004</ele>
        <time>2019-09-30T11:49:53Z</time>
      </trkpt>
      <trkpt lat="45.84112" lon="4.23139">
        <ele>484.133</ele>
        <time>2019-09-30T11:49:59Z</time>
      </trkpt>
      <trkpt lat="45.84114" lon="4.23128">
        <ele>482.276</ele>
        <time>2019-09-30T11:50:05Z</time>
      </trkpt>
      <trkpt lat="45.84118" lon="4.2312">
        <ele>482.156</ele>
        <time>2019-09-30T11:50:11Z</time>
      </trkpt>
      <trkpt lat="45.8412" lon="4.23114">
        <ele>484.967</ele>
        <time>2019-09-30T11:50:16Z</time>
      </trkpt>
      <trkpt lat="45.84121" lon="4.23102">
        <ele>484.206</ele>
        <time>2019-09-30T11:50:22Z</time>
      </trkpt>
      <trkpt lat="45.84121" lon="4.2309">
        <ele>485.153</ele>
        <time>2019-09-30T11:50:28Z</time>
      </trkpt>
      <trkpt lat="45.84122" lon="4.2308">
        <ele>486.875</ele>
        <time>2019-09-30T11:50:34Z</time>
      </trkpt>
      <trkpt lat="45.84123" lon="4.23073">
        <ele>488.643</ele>
        <time>2019-09-30T11:50:40Z</time>
      </trkpt>
      <trkpt lat="45.84124" lon="4.23063">
        <ele>488.896</ele>
        <time>2019-09-30T11:50:46Z</time>
      </trkpt>
      <trkpt lat="45.84124" lon="4.23055">
        <ele>489.608</ele>
        <time>2019-09-30T11:50:51Z</time>
      </trkpt>
      <trkpt lat="45.84129" lon="4.23047">
        <ele>490.523</ele>
        <time>2019-09-30T11:50:57Z</time>
      </trkpt>
      <trkpt lat="45.84132" lon="4.23041">
        <ele>492.103</ele>
        <time>2019-09-30T11:51:02Z</time>
      </trkpt>
      <trkpt lat="45.84134" lon="4.23036">
        <ele>491.943</ele>
        <time>2019-09-30T11:51:07Z</time>
      </trkpt>
      <trkpt lat="45.84139" lon="4.2303">
        <ele>492.865</ele>
        <time>2019-09-30T11:51:13Z</time>
      </trkpt>
      <trkpt lat="45.84143" lon="4.23027">
        <ele>494.942</ele>
        <time>2019-09-30T11:51:18Z</time>
      </trkpt>
      <trkpt lat="45.84149" lon="4.23021">
        <ele>494.603</ele>
        <time>2019-09-30T11:51:24Z</time>
      </trkpt>
      <trkpt lat="45.84154" lon="4.23019">
        <ele>497.006</ele>
        <time>2019-09-30T11:51:30Z</time>
      </trkpt>
      <trkpt lat="45.84158" lon="4.23017">
        <ele>498.266</ele>
        <time>2019-09-30T11:51:35Z</time>
      </trkpt>
      <trkpt lat="45.84164" lon="4.23013">
        <ele>496.473</ele>
        <time>2019-09-30T11:51:41Z</time>
      </trkpt>
      <trkpt lat="45.8417" lon="4.2301">
        <ele>497.273</ele>
        <time>2019-09-30T11:51:47Z</time>
      </trkpt>
      <trkpt lat="45.84174" lon="4.23006">
        <ele>495.169</ele>
        <time>2019-09-30T11:51:52Z</time>
      </trkpt>
      <trkpt lat="45.84179" lon="4.23003">
        <ele>494.154</ele>
        <time>2019-09-30T11:51:57Z</time>
      </trkpt>
      <trkpt lat="45.84184" lon="4.22998">
        <ele>493.615</ele>
        <time>2019-09-30T11:52:02Z</time>
      </trkpt>
      <trkpt lat="45.84192" lon="4.22993">
        <ele>493.503</ele>
        <time>2019-09-30T11:52:08Z</time>
      </trkpt>
      <trkpt lat="45.84196" lon="4.22988">
        <ele>494.505</ele>
        <time>2019-09-30T11:52:13Z</time>
      </trkpt>
      <trkpt lat="45.84204" lon="4.22987">
        <ele>497.044</ele>
        <time>2019-09-30T11:52:19Z</time>
      </trkpt>
      <trkpt lat="45.8421" lon="4.22983">
        <ele>499.779</ele>
        <time>2019-09-30T11:52:25Z</time>
      </trkpt>
      <trkpt lat="45.84218" lon="4.22983">
        <ele>502.013</ele>
        <time>2019-09-30T11:52:30Z</time>
      </trkpt>
      <trkpt lat="45.84223" lon="4.2298">
        <ele>505.177</ele>
        <time>2019-09-30T11:52:36Z</time>
      </trkpt>
      <trkpt lat="45.84228" lon="4.22981">
        <ele>501.918</ele>
        <time>2019-09-30T11:52:42Z</time>
      </trkpt>
      <trkpt lat="45.84231" lon="4.22982">
        <ele>502.053</ele>
        <time>2019-09-30T11:52:47Z</time>
      </trkpt>
      <trkpt lat="45.84236" lon="4.22983">
        <ele>501.603</ele>
        <time>2019-09-30T11:52:52Z</time>
      </trkpt>
      <trkpt lat="45.84241" lon="4.22983">
        <ele>507.081</ele>
        <time>2019-09-30T11:52:58Z</time>
      </trkpt>
      <trkpt lat="45.84247" lon="4.22985">
        <ele>520.052</ele>
        <time>2019-09-30T11:53:04Z</time>
      </trkpt>
      <trkpt lat="45.84253" lon="4.22986">
        <ele>513.682</ele>
        <time>2019-09-30T11:53:09Z</time>
      </trkpt>
      <trkpt lat="45.84258" lon="4.22989">
        <ele>513.244</ele>
        <time>2019-09-30T11:53:15Z</time>
      </trkpt>
      <trkpt lat="45.84263" lon="4.22991">
        <ele>514.296</ele>
        <time>2019-09-30T11:53:20Z</time>
      </trkpt>
      <trkpt lat="45.84269" lon="4.22994">
        <ele>519.684</ele>
        <time>2019-09-30T11:53:26Z</time>
      </trkpt>
      <trkpt lat="45.84271" lon="4.22996">
        <ele>520.426</ele>
        <time>2019-09-30T11:53:31Z</time>
      </trkpt>
      <trkpt lat="45.84276" lon="4.23">
        <ele>521.056</ele>
        <time>2019-09-30T11:53:37Z</time>
      </trkpt>
      <trkpt lat="45.8428" lon="4.23002">
        <ele>521.862</ele>
        <time>2019-09-30T11:53:42Z</time>
      </trkpt>
      <trkpt lat="45.84283" lon="4.23003">
        <ele>522.008</ele>
        <time>2019-09-30T11:53:47Z</time>
      </trkpt>
      <trkpt lat="45.84286" lon="4.23009">
        <ele>521.666</ele>
        <time>2019-09-30T11:53:53Z</time>
      </trkpt>
      <trkpt lat="45.8429" lon="4.23013">
        <ele>521.764</ele>
        <time>2019-09-30T11:53:59Z</time>
      </trkpt>
      <trkpt lat="45.84292" lon="4.23014">
        <ele>522.309</ele>
        <time>2019-09-30T11:54:04Z</time>
      </trkpt>
      <trkpt lat="45.84296" lon="4.23019">
        <ele>522.707</ele>
        <time>2019-09-30T11:54:09Z</time>
      </trkpt>
      <trkpt lat="45.84301" lon="4.23025">
        <ele>523.233</ele>
        <time>2019-09-30T11:54:15Z</time>
      </trkpt>
      <trkpt lat="45.84306" lon="4.23027">
        <ele>521.862</ele>
        <time>2019-09-30T11:54:21Z</time>
      </trkpt>
      <trkpt lat="45.84311" lon="4.2303">
        <ele>520.344</ele>
        <time>2019-09-30T11:54:26Z</time>
      </trkpt>
      <trkpt lat="45.84316" lon="4.23034">
        <ele>519.709</ele>
        <time>2019-09-30T11:54:32Z</time>
      </trkpt>
      <trkpt lat="45.8432" lon="4.23039">
        <ele>522.034</ele>
        <time>2019-09-30T11:54:37Z</time>
      </trkpt>
      <trkpt lat="45.84326" lon="4.23043">
        <ele>521.68</ele>
        <time>2019-09-30T11:54:42Z</time>
      </trkpt>
      <trkpt lat="45.84331" lon="4.23049">
        <ele>525.37</ele>
        <time>2019-09-30T11:54:48Z</time>
      </trkpt>
      <trkpt lat="45.84335" lon="4.23056">
        <ele>524.738</ele>
        <time>2019-09-30T11:54:53Z</time>
      </trkpt>
      <trkpt lat="45.8434" lon="4.2306">
        <ele>522.141</ele>
        <time>2019-09-30T11:54:59Z</time>
      </trkpt>
      <trkpt lat="45.84346" lon="4.23066">
        <ele>523.218</ele>
        <time>2019-09-30T11:55:04Z</time>
      </trkpt>
      <trkpt lat="45.84352" lon="4.23071">
        <ele>523.253</ele>
        <time>2019-09-30T11:55:10Z</time>
      </trkpt>
      <trkpt lat="45.84356" lon="4.23071">
        <ele>521.461</ele>
        <time>2019-09-30T11:55:15Z</time>
      </trkpt>
      <trkpt lat="45.84363" lon="4.23072">
        <ele>522.721</ele>
        <time>2019-09-30T11:55:21Z</time>
      </trkpt>
      <trkpt lat="45.84369" lon="4.23073">
        <ele>523.624</ele>
        <time>2019-09-30T11:55:26Z</time>
      </trkpt>
      <trkpt lat="45.84376" lon="4.23077">
        <ele>522.852</ele>
        <time>2019-09-30T11:55:32Z</time>
      </trkpt>
      <trkpt lat="45.84382" lon="4.23081">
        <ele>518.161</ele>
        <time>2019-09-30T11:55:38Z</time>
      </trkpt>
      <trkpt lat="45.84389" lon="4.23087">
        <ele>519.353</ele>
        <time>2019-09-30T11:55:44Z</time>
      </trkpt>
      <trkpt lat="45.84396" lon="4.23095">
        <ele>522.083</ele>
        <time>2019-09-30T11:55:50Z</time>
      </trkpt>
      <trkpt lat="45.84401" lon="4.23097">
        <ele>522.925</ele>
        <time>2019-09-30T11:55:56Z</time>
      </trkpt>
      <trkpt lat="45.84405" lon="4.231">
        <ele>526.125</ele>
        <time>2019-09-30T11:56:02Z</time>
      </trkpt>
      <trkpt lat="45.84411" lon="4.23104">
        <ele>527.078</ele>
        <time>2019-09-30T11:56:07Z</time>
      </trkpt>
      <trkpt lat="45.84418" lon="4.2311">
        <ele>524.93</ele>
        <time>2019-09-30T11:56:13Z</time>
      </trkpt>
      <trkpt lat="45.84424" lon="4.23114">
        <ele>524.511</ele>
        <time>2019-09-30T11:56:18Z</time>
      </trkpt>
      <trkpt lat="45.8443" lon="4.23118">
        <ele>525.792</ele>
        <time>2019-09-30T11:56:24Z</time>
      </trkpt>
      <trkpt lat="45.84434" lon="4.2312">
        <ele>525.045</ele>
        <time>2019-09-30T11:56:29Z</time>
      </trkpt>
      <trkpt lat="45.84438" lon="4.23126">
        <ele>521.491</ele>
        <time>2019-09-30T11:56:34Z</time>
      </trkpt>
      <trkpt lat="45.84442" lon="4.23132">
        <ele>523.09</ele>
        <time>2019-09-30T11:56:40Z</time>
      </trkpt>
      <trkpt lat="45.84446" lon="4.23138">
        <ele>522.785</ele>
        <time>2019-09-30T11:56:45Z</time>
      </trkpt>
      <trkpt lat="45.8445" lon="4.23142">
        <ele>521.81</ele>
        <time>2019-09-30T11:56:50Z</time>
      </trkpt>
      <trkpt lat="45.84457" lon="4.23149">
        <ele>519.442</ele>
        <time>2019-09-30T11:56:56Z</time>
      </trkpt>
      <trkpt lat="45.84461" lon="4.23155">
        <ele>521.019</ele>
        <time>2019-09-30T11:57:01Z</time>
      </trkpt>
      <trkpt lat="45.84466" lon="4.23159">
        <ele>520.193</ele>
        <time>2019-09-30T11:57:07Z</time>
      </trkpt>
      <trkpt lat="45.84469" lon="4.23161">
        <ele>518.49</ele>
        <time>2019-09-30T11:57:12Z</time>
      </trkpt>
      <trkpt lat="45.84474" lon="4.23166">
        <ele>519.651</ele>
        <time>2019-09-30T11:57:17Z</time>
      </trkpt>
      <trkpt lat="45.84481" lon="4.23172">
        <ele>523.545</ele>
        <time>2019-09-30T11:57:23Z</time>
      </trkpt>
      <trkpt lat="45.84484" lon="4.23174">
        <ele>522.95</ele>
        <time>2019-09-30T11:57:28Z</time>
      </trkpt>
      <trkpt lat="45.8449" lon="4.23181">
        <ele>523.031</ele>
        <time>2019-09-30T11:57:34Z</time>
      </trkpt>
      <trkpt lat="45.84496" lon="4.23187">
        <ele>523.679</ele>
        <time>2019-09-30T11:57:40Z</time>
      </trkpt>
      <trkpt lat="45.84501" lon="4.23187">
        <ele>521.165</ele>
        <time>2019-09-30T11:57:46Z</time>
      </trkpt>
      <trkpt lat="45.84502" lon="4.23189">
        <ele>518.58</ele>
        <time>2019-09-30T11:57:52Z</time>
      </trkpt>
      <trkpt lat="45.84503" lon="4.23188">
        <ele>518.261</ele>
        <time>2019-09-30T11:57:58Z</time>
      </trkpt>
      <trkpt lat="45.84503" lon="4.23188">
        <ele>518.357</ele>
        <time>2019-09-30T11:58:04Z</time>
      </trkpt>
      <trkpt lat="45.84503" lon="4.23188">
        <ele>519.801</ele>
        <time>2019-09-30T11:58:10Z</time>
      </trkpt>
      <trkpt lat="45.84503" lon="4.23188">
        <ele>520.109</ele>
        <time>2019-09-30T11:58:15Z</time>
      </trkpt>
      <trkpt lat="45.84503" lon="4.23188">
        <ele>521.344</ele>
        <time>2019-09-30T11:58:21Z</time>
      </trkpt>
      <trkpt lat="45.84503" lon="4.23188">
        <ele>523.074</ele>
        <time>2019-09-30T11:58:27Z</time>
      </trkpt>
      <trkpt lat="45.84503" lon="4.23188">
        <ele>521.394</ele>
        <time>2019-09-30T11:58:33Z</time>
      </trkpt>
      <trkpt lat="45.84503" lon="4.23188">
        <ele>519.164</ele>
        <time>2019-09-30T11:58:39Z</time>
      </trkpt>
      <trkpt lat="45.84503" lon="4.23188">
        <ele>521.291</ele>
        <time>2019-09-30T11:58:45Z</time>
      </trkpt>
      <trkpt lat="45.84503" lon="4.23188">
        <ele>525.183</ele>
        <time>2019-09-30T11:58:50Z</time>
      </trkpt>
      <trkpt lat="45.84503" lon="4.23188">
        <ele>525.757</ele>
        <time>2019-09-30T11:58:56Z</time>
      </trkpt>
      <trkpt lat="45.84503" lon="4.23188">
        <ele>522.691</ele>
        <time>2019-09-30T11:59:01Z</time>
      </trkpt>
      <trkpt lat="45.84503" lon="4.23188">
        <ele>523.812</ele>
        <time>2019-09-30T11:59:07Z</time>
      </trkpt>
      <trkpt lat="45.84503" lon="4.23188">
        <ele>523.44</ele>
        <time>2019-09-30T11:59:13Z</time>
      </trkpt>
      <trkpt lat="45.84503" lon="4.23188">
        <ele>524.082</ele>
        <time>2019-09-30T11:59:19Z</time>
      </trkpt>
      <trkpt lat="45.84503" lon="4.23188">
        <ele>522.883</ele>
        <time>2019-09-30T11:59:25Z</time>
      </trkpt>
      <trkpt lat="45.84503" lon="4.23188">
        <ele>521.487</ele>
        <time>2019-09-30T11:59:31Z</time>
      </trkpt>
      <trkpt lat="45.84503" lon="4.23188">
        <ele>526.555</ele>
        <time>2019-09-30T11:59:37Z</time>
      </trkpt>
      <trkpt lat="45.84504" lon="4.23189">
        <ele>527.189</ele>
        <time>2019-09-30T11:59:42Z</time>
      </trkpt>
      <trkpt lat="45.84504" lon="4.23189">
        <ele>525.591</ele>
        <time>2019-09-30T11:59:48Z</time>
      </trkpt>
      <trkpt lat="45.84505" lon="4.23189">
        <ele>525.394</ele>
        <time>2019-09-30T11:59:53Z</time>
      </trkpt>
      <trkpt lat="45.84505" lon="4.23189">
        <ele>525.39</ele>
        <time>2019-09-30T11:59:59Z</time>
      </trkpt>
      <trkpt lat="45.84505" lon="4.23189">
        <ele>520.357</ele>
        <time>2019-09-30T12:00:05Z</time>
      </trkpt>
      <trkpt lat="45.84505" lon="4.23189">
        <ele>522.454</ele>
        <time>2019-09-30T12:00:10Z</time>
      </trkpt>
      <trkpt lat="45.84505" lon="4.23189">
        <ele>528.181</ele>
        <time>2019-09-30T12:00:16Z</time>
      </trkpt>
      <trkpt lat="45.84505" lon="4.23189">
        <ele>530.253</ele>
        <time>2019-09-30T12:00:21Z</time>
      </trkpt>
      <trkpt lat="45.84505" lon="4.23189">
        <ele>525.312</ele>
        <time>2019-09-30T12:00:27Z</time>
      </trkpt>
      <trkpt lat="45.84505" lon="4.23189">
        <ele>527.57</ele>
        <time>2019-09-30T12:00:32Z</time>
      </trkpt>
      <trkpt lat="45.84505" lon="4.23189">
        <ele>529.627</ele>
        <time>2019-09-30T12:00:37Z</time>
      </trkpt>
      <trkpt lat="45.84505" lon="4.23189">
        <ele>529.925</ele>
        <time>2019-09-30T12:00:43Z</time>
      </trkpt>
      <trkpt lat="45.84505" lon="4.23189">
        <ele>529.856</ele>
        <time>2019-09-30T12:00:49Z</time>
      </trkpt>
      <trkpt lat="45.84505" lon="4.23189">
        <ele>527.636</ele>
        <time>2019-09-30T12:00:55Z</time>
      </trkpt>
      <trkpt lat="45.84505" lon="4.23189">
        <ele>529.353</ele>
        <time>2019-09-30T12:01:01Z</time>
      </trkpt>
      <trkpt lat="45.84505" lon="4.23189">
        <ele>527.086</ele>
        <time>2019-09-30T12:01:07Z</time>
      </trkpt>
      <trkpt lat="45.84505" lon="4.23189">
        <ele>524.963</ele>
        <time>2019-09-30T12:01:13Z</time>
      </trkpt>
      <trkpt lat="45.84505" lon="4.23189">
        <ele>525.316</ele>
        <time>2019-09-30T12:01:19Z</time>
      </trkpt>
      <trkpt lat="45.84505" lon="4.23189">
        <ele>527.674</ele>
        <time>2019-09-30T12:01:25Z</time>
      </trkpt>
      <trkpt lat="45.84507" lon="4.23188">
        <ele>524.679</ele>
        <time>2019-09-30T12:01:30Z</time>
      </trkpt>
      <trkpt lat="45.84522" lon="4.23185">
        <ele>525.539</ele>
        <time>2019-09-30T12:01:36Z</time>
      </trkpt>
      <trkpt lat="45.84527" lon="4.2318">
        <ele>524.726</ele>
        <time>2019-09-30T12:01:42Z</time>
      </trkpt>
      <trkpt lat="45.84532" lon="4.23178">
        <ele>525.011</ele>
        <time>2019-09-30T12:01:47Z</time>
      </trkpt>
      <trkpt lat="45.84537" lon="4.23175">
        <ele>525.292</ele>
        <time>2019-09-30T12:01:53Z</time>
      </trkpt>
      <trkpt lat="45.84543" lon="4.23175">
        <ele>527.208</ele>
        <time>2019-09-30T12:01:58Z</time>
      </trkpt>
      <trkpt lat="45.84548" lon="4.23172">
        <ele>525.814</ele>
        <time>2019-09-30T12:02:04Z</time>
      </trkpt>
      <trkpt lat="45.84549" lon="4.23168">
        <ele>525.458</ele>
        <time>2019-09-30T12:02:09Z</time>
      </trkpt>
      <trkpt lat="45.84553" lon="4.23164">
        <ele>523.121</ele>
        <time>2019-09-30T12:02:14Z</time>
      </trkpt>
      <trkpt lat="45.84557" lon="4.23164">
        <ele>525.058</ele>
        <time>2019-09-30T12:02:20Z</time>
      </trkpt>
      <trkpt lat="45.84561" lon="4.23162">
        <ele>525.872</ele>
        <time>2019-09-30T12:02:26Z</time>
      </trkpt>
      <trkpt lat="45.84564" lon="4.23158">
        <ele>523.348</ele>
        <time>2019-09-30T12:02:32Z</time>
      </trkpt>
      <trkpt lat="45.84567" lon="4.23158">
        <ele>523.529</ele>
        <time>2019-09-30T12:02:38Z</time>
      </trkpt>
      <trkpt lat="45.84568" lon="4.23156">
        <ele>522.169</ele>
        <time>2019-09-30T12:02:43Z</time>
      </trkpt>
      <trkpt lat="45.84571" lon="4.23153">
        <ele>520.148</ele>
        <time>2019-09-30T12:02:49Z</time>
      </trkpt>
      <trkpt lat="45.84574" lon="4.23152">
        <ele>520.187</ele>
        <time>2019-09-30T12:02:54Z</time>
      </trkpt>
      <trkpt lat="45.84581" lon="4.23149">
        <ele>522.409</ele>
        <time>2019-09-30T12:03:00Z</time>
      </trkpt>
      <trkpt lat="45.84585" lon="4.23148">
        <ele>523.063</ele>
        <time>2019-09-30T12:03:06Z</time>
      </trkpt>
      <trkpt lat="45.84589" lon="4.23146">
        <ele>524.535</ele>
        <time>2019-09-30T12:03:12Z</time>
      </trkpt>
      <trkpt lat="45.84592" lon="4.23146">
        <ele>522.317</ele>
        <time>2019-09-30T12:03:17Z</time>
      </trkpt>
      <trkpt lat="45.84596" lon="4.23145">
        <ele>523.966</ele>
        <time>2019-09-30T12:03:22Z</time>
      </trkpt>
      <trkpt lat="45.846" lon="4.23142">
        <ele>516.238</ele>
        <time>2019-09-30T12:03:28Z</time>
      </trkpt>
      <trkpt lat="45.84606" lon="4.23144">
        <ele>517.107</ele>
        <time>2019-09-30T12:03:34Z</time>
      </trkpt>
      <trkpt lat="45.8461" lon="4.23145">
        <ele>520.374</ele>
        <time>2019-09-30T12:03:40Z</time>
      </trkpt>
      <trkpt lat="45.84614" lon="4.23146">
        <ele>522.146</ele>
        <time>2019-09-30T12:03:45Z</time>
      </trkpt>
      <trkpt lat="45.8462" lon="4.23147">
        <ele>519.895</ele>
        <time>2019-09-30T12:03:50Z</time>
      </trkpt>
      <trkpt lat="45.84627" lon="4.23147">
        <ele>519.9</ele>
        <time>2019-09-30T12:03:56Z</time>
      </trkpt>
      <trkpt lat="45.84635" lon="4.23149">
        <ele>521.372</ele>
        <time>2019-09-30T12:04:02Z</time>
      </trkpt>
      <trkpt lat="45.8464" lon="4.23153">
        <ele>529.33</ele>
        <time>2019-09-30T12:04:08Z</time>
      </trkpt>
      <trkpt lat="45.84647" lon="4.23152">
        <ele>529.087</ele>
        <time>2019-09-30T12:04:13Z</time>
      </trkpt>
      <trkpt lat="45.84656" lon="4.23152">
        <ele>528.269</ele>
        <time>2019-09-30T12:04:19Z</time>
      </trkpt>
      <trkpt lat="45.84667" lon="4.23154">
        <ele>527.814</ele>
        <time>2019-09-30T12:04:24Z</time>
      </trkpt>
      <trkpt lat="45.84668" lon="4.23157">
        <ele>528.098</ele>
        <time>2019-09-30T12:04:29Z</time>
      </trkpt>
      <trkpt lat="45.84676" lon="4.23157">
        <ele>522.321</ele>
        <time>2019-09-30T12:04:35Z</time>
      </trkpt>
      <trkpt lat="45.84679" lon="4.23156">
        <ele>499.796</ele>
        <time>2019-09-30T12:04:41Z</time>
      </trkpt>
      <trkpt lat="45.84682" lon="4.23157">
        <ele>494.048</ele>
        <time>2019-09-30T12:04:46Z</time>
      </trkpt>
      <trkpt lat="45.84683" lon="4.23154">
        <ele>490.505</ele>
        <time>2019-09-30T12:04:52Z</time>
      </trkpt>
      <trkpt lat="45.84688" lon="4.2315">
        <ele>491.652</ele>
        <time>2019-09-30T12:04:58Z</time>
      </trkpt>
      <trkpt lat="45.84691" lon="4.23146">
        <ele>493.437</ele>
        <time>2019-09-30T12:05:04Z</time>
      </trkpt>
      <trkpt lat="45.84697" lon="4.23145">
        <ele>493.226</ele>
        <time>2019-09-30T12:05:09Z</time>
      </trkpt>
      <trkpt lat="45.84704" lon="4.23143">
        <ele>492.823</ele>
        <time>2019-09-30T12:05:15Z</time>
      </trkpt>
      <trkpt lat="45.84703" lon="4.23139">
        <ele>492.619</ele>
        <time>2019-09-30T12:05:21Z</time>
      </trkpt>
      <trkpt lat="45.84703" lon="4.23138">
        <ele>493.183</ele>
        <time>2019-09-30T12:05:26Z</time>
      </trkpt>
      <trkpt lat="45.84703" lon="4.23135">
        <ele>493.099</ele>
        <time>2019-09-30T12:05:32Z</time>
      </trkpt>
      <trkpt lat="45.84706" lon="4.23125">
        <ele>490.299</ele>
        <time>2019-09-30T12:05:38Z</time>
      </trkpt>
      <trkpt lat="45.84711" lon="4.23114">
        <ele>491.028</ele>
        <time>2019-09-30T12:05:44Z</time>
      </trkpt>
      <trkpt lat="45.84716" lon="4.23111">
        <ele>487.344</ele>
        <time>2019-09-30T12:05:49Z</time>
      </trkpt>
      <trkpt lat="45.84716" lon="4.23103">
        <ele>492.971</ele>
        <time>2019-09-30T12:05:55Z</time>
      </trkpt>
      <trkpt lat="45.84719" lon="4.23105">
        <ele>492.17</ele>
        <time>2019-09-30T12:06:01Z</time>
      </trkpt>
      <trkpt lat="45.84719" lon="4.23105">
        <ele>494.226</ele>
        <time>2019-09-30T12:06:06Z</time>
      </trkpt>
      <trkpt lat="45.8472" lon="4.23105">
        <ele>494.957</ele>
        <time>2019-09-30T12:06:12Z</time>
      </trkpt>
      <trkpt lat="45.84721" lon="4.23106">
        <ele>494.2</ele>
        <time>2019-09-30T12:06:18Z</time>
      </trkpt>
      <trkpt lat="45.84729" lon="4.23114">
        <ele>492.417</ele>
        <time>2019-09-30T12:06:23Z</time>
      </trkpt>
      <trkpt lat="45.84738" lon="4.23119">
        <ele>492.867</ele>
        <time>2019-09-30T12:06:29Z</time>
      </trkpt>
      <trkpt lat="45.84741" lon="4.23121">
        <ele>493.357</ele>
        <time>2019-09-30T12:06:35Z</time>
      </trkpt>
      <trkpt lat="45.84746" lon="4.23123">
        <ele>498.919</ele>
        <time>2019-09-30T12:06:41Z</time>
      </trkpt>
      <trkpt lat="45.8475" lon="4.23126">
        <ele>499.299</ele>
        <time>2019-09-30T12:06:46Z</time>
      </trkpt>
      <trkpt lat="45.84754" lon="4.23127">
        <ele>500.39</ele>
        <time>2019-09-30T12:06:52Z</time>
      </trkpt>
      <trkpt lat="45.84757" lon="4.23128">
        <ele>500.31</ele>
        <time>2019-09-30T12:06:58Z</time>
      </trkpt>
      <trkpt lat="45.84761" lon="4.2313">
        <ele>501.451</ele>
        <time>2019-09-30T12:07:04Z</time>
      </trkpt>
      <trkpt lat="45.84765" lon="4.2313">
        <ele>501.618</ele>
        <time>2019-09-30T12:07:09Z</time>
      </trkpt>
      <trkpt lat="45.84764" lon="4.2313">
        <ele>500.772</ele>
        <time>2019-09-30T12:07:14Z</time>
      </trkpt>
      <trkpt lat="45.84765" lon="4.2313">
        <ele>500.948</ele>
        <time>2019-09-30T12:07:20Z</time>
      </trkpt>
      <trkpt lat="45.84764" lon="4.2313">
        <ele>500.793</ele>
        <time>2019-09-30T12:07:26Z</time>
      </trkpt>
      <trkpt lat="45.84765" lon="4.2313">
        <ele>500.933</ele>
        <time>2019-09-30T12:07:32Z</time>
      </trkpt>
      <trkpt lat="45.84765" lon="4.2313">
        <ele>500.948</ele>
        <time>2019-09-30T12:07:38Z</time>
      </trkpt>
      <trkpt lat="45.84765" lon="4.2313">
        <ele>500.958</ele>
        <time>2019-09-30T12:07:43Z</time>
      </trkpt>
      <trkpt lat="45.84765" lon="4.2313">
        <ele>500.956</ele>
        <time>2019-09-30T12:07:48Z</time>
      </trkpt>
      <trkpt lat="45.84765" lon="4.2313">
        <ele>501.804</ele>
        <time>2019-09-30T12:07:54Z</time>
      </trkpt>
      <trkpt lat="45.84764" lon="4.23129">
        <ele>501.819</ele>
        <time>2019-09-30T12:07:59Z</time>
      </trkpt>
      <trkpt lat="45.84764" lon="4.23129">
        <ele>502.011</ele>
        <time>2019-09-30T12:08:05Z</time>
      </trkpt>
      <trkpt lat="45.84764" lon="4.23129">
        <ele>502.007</ele>
        <time>2019-09-30T12:08:10Z</time>
      </trkpt>
      <trkpt lat="45.84765" lon="4.2313">
        <ele>501.736</ele>
        <time>2019-09-30T12:08:16Z</time>
      </trkpt>
      <trkpt lat="45.84768" lon="4.23131">
        <ele>501.089</ele>
        <time>2019-09-30T12:08:22Z</time>
      </trkpt>
      <trkpt lat="45.84772" lon="4.23133">
        <ele>499.219</ele>
        <time>2019-09-30T12:08:28Z</time>
      </trkpt>
      <trkpt lat="45.84776" lon="4.23133">
        <ele>501.546</ele>
        <time>2019-09-30T12:08:34Z</time>
      </trkpt>
      <trkpt lat="45.84778" lon="4.23133">
        <ele>502.036</ele>
        <time>2019-09-30T12:08:39Z</time>
      </trkpt>
      <trkpt lat="45.84778" lon="4.23132">
        <ele>502.162</ele>
        <time>2019-09-30T12:08:45Z</time>
      </trkpt>
      <trkpt lat="45.84779" lon="4.23132">
        <ele>502.976</ele>
        <time>2019-09-30T12:08:50Z</time>
      </trkpt>
      <trkpt lat="45.84782" lon="4.23131">
        <ele>503.132</ele>
        <time>2019-09-30T12:08:56Z</time>
      </trkpt>
      <trkpt lat="45.84786" lon="4.2313">
        <ele>504.023</ele>
        <time>2019-09-30T12:09:01Z</time>
      </trkpt>
      <trkpt lat="45.8479" lon="4.23126">
        <ele>503.482</ele>
        <time>2019-09-30T12:09:07Z</time>
      </trkpt>
      <trkpt lat="45.84794" lon="4.23124">
        <ele>505.386</ele>
        <time>2019-09-30T12:09:12Z</time>
      </trkpt>
      <trkpt lat="45.84797" lon="4.23121">
        <ele>505.468</ele>
        <time>2019-09-30T12:09:18Z</time>
      </trkpt>
      <trkpt lat="45.84801" lon="4.23118">
        <ele>504.03</ele>
        <time>2019-09-30T12:09:23Z</time>
      </trkpt>
      <trkpt lat="45.84808" lon="4.23118">
        <ele>508.348</ele>
        <time>2019-09-30T12:09:29Z</time>
      </trkpt>
      <trkpt lat="45.84816" lon="4.23121">
        <ele>512.067</ele>
        <time>2019-09-30T12:09:35Z</time>
      </trkpt>
      <trkpt lat="45.84819" lon="4.23122">
        <ele>511.677</ele>
        <time>2019-09-30T12:09:40Z</time>
      </trkpt>
      <trkpt lat="45.84822" lon="4.23126">
        <ele>510.119</ele>
        <time>2019-09-30T12:09:46Z</time>
      </trkpt>
      <trkpt lat="45.84824" lon="4.23134">
        <ele>511.677</ele>
        <time>2019-09-30T12:09:52Z</time>
      </trkpt>
      <trkpt lat="45.84827" lon="4.23143">
        <ele>513.642</ele>
        <time>2019-09-30T12:09:58Z</time>
      </trkpt>
      <trkpt lat="45.84829" lon="4.23149">
        <ele>514.575</ele>
        <time>2019-09-30T12:10:04Z</time>
      </trkpt>
      <trkpt lat="45.84829" lon="4.23155">
        <ele>514.194</ele>
        <time>2019-09-30T12:10:10Z</time>
      </trkpt>
      <trkpt lat="45.84828" lon="4.2316">
        <ele>515.845</ele>
        <time>2019-09-30T12:10:15Z</time>
      </trkpt>
      <trkpt lat="45.84828" lon="4.23168">
        <ele>518.303</ele>
        <time>2019-09-30T12:10:21Z</time>
      </trkpt>
      <trkpt lat="45.84828" lon="4.23172">
        <ele>518.284</ele>
        <time>2019-09-30T12:10:26Z</time>
      </trkpt>
      <trkpt lat="45.84829" lon="4.23178">
        <ele>519.714</ele>
        <time>2019-09-30T12:10:32Z</time>
      </trkpt>
      <trkpt lat="45.8483" lon="4.23183">
        <ele>520.792</ele>
        <time>2019-09-30T12:10:38Z</time>
      </trkpt>
      <trkpt lat="45.84832" lon="4.23188">
        <ele>521.878</ele>
        <time>2019-09-30T12:10:44Z</time>
      </trkpt>
      <trkpt lat="45.84835" lon="4.23193">
        <ele>523.313</ele>
        <time>2019-09-30T12:10:50Z</time>
      </trkpt>
      <trkpt lat="45.84838" lon="4.23197">
        <ele>524.127</ele>
        <time>2019-09-30T12:10:55Z</time>
      </trkpt>
      <trkpt lat="45.84842" lon="4.23201">
        <ele>524.935</ele>
        <time>2019-09-30T12:11:01Z</time>
      </trkpt>
      <trkpt lat="45.84844" lon="4.23203">
        <ele>525.041</ele>
        <time>2019-09-30T12:11:06Z</time>
      </trkpt>
      <trkpt lat="45.84846" lon="4.23206">
        <ele>526.012</ele>
        <time>2019-09-30T12:11:11Z</time>
      </trkpt>
      <trkpt lat="45.84849" lon="4.23208">
        <ele>527.411</ele>
        <time>2019-09-30T12:11:17Z</time>
      </trkpt>
      <trkpt lat="45.84852" lon="4.23211">
        <ele>527.143</ele>
        <time>2019-09-30T12:11:23Z</time>
      </trkpt>
      <trkpt lat="45.84855" lon="4.23214">
        <ele>527.76</ele>
        <time>2019-09-30T12:11:29Z</time>
      </trkpt>
      <trkpt lat="45.85087" lon="4.23226">
        <ele>542.27</ele>
        <time>2019-09-30T12:15:38Z</time>
      </trkpt>
      <trkpt lat="45.85092" lon="4.23216">
        <ele>546.272</ele>
        <time>2019-09-30T12:15:44Z</time>
      </trkpt>
      <trkpt lat="45.85097" lon="4.23212">
        <ele>547.923</ele>
        <time>2019-09-30T12:15:49Z</time>
      </trkpt>
      <trkpt lat="45.85102" lon="4.23209">
        <ele>548.81</ele>
        <time>2019-09-30T12:15:55Z</time>
      </trkpt>
      <trkpt lat="45.85104" lon="4.23205">
        <ele>547.334</ele>
        <time>2019-09-30T12:16:01Z</time>
      </trkpt>
      <trkpt lat="45.85112" lon="4.23204">
        <ele>547.897</ele>
        <time>2019-09-30T12:16:07Z</time>
      </trkpt>
      <trkpt lat="45.85119" lon="4.23203">
        <ele>548.913</ele>
        <time>2019-09-30T12:16:13Z</time>
      </trkpt>
      <trkpt lat="45.85127" lon="4.23201">
        <ele>548.344</ele>
        <time>2019-09-30T12:16:19Z</time>
      </trkpt>
      <trkpt lat="45.85134" lon="4.23199">
        <ele>546.686</ele>
        <time>2019-09-30T12:16:24Z</time>
      </trkpt>
      <trkpt lat="45.85139" lon="4.23197">
        <ele>546.489</ele>
        <time>2019-09-30T12:16:29Z</time>
      </trkpt>
      <trkpt lat="45.85146" lon="4.23196">
        <ele>549.728</ele>
        <time>2019-09-30T12:16:34Z</time>
      </trkpt>
      <trkpt lat="45.85158" lon="4.23197">
        <ele>553.865</ele>
        <time>2019-09-30T12:16:40Z</time>
      </trkpt>
      <trkpt lat="45.85167" lon="4.23194">
        <ele>553.07</ele>
        <time>2019-09-30T12:16:46Z</time>
      </trkpt>
      <trkpt lat="45.85175" lon="4.23193">
        <ele>554.478</ele>
        <time>2019-09-30T12:16:52Z</time>
      </trkpt>
      <trkpt lat="45.85184" lon="4.23195">
        <ele>554.876</ele>
        <time>2019-09-30T12:16:57Z</time>
      </trkpt>
      <trkpt lat="45.85193" lon="4.23197">
        <ele>556.401</ele>
        <time>2019-09-30T12:17:03Z</time>
      </trkpt>
      <trkpt lat="45.85202" lon="4.23199">
        <ele>558.831</ele>
        <time>2019-09-30T12:17:09Z</time>
      </trkpt>
      <trkpt lat="45.85208" lon="4.23203">
        <ele>556.853</ele>
        <time>2019-09-30T12:17:15Z</time>
      </trkpt>
      <trkpt lat="45.85213" lon="4.23207">
        <ele>554.611</ele>
        <time>2019-09-30T12:17:20Z</time>
      </trkpt>
      <trkpt lat="45.85218" lon="4.23212">
        <ele>553.999</ele>
        <time>2019-09-30T12:17:26Z</time>
      </trkpt>
      <trkpt lat="45.85221" lon="4.2322">
        <ele>551.8</ele>
        <time>2019-09-30T12:17:32Z</time>
      </trkpt>
      <trkpt lat="45.85224" lon="4.23228">
        <ele>540.085</ele>
        <time>2019-09-30T12:17:38Z</time>
      </trkpt>
      <trkpt lat="45.85226" lon="4.23236">
        <ele>539.932</ele>
        <time>2019-09-30T12:17:43Z</time>
      </trkpt>
      <trkpt lat="45.85227" lon="4.23244">
        <ele>541.311</ele>
        <time>2019-09-30T12:17:48Z</time>
      </trkpt>
      <trkpt lat="45.85231" lon="4.2325">
        <ele>541.725</ele>
        <time>2019-09-30T12:17:54Z</time>
      </trkpt>
      <trkpt lat="45.85235" lon="4.23253">
        <ele>541.061</ele>
        <time>2019-09-30T12:17:59Z</time>
      </trkpt>
      <trkpt lat="45.85239" lon="4.23258">
        <ele>541.135</ele>
        <time>2019-09-30T12:18:05Z</time>
      </trkpt>
      <trkpt lat="45.85245" lon="4.23262">
        <ele>543.74</ele>
        <time>2019-09-30T12:18:11Z</time>
      </trkpt>
      <trkpt lat="45.85252" lon="4.23265">
        <ele>546.193</ele>
        <time>2019-09-30T12:18:17Z</time>
      </trkpt>
      <trkpt lat="45.85258" lon="4.23265">
        <ele>545.712</ele>
        <time>2019-09-30T12:18:23Z</time>
      </trkpt>
      <trkpt lat="45.85262" lon="4.23268">
        <ele>543.588</ele>
        <time>2019-09-30T12:18:29Z</time>
      </trkpt>
      <trkpt lat="45.8527" lon="4.2327">
        <ele>543.909</ele>
        <time>2019-09-30T12:18:35Z</time>
      </trkpt>
      <trkpt lat="45.85273" lon="4.23271">
        <ele>544.464</ele>
        <time>2019-09-30T12:18:41Z</time>
      </trkpt>
      <trkpt lat="45.85276" lon="4.23273">
        <ele>541.956</ele>
        <time>2019-09-30T12:18:46Z</time>
      </trkpt>
      <trkpt lat="45.85281" lon="4.23276">
        <ele>543.805</ele>
        <time>2019-09-30T12:18:52Z</time>
      </trkpt>
      <trkpt lat="45.85288" lon="4.23279">
        <ele>544.212</ele>
        <time>2019-09-30T12:18:58Z</time>
      </trkpt>
      <trkpt lat="45.85294" lon="4.23283">
        <ele>544.342</ele>
        <time>2019-09-30T12:19:03Z</time>
      </trkpt>
      <trkpt lat="45.853" lon="4.23285">
        <ele>553.495</ele>
        <time>2019-09-30T12:19:08Z</time>
      </trkpt>
      <trkpt lat="45.85304" lon="4.23286">
        <ele>554.594</ele>
        <time>2019-09-30T12:19:13Z</time>
      </trkpt>
      <trkpt lat="45.85309" lon="4.23287">
        <ele>556.311</ele>
        <time>2019-09-30T12:19:18Z</time>
      </trkpt>
      <trkpt lat="45.85314" lon="4.23286">
        <ele>556.797</ele>
        <time>2019-09-30T12:19:24Z</time>
      </trkpt>
      <trkpt lat="45.85317" lon="4.23285">
        <ele>558.989</ele>
        <time>2019-09-30T12:19:30Z</time>
      </trkpt>
      <trkpt lat="45.85318" lon="4.23284">
        <ele>559.213</ele>
        <time>2019-09-30T12:19:35Z</time>
      </trkpt>
      <trkpt lat="45.85318" lon="4.23285">
        <ele>559.859</ele>
        <time>2019-09-30T12:19:41Z</time>
      </trkpt>
      <trkpt lat="45.85318" lon="4.23285">
        <ele>559.937</ele>
        <time>2019-09-30T12:19:46Z</time>
      </trkpt>
      <trkpt lat="45.85318" lon="4.23285">
        <ele>560.038</ele>
        <time>2019-09-30T12:19:51Z</time>
      </trkpt>
      <trkpt lat="45.85318" lon="4.23285">
        <ele>560.086</ele>
        <time>2019-09-30T12:19:56Z</time>
      </trkpt>
      <trkpt lat="45.85318" lon="4.23285">
        <ele>560.022</ele>
        <time>2019-09-30T12:20:02Z</time>
      </trkpt>
      <trkpt lat="45.85318" lon="4.23285">
        <ele>559.813</ele>
        <time>2019-09-30T12:20:07Z</time>
      </trkpt>
      <trkpt lat="45.85318" lon="4.23285">
        <ele>559.812</ele>
        <time>2019-09-30T12:20:13Z</time>
      </trkpt>
      <trkpt lat="45.85318" lon="4.23285">
        <ele>559.796</ele>
        <time>2019-09-30T12:20:19Z</time>
      </trkpt>
      <trkpt lat="45.8532" lon="4.23286">
        <ele>560.595</ele>
        <time>2019-09-30T12:20:24Z</time>
      </trkpt>
      <trkpt lat="45.85324" lon="4.23289">
        <ele>558.922</ele>
        <time>2019-09-30T12:20:30Z</time>
      </trkpt>
      <trkpt lat="45.85327" lon="4.23293">
        <ele>558.82</ele>
        <time>2019-09-30T12:20:36Z</time>
      </trkpt>
      <trkpt lat="45.85331" lon="4.23299">
        <ele>558.792</ele>
        <time>2019-09-30T12:20:42Z</time>
      </trkpt>
      <trkpt lat="45.85336" lon="4.23305">
        <ele>557.695</ele>
        <time>2019-09-30T12:20:47Z</time>
      </trkpt>
      <trkpt lat="45.8534" lon="4.2331">
        <ele>557.273</ele>
        <time>2019-09-30T12:20:53Z</time>
      </trkpt>
      <trkpt lat="45.85348" lon="4.23313">
        <ele>556.878</ele>
        <time>2019-09-30T12:20:59Z</time>
      </trkpt>
      <trkpt lat="45.85355" lon="4.2332">
        <ele>557.265</ele>
        <time>2019-09-30T12:21:05Z</time>
      </trkpt>
      <trkpt lat="45.85361" lon="4.23323">
        <ele>556.348</ele>
        <time>2019-09-30T12:21:11Z</time>
      </trkpt>
      <trkpt lat="45.85366" lon="4.23323">
        <ele>554.854</ele>
        <time>2019-09-30T12:21:16Z</time>
      </trkpt>
      <trkpt lat="45.85373" lon="4.2333">
        <ele>554.633</ele>
        <time>2019-09-30T12:21:22Z</time>
      </trkpt>
      <trkpt lat="45.85379" lon="4.23339">
        <ele>554.611</ele>
        <time>2019-09-30T12:21:27Z</time>
      </trkpt>
      <trkpt lat="45.85384" lon="4.23347">
        <ele>556.16</ele>
        <time>2019-09-30T12:21:32Z</time>
      </trkpt>
      <trkpt lat="45.85389" lon="4.23354">
        <ele>553.158</ele>
        <time>2019-09-30T12:21:38Z</time>
      </trkpt>
      <trkpt lat="45.85392" lon="4.23357">
        <ele>553.224</ele>
        <time>2019-09-30T12:21:44Z</time>
      </trkpt>
      <trkpt lat="45.85396" lon="4.23361">
        <ele>554.541</ele>
        <time>2019-09-30T12:21:49Z</time>
      </trkpt>
      <trkpt lat="45.85401" lon="4.2337">
        <ele>555.886</ele>
        <time>2019-09-30T12:21:55Z</time>
      </trkpt>
      <trkpt lat="45.85403" lon="4.23379">
        <ele>553.193</ele>
        <time>2019-09-30T12:22:00Z</time>
      </trkpt>
      <trkpt lat="45.85405" lon="4.23388">
        <ele>552.113</ele>
        <time>2019-09-30T12:22:06Z</time>
      </trkpt>
      <trkpt lat="45.8541" lon="4.23395">
        <ele>552.001</ele>
        <time>2019-09-30T12:22:12Z</time>
      </trkpt>
      <trkpt lat="45.85414" lon="4.23406">
        <ele>553.283</ele>
        <time>2019-09-30T12:22:18Z</time>
      </trkpt>
      <trkpt lat="45.85418" lon="4.23415">
        <ele>554.157</ele>
        <time>2019-09-30T12:22:24Z</time>
      </trkpt>
      <trkpt lat="45.85424" lon="4.23424">
        <ele>554.139</ele>
        <time>2019-09-30T12:22:30Z</time>
      </trkpt>
      <trkpt lat="45.85427" lon="4.2343">
        <ele>554.207</ele>
        <time>2019-09-30T12:22:36Z</time>
      </trkpt>
      <trkpt lat="45.85432" lon="4.23437">
        <ele>551.98</ele>
        <time>2019-09-30T12:22:42Z</time>
      </trkpt>
      <trkpt lat="45.85439" lon="4.23444">
        <ele>552.046</ele>
        <time>2019-09-30T12:22:48Z</time>
      </trkpt>
      <trkpt lat="45.85443" lon="4.23452">
        <ele>553.276</ele>
        <time>2019-09-30T12:22:54Z</time>
      </trkpt>
      <trkpt lat="45.85448" lon="4.23458">
        <ele>554.915</ele>
        <time>2019-09-30T12:23:00Z</time>
      </trkpt>
      <trkpt lat="45.85453" lon="4.23465">
        <ele>556.502</ele>
        <time>2019-09-30T12:23:05Z</time>
      </trkpt>
      <trkpt lat="45.85458" lon="4.23472">
        <ele>557.023</ele>
        <time>2019-09-30T12:23:11Z</time>
      </trkpt>
      <trkpt lat="45.85462" lon="4.23477">
        <ele>556.789</ele>
        <time>2019-09-30T12:23:16Z</time>
      </trkpt>
      <trkpt lat="45.85468" lon="4.23482">
        <ele>556.105</ele>
        <time>2019-09-30T12:23:22Z</time>
      </trkpt>
      <trkpt lat="45.85473" lon="4.23486">
        <ele>555.713</ele>
        <time>2019-09-30T12:23:28Z</time>
      </trkpt>
      <trkpt lat="45.85477" lon="4.23491">
        <ele>556.238</ele>
        <time>2019-09-30T12:23:33Z</time>
      </trkpt>
      <trkpt lat="45.85483" lon="4.23496">
        <ele>555.894</ele>
        <time>2019-09-30T12:23:39Z</time>
      </trkpt>
      <trkpt lat="45.85489" lon="4.23502">
        <ele>556.15</ele>
        <time>2019-09-30T12:23:45Z</time>
      </trkpt>
      <trkpt lat="45.85493" lon="4.23506">
        <ele>554.503</ele>
        <time>2019-09-30T12:23:50Z</time>
      </trkpt>
      <trkpt lat="45.85496" lon="4.23512">
        <ele>557</ele>
        <time>2019-09-30T12:23:55Z</time>
      </trkpt>
      <trkpt lat="45.85502" lon="4.23518">
        <ele>556.968</ele>
        <time>2019-09-30T12:24:01Z</time>
      </trkpt>
      <trkpt lat="45.85506" lon="4.23524">
        <ele>554.856</ele>
        <time>2019-09-30T12:24:07Z</time>
      </trkpt>
      <trkpt lat="45.85509" lon="4.23528">
        <ele>554.103</ele>
        <time>2019-09-30T12:24:12Z</time>
      </trkpt>
      <trkpt lat="45.85515" lon="4.23533">
        <ele>553.859</ele>
        <time>2019-09-30T12:24:17Z</time>
      </trkpt>
      <trkpt lat="45.85522" lon="4.2354">
        <ele>556.219</ele>
        <time>2019-09-30T12:24:23Z</time>
      </trkpt>
      <trkpt lat="45.85526" lon="4.23545">
        <ele>554.518</ele>
        <time>2019-09-30T12:24:28Z</time>
      </trkpt>
      <trkpt lat="45.85528" lon="4.2355">
        <ele>552.489</ele>
        <time>2019-09-30T12:24:33Z</time>
      </trkpt>
      <trkpt lat="45.85532" lon="4.23557">
        <ele>552.381</ele>
        <time>2019-09-30T12:24:39Z</time>
      </trkpt>
      <trkpt lat="45.85536" lon="4.23565">
        <ele>553.964</ele>
        <time>2019-09-30T12:24:45Z</time>
      </trkpt>
      <trkpt lat="45.8554" lon="4.23574">
        <ele>554.472</ele>
        <time>2019-09-30T12:24:51Z</time>
      </trkpt>
      <trkpt lat="45.85543" lon="4.23581">
        <ele>546.699</ele>
        <time>2019-09-30T12:24:56Z</time>
      </trkpt>
      <trkpt lat="45.85547" lon="4.2359">
        <ele>545.843</ele>
        <time>2019-09-30T12:25:02Z</time>
      </trkpt>
      <trkpt lat="45.8555" lon="4.23597">
        <ele>548.143</ele>
        <time>2019-09-30T12:25:07Z</time>
      </trkpt>
      <trkpt lat="45.85553" lon="4.23604">
        <ele>548.279</ele>
        <time>2019-09-30T12:25:12Z</time>
      </trkpt>
      <trkpt lat="45.85557" lon="4.23613">
        <ele>558.099</ele>
        <time>2019-09-30T12:25:18Z</time>
      </trkpt>
      <trkpt lat="45.85562" lon="4.23621">
        <ele>558.442</ele>
        <time>2019-09-30T12:25:23Z</time>
      </trkpt>
      <trkpt lat="45.85567" lon="4.23631">
        <ele>558.841</ele>
        <time>2019-09-30T12:25:29Z</time>
      </trkpt>
      <trkpt lat="45.8557" lon="4.23637">
        <ele>558.354</ele>
        <time>2019-09-30T12:25:34Z</time>
      </trkpt>
      <trkpt lat="45.85573" lon="4.23645">
        <ele>558.858</ele>
        <time>2019-09-30T12:25:40Z</time>
      </trkpt>
      <trkpt lat="45.85576" lon="4.23653">
        <ele>558.539</ele>
        <time>2019-09-30T12:25:45Z</time>
      </trkpt>
      <trkpt lat="45.85579" lon="4.2366">
        <ele>558.926</ele>
        <time>2019-09-30T12:25:50Z</time>
      </trkpt>
      <trkpt lat="45.85582" lon="4.23665">
        <ele>558.303</ele>
        <time>2019-09-30T12:25:55Z</time>
      </trkpt>
      <trkpt lat="45.85586" lon="4.23673">
        <ele>558.994</ele>
        <time>2019-09-30T12:26:01Z</time>
      </trkpt>
      <trkpt lat="45.85589" lon="4.23679">
        <ele>559.29</ele>
        <time>2019-09-30T12:26:06Z</time>
      </trkpt>
      <trkpt lat="45.85592" lon="4.23689">
        <ele>559.515</ele>
        <time>2019-09-30T12:26:12Z</time>
      </trkpt>
      <trkpt lat="45.85594" lon="4.23696">
        <ele>559.121</ele>
        <time>2019-09-30T12:26:17Z</time>
      </trkpt>
      <trkpt lat="45.85596" lon="4.23705">
        <ele>559.749</ele>
        <time>2019-09-30T12:26:23Z</time>
      </trkpt>
      <trkpt lat="45.85598" lon="4.23714">
        <ele>560.217</ele>
        <time>2019-09-30T12:26:29Z</time>
      </trkpt>
      <trkpt lat="45.85599" lon="4.23721">
        <ele>560.019</ele>
        <time>2019-09-30T12:26:34Z</time>
      </trkpt>
      <trkpt lat="45.85601" lon="4.2373">
        <ele>559.404</ele>
        <time>2019-09-30T12:26:40Z</time>
      </trkpt>
      <trkpt lat="45.85603" lon="4.23739">
        <ele>559.78</ele>
        <time>2019-09-30T12:26:45Z</time>
      </trkpt>
      <trkpt lat="45.85604" lon="4.23748">
        <ele>560.462</ele>
        <time>2019-09-30T12:26:50Z</time>
      </trkpt>
      <trkpt lat="45.85607" lon="4.23758">
        <ele>561.319</ele>
        <time>2019-09-30T12:26:56Z</time>
      </trkpt>
      <trkpt lat="45.85609" lon="4.23769">
        <ele>562.483</ele>
        <time>2019-09-30T12:27:02Z</time>
      </trkpt>
      <trkpt lat="45.85611" lon="4.23776">
        <ele>562.878</ele>
        <time>2019-09-30T12:27:07Z</time>
      </trkpt>
      <trkpt lat="45.85613" lon="4.23786">
        <ele>562.783</ele>
        <time>2019-09-30T12:27:13Z</time>
      </trkpt>
      <trkpt lat="45.85616" lon="4.23795">
        <ele>562.582</ele>
        <time>2019-09-30T12:27:19Z</time>
      </trkpt>
      <trkpt lat="45.85617" lon="4.23803">
        <ele>561.78</ele>
        <time>2019-09-30T12:27:24Z</time>
      </trkpt>
      <trkpt lat="45.85619" lon="4.23812">
        <ele>562.99</ele>
        <time>2019-09-30T12:27:30Z</time>
      </trkpt>
      <trkpt lat="45.85621" lon="4.2382">
        <ele>563.905</ele>
        <time>2019-09-30T12:27:35Z</time>
      </trkpt>
      <trkpt lat="45.85623" lon="4.23828">
        <ele>564.603</ele>
        <time>2019-09-30T12:27:40Z</time>
      </trkpt>
      <trkpt lat="45.85626" lon="4.23838">
        <ele>566.41</ele>
        <time>2019-09-30T12:27:46Z</time>
      </trkpt>
      <trkpt lat="45.85627" lon="4.23848">
        <ele>566.211</ele>
        <time>2019-09-30T12:27:52Z</time>
      </trkpt>
      <trkpt lat="45.85629" lon="4.23856">
        <ele>565.938</ele>
        <time>2019-09-30T12:27:57Z</time>
      </trkpt>
      <trkpt lat="45.85631" lon="4.23864">
        <ele>565.874</ele>
        <time>2019-09-30T12:28:03Z</time>
      </trkpt>
      <trkpt lat="45.85632" lon="4.23872">
        <ele>566.236</ele>
        <time>2019-09-30T12:28:08Z</time>
      </trkpt>
      <trkpt lat="45.85633" lon="4.23882">
        <ele>567.622</ele>
        <time>2019-09-30T12:28:14Z</time>
      </trkpt>
      <trkpt lat="45.85634" lon="4.2389">
        <ele>567.715</ele>
        <time>2019-09-30T12:28:19Z</time>
      </trkpt>
      <trkpt lat="45.85635" lon="4.23899">
        <ele>565.334</ele>
        <time>2019-09-30T12:28:25Z</time>
      </trkpt>
      <trkpt lat="45.85637" lon="4.23908">
        <ele>566.687</ele>
        <time>2019-09-30T12:28:31Z</time>
      </trkpt>
      <trkpt lat="45.85639" lon="4.23916">
        <ele>567.086</ele>
        <time>2019-09-30T12:28:37Z</time>
      </trkpt>
      <trkpt lat="45.85643" lon="4.23923">
        <ele>568.216</ele>
        <time>2019-09-30T12:28:42Z</time>
      </trkpt>
      <trkpt lat="45.85646" lon="4.23931">
        <ele>570.851</ele>
        <time>2019-09-30T12:28:48Z</time>
      </trkpt>
      <trkpt lat="45.85647" lon="4.2394">
        <ele>569.312</ele>
        <time>2019-09-30T12:28:54Z</time>
      </trkpt>
      <trkpt lat="45.85647" lon="4.23948">
        <ele>569.224</ele>
        <time>2019-09-30T12:28:59Z</time>
      </trkpt>
      <trkpt lat="45.85646" lon="4.23958">
        <ele>567.575</ele>
        <time>2019-09-30T12:29:05Z</time>
      </trkpt>
      <trkpt lat="45.85646" lon="4.23965">
        <ele>565.075</ele>
        <time>2019-09-30T12:29:10Z</time>
      </trkpt>
      <trkpt lat="45.85649" lon="4.23974">
        <ele>565.104</ele>
        <time>2019-09-30T12:29:16Z</time>
      </trkpt>
      <trkpt lat="45.85653" lon="4.23982">
        <ele>561.997</ele>
        <time>2019-09-30T12:29:22Z</time>
      </trkpt>
      <trkpt lat="45.85658" lon="4.23985">
        <ele>560.637</ele>
        <time>2019-09-30T12:29:27Z</time>
      </trkpt>
      <trkpt lat="45.85665" lon="4.23988">
        <ele>561.436</ele>
        <time>2019-09-30T12:29:33Z</time>
      </trkpt>
      <trkpt lat="45.85672" lon="4.23993">
        <ele>556.506</ele>
        <time>2019-09-30T12:29:39Z</time>
      </trkpt>
      <trkpt lat="45.85677" lon="4.23997">
        <ele>555.933</ele>
        <time>2019-09-30T12:29:45Z</time>
      </trkpt>
      <trkpt lat="45.85682" lon="4.24002">
        <ele>556.082</ele>
        <time>2019-09-30T12:29:51Z</time>
      </trkpt>
      <trkpt lat="45.85686" lon="4.24006">
        <ele>555.469</ele>
        <time>2019-09-30T12:29:56Z</time>
      </trkpt>
      <trkpt lat="45.8569" lon="4.24011">
        <ele>556.537</ele>
        <time>2019-09-30T12:30:01Z</time>
      </trkpt>
      <trkpt lat="45.85695" lon="4.24019">
        <ele>561.126</ele>
        <time>2019-09-30T12:30:07Z</time>
      </trkpt>
      <trkpt lat="45.857" lon="4.24027">
        <ele>567.791</ele>
        <time>2019-09-30T12:30:13Z</time>
      </trkpt>
      <trkpt lat="45.85704" lon="4.24034">
        <ele>568.11</ele>
        <time>2019-09-30T12:30:18Z</time>
      </trkpt>
      <trkpt lat="45.85708" lon="4.24043">
        <ele>567.617</ele>
        <time>2019-09-30T12:30:24Z</time>
      </trkpt>
      <trkpt lat="45.85712" lon="4.2405">
        <ele>567.597</ele>
        <time>2019-09-30T12:30:29Z</time>
      </trkpt>
      <trkpt lat="45.85716" lon="4.24058">
        <ele>567.6</ele>
        <time>2019-09-30T12:30:35Z</time>
      </trkpt>
      <trkpt lat="45.8572" lon="4.24067">
        <ele>568.722</ele>
        <time>2019-09-30T12:30:41Z</time>
      </trkpt>
      <trkpt lat="45.85725" lon="4.24076">
        <ele>569.308</ele>
        <time>2019-09-30T12:30:47Z</time>
      </trkpt>
      <trkpt lat="45.85729" lon="4.24085">
        <ele>569.602</ele>
        <time>2019-09-30T12:30:53Z</time>
      </trkpt>
      <trkpt lat="45.85732" lon="4.24092">
        <ele>570.122</ele>
        <time>2019-09-30T12:30:58Z</time>
      </trkpt>
      <trkpt lat="45.85735" lon="4.241">
        <ele>570.502</ele>
        <time>2019-09-30T12:31:04Z</time>
      </trkpt>
      <trkpt lat="45.85738" lon="4.24109">
        <ele>570.306</ele>
        <time>2019-09-30T12:31:10Z</time>
      </trkpt>
      <trkpt lat="45.85742" lon="4.24116">
        <ele>571.159</ele>
        <time>2019-09-30T12:31:15Z</time>
      </trkpt>
      <trkpt lat="45.85745" lon="4.24124">
        <ele>570.907</ele>
        <time>2019-09-30T12:31:20Z</time>
      </trkpt>
      <trkpt lat="45.8575" lon="4.24132">
        <ele>571.052</ele>
        <time>2019-09-30T12:31:26Z</time>
      </trkpt>
      <trkpt lat="45.85753" lon="4.24139">
        <ele>572.173</ele>
        <time>2019-09-30T12:31:32Z</time>
      </trkpt>
      <trkpt lat="45.85755" lon="4.24146">
        <ele>572.146</ele>
        <time>2019-09-30T12:31:37Z</time>
      </trkpt>
      <trkpt lat="45.85757" lon="4.24152">
        <ele>572.707</ele>
        <time>2019-09-30T12:31:43Z</time>
      </trkpt>
      <trkpt lat="45.85759" lon="4.24161">
        <ele>572.961</ele>
        <time>2019-09-30T12:31:49Z</time>
      </trkpt>
      <trkpt lat="45.85763" lon="4.24168">
        <ele>573.369</ele>
        <time>2019-09-30T12:31:55Z</time>
      </trkpt>
      <trkpt lat="45.85767" lon="4.24178">
        <ele>572.34</ele>
        <time>2019-09-30T12:32:01Z</time>
      </trkpt>
      <trkpt lat="45.85771" lon="4.24185">
        <ele>572.73</ele>
        <time>2019-09-30T12:32:06Z</time>
      </trkpt>
      <trkpt lat="45.85776" lon="4.24195">
        <ele>573.17</ele>
        <time>2019-09-30T12:32:12Z</time>
      </trkpt>
      <trkpt lat="45.85779" lon="4.24202">
        <ele>573.7</ele>
        <time>2019-09-30T12:32:17Z</time>
      </trkpt>
      <trkpt lat="45.85782" lon="4.24209">
        <ele>574.525</ele>
        <time>2019-09-30T12:32:22Z</time>
      </trkpt>
      <trkpt lat="45.85785" lon="4.24217">
        <ele>574.009</ele>
        <time>2019-09-30T12:32:27Z</time>
      </trkpt>
      <trkpt lat="45.85788" lon="4.24223">
        <ele>576.599</ele>
        <time>2019-09-30T12:32:32Z</time>
      </trkpt>
      <trkpt lat="45.85792" lon="4.24231">
        <ele>575.955</ele>
        <time>2019-09-30T12:32:38Z</time>
      </trkpt>
      <trkpt lat="45.85795" lon="4.24239">
        <ele>576.207</ele>
        <time>2019-09-30T12:32:44Z</time>
      </trkpt>
      <trkpt lat="45.85798" lon="4.24245">
        <ele>576.377</ele>
        <time>2019-09-30T12:32:49Z</time>
      </trkpt>
      <trkpt lat="45.85802" lon="4.24253">
        <ele>576.29</ele>
        <time>2019-09-30T12:32:55Z</time>
      </trkpt>
      <trkpt lat="45.85806" lon="4.24262">
        <ele>574.454</ele>
        <time>2019-09-30T12:33:01Z</time>
      </trkpt>
      <trkpt lat="45.85808" lon="4.24269">
        <ele>574.975</ele>
        <time>2019-09-30T12:33:06Z</time>
      </trkpt>
      <trkpt lat="45.85812" lon="4.24279">
        <ele>576.065</ele>
        <time>2019-09-30T12:33:12Z</time>
      </trkpt>
      <trkpt lat="45.85816" lon="4.24288">
        <ele>575.531</ele>
        <time>2019-09-30T12:33:18Z</time>
      </trkpt>
      <trkpt lat="45.85819" lon="4.24296">
        <ele>576.369</ele>
        <time>2019-09-30T12:33:24Z</time>
      </trkpt>
      <trkpt lat="45.85822" lon="4.24303">
        <ele>576.902</ele>
        <time>2019-09-30T12:33:29Z</time>
      </trkpt>
      <trkpt lat="45.85825" lon="4.24312">
        <ele>576.227</ele>
        <time>2019-09-30T12:33:35Z</time>
      </trkpt>
      <trkpt lat="45.85827" lon="4.2432">
        <ele>576.431</ele>
        <time>2019-09-30T12:33:40Z</time>
      </trkpt>
      <trkpt lat="45.85829" lon="4.24328">
        <ele>576.639</ele>
        <time>2019-09-30T12:33:45Z</time>
      </trkpt>
      <trkpt lat="45.85831" lon="4.24335">
        <ele>576.577</ele>
        <time>2019-09-30T12:33:50Z</time>
      </trkpt>
      <trkpt lat="45.85833" lon="4.24345">
        <ele>577.347</ele>
        <time>2019-09-30T12:33:56Z</time>
      </trkpt>
      <trkpt lat="45.85835" lon="4.24355">
        <ele>577.716</ele>
        <time>2019-09-30T12:34:02Z</time>
      </trkpt>
      <trkpt lat="45.85836" lon="4.24365">
        <ele>576.637</ele>
        <time>2019-09-30T12:34:08Z</time>
      </trkpt>
      <trkpt lat="45.85838" lon="4.24373">
        <ele>576.839</ele>
        <time>2019-09-30T12:34:13Z</time>
      </trkpt>
      <trkpt lat="45.8584" lon="4.24383">
        <ele>577.067</ele>
        <time>2019-09-30T12:34:19Z</time>
      </trkpt>
      <trkpt lat="45.85841" lon="4.24393">
        <ele>577.143</ele>
        <time>2019-09-30T12:34:25Z</time>
      </trkpt>
      <trkpt lat="45.85842" lon="4.24402">
        <ele>577.146</ele>
        <time>2019-09-30T12:34:30Z</time>
      </trkpt>
      <trkpt lat="45.85841" lon="4.24412">
        <ele>577.029</ele>
        <time>2019-09-30T12:34:36Z</time>
      </trkpt>
      <trkpt lat="45.85843" lon="4.24422">
        <ele>577.019</ele>
        <time>2019-09-30T12:34:42Z</time>
      </trkpt>
      <trkpt lat="45.85844" lon="4.24432">
        <ele>574.868</ele>
        <time>2019-09-30T12:34:48Z</time>
      </trkpt>
      <trkpt lat="45.85846" lon="4.24443">
        <ele>574.386</ele>
        <time>2019-09-30T12:34:54Z</time>
      </trkpt>
      <trkpt lat="45.85848" lon="4.2445">
        <ele>574.673</ele>
        <time>2019-09-30T12:34:59Z</time>
      </trkpt>
      <trkpt lat="45.8585" lon="4.24458">
        <ele>574.038</ele>
        <time>2019-09-30T12:35:05Z</time>
      </trkpt>
      <trkpt lat="45.85855" lon="4.24466">
        <ele>574.358</ele>
        <time>2019-09-30T12:35:11Z</time>
      </trkpt>
      <trkpt lat="45.85859" lon="4.24472">
        <ele>573.847</ele>
        <time>2019-09-30T12:35:16Z</time>
      </trkpt>
      <trkpt lat="45.85863" lon="4.24477">
        <ele>574.899</ele>
        <time>2019-09-30T12:35:21Z</time>
      </trkpt>
      <trkpt lat="45.85868" lon="4.2448">
        <ele>572.526</ele>
        <time>2019-09-30T12:35:27Z</time>
      </trkpt>
      <trkpt lat="45.85873" lon="4.24482">
        <ele>572.023</ele>
        <time>2019-09-30T12:35:32Z</time>
      </trkpt>
      <trkpt lat="45.85878" lon="4.24483">
        <ele>577.657</ele>
        <time>2019-09-30T12:35:37Z</time>
      </trkpt>
      <trkpt lat="45.85885" lon="4.24483">
        <ele>573.057</ele>
        <time>2019-09-30T12:35:43Z</time>
      </trkpt>
      <trkpt lat="45.85889" lon="4.24481">
        <ele>570.288</ele>
        <time>2019-09-30T12:35:49Z</time>
      </trkpt>
      <trkpt lat="45.85895" lon="4.24479">
        <ele>573.155</ele>
        <time>2019-09-30T12:35:55Z</time>
      </trkpt>
      <trkpt lat="45.85899" lon="4.24482">
        <ele>572.856</ele>
        <time>2019-09-30T12:36:00Z</time>
      </trkpt>
      <trkpt lat="45.85902" lon="4.24489">
        <ele>575.754</ele>
        <time>2019-09-30T12:36:06Z</time>
      </trkpt>
      <trkpt lat="45.85902" lon="4.24494">
        <ele>575.403</ele>
        <time>2019-09-30T12:36:11Z</time>
      </trkpt>
      <trkpt lat="45.85903" lon="4.24497">
        <ele>575.947</ele>
        <time>2019-09-30T12:36:16Z</time>
      </trkpt>
      <trkpt lat="45.85906" lon="4.24502">
        <ele>576.39</ele>
        <time>2019-09-30T12:36:21Z</time>
      </trkpt>
      <trkpt lat="45.8591" lon="4.24509">
        <ele>576.687</ele>
        <time>2019-09-30T12:36:26Z</time>
      </trkpt>
      <trkpt lat="45.85913" lon="4.24514">
        <ele>576.625</ele>
        <time>2019-09-30T12:36:32Z</time>
      </trkpt>
      <trkpt lat="45.85915" lon="4.2452">
        <ele>577.15</ele>
        <time>2019-09-30T12:36:37Z</time>
      </trkpt>
      <trkpt lat="45.85917" lon="4.24526">
        <ele>577.354</ele>
        <time>2019-09-30T12:36:43Z</time>
      </trkpt>
      <trkpt lat="45.85919" lon="4.24534">
        <ele>576.449</ele>
        <time>2019-09-30T12:36:49Z</time>
      </trkpt>
      <trkpt lat="45.85923" lon="4.24541">
        <ele>575.237</ele>
        <time>2019-09-30T12:36:55Z</time>
      </trkpt>
      <trkpt lat="45.85926" lon="4.2455">
        <ele>577.055</ele>
        <time>2019-09-30T12:37:01Z</time>
      </trkpt>
      <trkpt lat="45.85929" lon="4.24558">
        <ele>575.283</ele>
        <time>2019-09-30T12:37:06Z</time>
      </trkpt>
      <trkpt lat="45.85931" lon="4.24564">
        <ele>561.073</ele>
        <time>2019-09-30T12:37:12Z</time>
      </trkpt>
      <trkpt lat="45.85932" lon="4.24571">
        <ele>558.716</ele>
        <time>2019-09-30T12:37:17Z</time>
      </trkpt>
      <trkpt lat="45.85935" lon="4.2458">
        <ele>556.583</ele>
        <time>2019-09-30T12:37:23Z</time>
      </trkpt>
      <trkpt lat="45.85936" lon="4.24586">
        <ele>557.2</ele>
        <time>2019-09-30T12:37:28Z</time>
      </trkpt>
      <trkpt lat="45.85937" lon="4.24595">
        <ele>552.73</ele>
        <time>2019-09-30T12:37:34Z</time>
      </trkpt>
      <trkpt lat="45.85937" lon="4.24597">
        <ele>555.906</ele>
        <time>2019-09-30T12:37:40Z</time>
      </trkpt>
      <trkpt lat="45.85939" lon="4.24606">
        <ele>556.546</ele>
        <time>2019-09-30T12:37:46Z</time>
      </trkpt>
      <trkpt lat="45.85938" lon="4.24619">
        <ele>554.336</ele>
        <time>2019-09-30T12:37:52Z</time>
      </trkpt>
      <trkpt lat="45.85936" lon="4.2463">
        <ele>555.353</ele>
        <time>2019-09-30T12:37:58Z</time>
      </trkpt>
      <trkpt lat="45.85933" lon="4.24643">
        <ele>557.302</ele>
        <time>2019-09-30T12:38:04Z</time>
      </trkpt>
      <trkpt lat="45.85931" lon="4.24652">
        <ele>554.209</ele>
        <time>2019-09-30T12:38:10Z</time>
      </trkpt>
      <trkpt lat="45.85932" lon="4.24658">
        <ele>555.173</ele>
        <time>2019-09-30T12:38:15Z</time>
      </trkpt>
      <trkpt lat="45.85929" lon="4.24665">
        <ele>559.763</ele>
        <time>2019-09-30T12:38:20Z</time>
      </trkpt>
      <trkpt lat="45.85927" lon="4.24672">
        <ele>552.611</ele>
        <time>2019-09-30T12:38:26Z</time>
      </trkpt>
      <trkpt lat="45.85925" lon="4.24678">
        <ele>556.074</ele>
        <time>2019-09-30T12:38:31Z</time>
      </trkpt>
      <trkpt lat="45.85922" lon="4.24685">
        <ele>569.966</ele>
        <time>2019-09-30T12:38:37Z</time>
      </trkpt>
      <trkpt lat="45.85921" lon="4.24689">
        <ele>565.923</ele>
        <time>2019-09-30T12:38:42Z</time>
      </trkpt>
      <trkpt lat="45.85918" lon="4.24696">
        <ele>566.369</ele>
        <time>2019-09-30T12:38:47Z</time>
      </trkpt>
      <trkpt lat="45.85913" lon="4.24704">
        <ele>556.708</ele>
        <time>2019-09-30T12:38:53Z</time>
      </trkpt>
      <trkpt lat="45.85911" lon="4.24711">
        <ele>555.345</ele>
        <time>2019-09-30T12:38:58Z</time>
      </trkpt>
      <trkpt lat="45.8591" lon="4.2472">
        <ele>558.588</ele>
        <time>2019-09-30T12:39:04Z</time>
      </trkpt>
      <trkpt lat="45.8591" lon="4.24726">
        <ele>559.922</ele>
        <time>2019-09-30T12:39:09Z</time>
      </trkpt>
      <trkpt lat="45.85911" lon="4.24736">
        <ele>554.654</ele>
        <time>2019-09-30T12:39:15Z</time>
      </trkpt>
      <trkpt lat="45.8591" lon="4.24743">
        <ele>555.427</ele>
        <time>2019-09-30T12:39:21Z</time>
      </trkpt>
      <trkpt lat="45.85909" lon="4.24745">
        <ele>559.485</ele>
        <time>2019-09-30T12:39:27Z</time>
      </trkpt>
      <trkpt lat="45.85909" lon="4.24748">
        <ele>560.282</ele>
        <time>2019-09-30T12:39:32Z</time>
      </trkpt>
      <trkpt lat="45.85911" lon="4.24759">
        <ele>556.916</ele>
        <time>2019-09-30T12:39:38Z</time>
      </trkpt>
      <trkpt lat="45.85911" lon="4.24769">
        <ele>556.724</ele>
        <time>2019-09-30T12:39:44Z</time>
      </trkpt>
      <trkpt lat="45.85909" lon="4.2478">
        <ele>566.964</ele>
        <time>2019-09-30T12:39:50Z</time>
      </trkpt>
      <trkpt lat="45.85909" lon="4.2479">
        <ele>564.564</ele>
        <time>2019-09-30T12:39:56Z</time>
      </trkpt>
      <trkpt lat="45.85907" lon="4.24797">
        <ele>565.822</ele>
        <time>2019-09-30T12:40:01Z</time>
      </trkpt>
      <trkpt lat="45.85908" lon="4.24808">
        <ele>563.593</ele>
        <time>2019-09-30T12:40:07Z</time>
      </trkpt>
      <trkpt lat="45.85908" lon="4.24818">
        <ele>555.116</ele>
        <time>2019-09-30T12:40:12Z</time>
      </trkpt>
      <trkpt lat="45.85909" lon="4.24825">
        <ele>555.131</ele>
        <time>2019-09-30T12:40:17Z</time>
      </trkpt>
      <trkpt lat="45.85909" lon="4.24832">
        <ele>558.844</ele>
        <time>2019-09-30T12:40:23Z</time>
      </trkpt>
      <trkpt lat="45.85908" lon="4.24837">
        <ele>574.463</ele>
        <time>2019-09-30T12:40:29Z</time>
      </trkpt>
      <trkpt lat="45.85908" lon="4.24839">
        <ele>565.301</ele>
        <time>2019-09-30T12:40:34Z</time>
      </trkpt>
      <trkpt lat="45.85907" lon="4.24843">
        <ele>564.206</ele>
        <time>2019-09-30T12:40:39Z</time>
      </trkpt>
      <trkpt lat="45.85906" lon="4.24853">
        <ele>563.165</ele>
        <time>2019-09-30T12:40:44Z</time>
      </trkpt>
      <trkpt lat="45.85903" lon="4.24866">
        <ele>561.904</ele>
        <time>2019-09-30T12:40:50Z</time>
      </trkpt>
      <trkpt lat="45.85902" lon="4.24878">
        <ele>560.771</ele>
        <time>2019-09-30T12:40:56Z</time>
      </trkpt>
      <trkpt lat="45.85899" lon="4.24887">
        <ele>562.623</ele>
        <time>2019-09-30T12:41:02Z</time>
      </trkpt>
      <trkpt lat="45.85898" lon="4.24896">
        <ele>567.302</ele>
        <time>2019-09-30T12:41:07Z</time>
      </trkpt>
      <trkpt lat="45.859" lon="4.24905">
        <ele>564.551</ele>
        <time>2019-09-30T12:41:12Z</time>
      </trkpt>
      <trkpt lat="45.85903" lon="4.24914">
        <ele>568.646</ele>
        <time>2019-09-30T12:41:17Z</time>
      </trkpt>
      <trkpt lat="45.85905" lon="4.24926">
        <ele>568.593</ele>
        <time>2019-09-30T12:41:23Z</time>
      </trkpt>
      <trkpt lat="45.85907" lon="4.24933">
        <ele>570.324</ele>
        <time>2019-09-30T12:41:28Z</time>
      </trkpt>
      <trkpt lat="45.85909" lon="4.24941">
        <ele>571.675</ele>
        <time>2019-09-30T12:41:33Z</time>
      </trkpt>
      <trkpt lat="45.85913" lon="4.24947">
        <ele>568.707</ele>
        <time>2019-09-30T12:41:39Z</time>
      </trkpt>
      <trkpt lat="45.85917" lon="4.24956">
        <ele>573.544</ele>
        <time>2019-09-30T12:41:45Z</time>
      </trkpt>
      <trkpt lat="45.85918" lon="4.24963">
        <ele>579.874</ele>
        <time>2019-09-30T12:41:51Z</time>
      </trkpt>
      <trkpt lat="45.85922" lon="4.24968">
        <ele>576.372</ele>
        <time>2019-09-30T12:41:56Z</time>
      </trkpt>
      <trkpt lat="45.85926" lon="4.24974">
        <ele>572.695</ele>
        <time>2019-09-30T12:42:02Z</time>
      </trkpt>
      <trkpt lat="45.85928" lon="4.24982">
        <ele>572.914</ele>
        <time>2019-09-30T12:42:08Z</time>
      </trkpt>
      <trkpt lat="45.85928" lon="4.24982">
        <ele>577.824</ele>
        <time>2019-09-30T12:42:14Z</time>
      </trkpt>
      <trkpt lat="45.85927" lon="4.24982">
        <ele>577.126</ele>
        <time>2019-09-30T12:42:19Z</time>
      </trkpt>
      <trkpt lat="45.85927" lon="4.24981">
        <ele>574.809</ele>
        <time>2019-09-30T12:42:24Z</time>
      </trkpt>
      <trkpt lat="45.85927" lon="4.24982">
        <ele>577.294</ele>
        <time>2019-09-30T12:42:30Z</time>
      </trkpt>
      <trkpt lat="45.85926" lon="4.24982">
        <ele>568.65</ele>
        <time>2019-09-30T12:42:35Z</time>
      </trkpt>
      <trkpt lat="45.85926" lon="4.24984">
        <ele>563.546</ele>
        <time>2019-09-30T12:42:41Z</time>
      </trkpt>
      <trkpt lat="45.85927" lon="4.24985">
        <ele>583.329</ele>
        <time>2019-09-30T12:42:47Z</time>
      </trkpt>
      <trkpt lat="45.85928" lon="4.24985">
        <ele>581.877</ele>
        <time>2019-09-30T12:42:53Z</time>
      </trkpt>
      <trkpt lat="45.85928" lon="4.24985">
        <ele>565.738</ele>
        <time>2019-09-30T12:42:59Z</time>
      </trkpt>
      <trkpt lat="45.85928" lon="4.24985">
        <ele>564.47</ele>
        <time>2019-09-30T12:43:05Z</time>
      </trkpt>
      <trkpt lat="45.85928" lon="4.24985">
        <ele>574.409</ele>
        <time>2019-09-30T12:43:10Z</time>
      </trkpt>
      <trkpt lat="45.85928" lon="4.24985">
        <ele>570.324</ele>
        <time>2019-09-30T12:43:15Z</time>
      </trkpt>
      <trkpt lat="45.85927" lon="4.24985">
        <ele>573.179</ele>
        <time>2019-09-30T12:43:21Z</time>
      </trkpt>
      <trkpt lat="45.85927" lon="4.24985">
        <ele>574.793</ele>
        <time>2019-09-30T12:43:27Z</time>
      </trkpt>
      <trkpt lat="45.85927" lon="4.24985">
        <ele>573.382</ele>
        <time>2019-09-30T12:43:32Z</time>
      </trkpt>
      <trkpt lat="45.85927" lon="4.24985">
        <ele>575.074</ele>
        <time>2019-09-30T12:43:38Z</time>
      </trkpt>
      <trkpt lat="45.85927" lon="4.24985">
        <ele>573.58</ele>
        <time>2019-09-30T12:43:43Z</time>
      </trkpt>
      <trkpt lat="45.85927" lon="4.24985">
        <ele>571.465</ele>
        <time>2019-09-30T12:43:49Z</time>
      </trkpt>
      <trkpt lat="45.85927" lon="4.24985">
        <ele>576.12</ele>
        <time>2019-09-30T12:43:55Z</time>
      </trkpt>
      <trkpt lat="45.85927" lon="4.24985">
        <ele>557.882</ele>
        <time>2019-09-30T12:44:01Z</time>
      </trkpt>
      <trkpt lat="45.85927" lon="4.24985">
        <ele>572.365</ele>
        <time>2019-09-30T12:44:06Z</time>
      </trkpt>
      <trkpt lat="45.85927" lon="4.24985">
        <ele>571.83</ele>
        <time>2019-09-30T12:44:11Z</time>
      </trkpt>
      <trkpt lat="45.85927" lon="4.24985">
        <ele>567.788</ele>
        <time>2019-09-30T12:44:16Z</time>
      </trkpt>
      <trkpt lat="45.85927" lon="4.24985">
        <ele>554.353</ele>
        <time>2019-09-30T12:44:22Z</time>
      </trkpt>
      <trkpt lat="45.85927" lon="4.24985">
        <ele>558.126</ele>
        <time>2019-09-30T12:44:28Z</time>
      </trkpt>
      <trkpt lat="45.85927" lon="4.24985">
        <ele>554.674</ele>
        <time>2019-09-30T12:44:33Z</time>
      </trkpt>
      <trkpt lat="45.85927" lon="4.24985">
        <ele>558.363</ele>
        <time>2019-09-30T12:44:38Z</time>
      </trkpt>
      <trkpt lat="45.85927" lon="4.24985">
        <ele>557.238</ele>
        <time>2019-09-30T12:44:44Z</time>
      </trkpt>
      <trkpt lat="45.85927" lon="4.24985">
        <ele>555.153</ele>
        <time>2019-09-30T12:44:50Z</time>
      </trkpt>
      <trkpt lat="45.85927" lon="4.24985">
        <ele>558.266</ele>
        <time>2019-09-30T12:44:56Z</time>
      </trkpt>
      <trkpt lat="45.85927" lon="4.24985">
        <ele>557.523</ele>
        <time>2019-09-30T12:45:02Z</time>
      </trkpt>
      <trkpt lat="45.85927" lon="4.24985">
        <ele>573.746</ele>
        <time>2019-09-30T12:45:07Z</time>
      </trkpt>
      <trkpt lat="45.85927" lon="4.24985">
        <ele>575.752</ele>
        <time>2019-09-30T12:45:13Z</time>
      </trkpt>
      <trkpt lat="45.85927" lon="4.24985">
        <ele>574.773</ele>
        <time>2019-09-30T12:45:18Z</time>
      </trkpt>
      <trkpt lat="45.85927" lon="4.24985">
        <ele>577.221</ele>
        <time>2019-09-30T12:45:24Z</time>
      </trkpt>
      <trkpt lat="45.85927" lon="4.24985">
        <ele>575.88</ele>
        <time>2019-09-30T12:45:29Z</time>
      </trkpt>
      <trkpt lat="45.85927" lon="4.24985">
        <ele>577.06</ele>
        <time>2019-09-30T12:45:34Z</time>
      </trkpt>
      <trkpt lat="45.85927" lon="4.24985">
        <ele>568.972</ele>
        <time>2019-09-30T12:45:40Z</time>
      </trkpt>
      <trkpt lat="45.85927" lon="4.24985">
        <ele>556.18</ele>
        <time>2019-09-30T12:45:45Z</time>
      </trkpt>
      <trkpt lat="45.85927" lon="4.24985">
        <ele>553.418</ele>
        <time>2019-09-30T12:45:50Z</time>
      </trkpt>
      <trkpt lat="45.85927" lon="4.24985">
        <ele>554.106</ele>
        <time>2019-09-30T12:45:56Z</time>
      </trkpt>
      <trkpt lat="45.85927" lon="4.24985">
        <ele>555.093</ele>
        <time>2019-09-30T12:46:02Z</time>
      </trkpt>
      <trkpt lat="45.85927" lon="4.24985">
        <ele>557.24</ele>
        <time>2019-09-30T12:46:08Z</time>
      </trkpt>
      <trkpt lat="45.85927" lon="4.24985">
        <ele>558.899</ele>
        <time>2019-09-30T12:46:13Z</time>
      </trkpt>
      <trkpt lat="45.85927" lon="4.24985">
        <ele>558.886</ele>
        <time>2019-09-30T12:46:19Z</time>
      </trkpt>
      <trkpt lat="45.85927" lon="4.24985">
        <ele>559.559</ele>
        <time>2019-09-30T12:46:24Z</time>
      </trkpt>
      <trkpt lat="45.85927" lon="4.24985">
        <ele>563.362</ele>
        <time>2019-09-30T12:46:30Z</time>
      </trkpt>
      <trkpt lat="45.85932" lon="4.24997">
        <ele>562.787</ele>
        <time>2019-09-30T12:46:36Z</time>
      </trkpt>
      <trkpt lat="45.85936" lon="4.25007">
        <ele>564.033</ele>
        <time>2019-09-30T12:46:42Z</time>
      </trkpt>
      <trkpt lat="45.8594" lon="4.25011">
        <ele>566.727</ele>
        <time>2019-09-30T12:46:47Z</time>
      </trkpt>
      <trkpt lat="45.85941" lon="4.25022">
        <ele>573.445</ele>
        <time>2019-09-30T12:46:53Z</time>
      </trkpt>
      <trkpt lat="45.85941" lon="4.25032">
        <ele>570.895</ele>
        <time>2019-09-30T12:46:58Z</time>
      </trkpt>
      <trkpt lat="45.85941" lon="4.25043">
        <ele>573.299</ele>
        <time>2019-09-30T12:47:04Z</time>
      </trkpt>
      <trkpt lat="45.85941" lon="4.25052">
        <ele>599.629</ele>
        <time>2019-09-30T12:47:09Z</time>
      </trkpt>
      <trkpt lat="45.85945" lon="4.25064">
        <ele>601.213</ele>
        <time>2019-09-30T12:47:15Z</time>
      </trkpt>
      <trkpt lat="45.85947" lon="4.25076">
        <ele>593.889</ele>
        <time>2019-09-30T12:47:21Z</time>
      </trkpt>
      <trkpt lat="45.8595" lon="4.25085">
        <ele>601.477</ele>
        <time>2019-09-30T12:47:27Z</time>
      </trkpt>
      <trkpt lat="45.85954" lon="4.25093">
        <ele>599.174</ele>
        <time>2019-09-30T12:47:33Z</time>
      </trkpt>
      <trkpt lat="45.85956" lon="4.25102">
        <ele>596.537</ele>
        <time>2019-09-30T12:47:39Z</time>
      </trkpt>
      <trkpt lat="45.85957" lon="4.25109">
        <ele>598.186</ele>
        <time>2019-09-30T12:47:44Z</time>
      </trkpt>
      <trkpt lat="45.85959" lon="4.25119">
        <ele>595.854</ele>
        <time>2019-09-30T12:47:49Z</time>
      </trkpt>
      <trkpt lat="45.8596" lon="4.2513">
        <ele>598.235</ele>
        <time>2019-09-30T12:47:55Z</time>
      </trkpt>
      <trkpt lat="45.8596" lon="4.25139">
        <ele>597.14</ele>
        <time>2019-09-30T12:48:00Z</time>
      </trkpt>
      <trkpt lat="45.85959" lon="4.2515">
        <ele>597.82</ele>
        <time>2019-09-30T12:48:06Z</time>
      </trkpt>
      <trkpt lat="45.85957" lon="4.25159">
        <ele>592.643</ele>
        <time>2019-09-30T12:48:12Z</time>
      </trkpt>
      <trkpt lat="45.85955" lon="4.25164">
        <ele>591.722</ele>
        <time>2019-09-30T12:48:17Z</time>
      </trkpt>
      <trkpt lat="45.85953" lon="4.25169">
        <ele>591.328</ele>
        <time>2019-09-30T12:48:22Z</time>
      </trkpt>
      <trkpt lat="45.85953" lon="4.25179">
        <ele>590.749</ele>
        <time>2019-09-30T12:48:28Z</time>
      </trkpt>
      <trkpt lat="45.85951" lon="4.2519">
        <ele>593.042</ele>
        <time>2019-09-30T12:48:34Z</time>
      </trkpt>
      <trkpt lat="45.85951" lon="4.25201">
        <ele>593.214</ele>
        <time>2019-09-30T12:48:40Z</time>
      </trkpt>
      <trkpt lat="45.85951" lon="4.25211">
        <ele>592.109</ele>
        <time>2019-09-30T12:48:45Z</time>
      </trkpt>
      <trkpt lat="45.85951" lon="4.25222">
        <ele>590.803</ele>
        <time>2019-09-30T12:48:51Z</time>
      </trkpt>
      <trkpt lat="45.8595" lon="4.25232">
        <ele>592.826</ele>
        <time>2019-09-30T12:48:56Z</time>
      </trkpt>
      <trkpt lat="45.85949" lon="4.25242">
        <ele>598.359</ele>
        <time>2019-09-30T12:49:01Z</time>
      </trkpt>
      <trkpt lat="45.85951" lon="4.25253">
        <ele>589.722</ele>
        <time>2019-09-30T12:49:07Z</time>
      </trkpt>
      <trkpt lat="45.85951" lon="4.25259">
        <ele>586.865</ele>
        <time>2019-09-30T12:49:12Z</time>
      </trkpt>
      <trkpt lat="45.85953" lon="4.25273">
        <ele>587.246</ele>
        <time>2019-09-30T12:49:18Z</time>
      </trkpt>
      <trkpt lat="45.85952" lon="4.25284">
        <ele>590.436</ele>
        <time>2019-09-30T12:49:24Z</time>
      </trkpt>
      <trkpt lat="45.85952" lon="4.25292">
        <ele>592.802</ele>
        <time>2019-09-30T12:49:29Z</time>
      </trkpt>
      <trkpt lat="45.8595" lon="4.25302">
        <ele>591.614</ele>
        <time>2019-09-30T12:49:35Z</time>
      </trkpt>
      <trkpt lat="45.85945" lon="4.25313">
        <ele>592.973</ele>
        <time>2019-09-30T12:49:41Z</time>
      </trkpt>
      <trkpt lat="45.85942" lon="4.25322">
        <ele>588.71</ele>
        <time>2019-09-30T12:49:46Z</time>
      </trkpt>
      <trkpt lat="45.85938" lon="4.25334">
        <ele>591.384</ele>
        <time>2019-09-30T12:49:52Z</time>
      </trkpt>
      <trkpt lat="45.85935" lon="4.25343">
        <ele>591.208</ele>
        <time>2019-09-30T12:49:57Z</time>
      </trkpt>
      <trkpt lat="45.85929" lon="4.25353">
        <ele>592.596</ele>
        <time>2019-09-30T12:50:03Z</time>
      </trkpt>
      <trkpt lat="45.85924" lon="4.2536">
        <ele>601.373</ele>
        <time>2019-09-30T12:50:08Z</time>
      </trkpt>
      <trkpt lat="45.85923" lon="4.25368">
        <ele>600.786</ele>
        <time>2019-09-30T12:50:14Z</time>
      </trkpt>
      <trkpt lat="45.8592" lon="4.25374">
        <ele>567.584</ele>
        <time>2019-09-30T12:50:20Z</time>
      </trkpt>
      <trkpt lat="45.85916" lon="4.2538">
        <ele>572.488</ele>
        <time>2019-09-30T12:50:26Z</time>
      </trkpt>
      <trkpt lat="45.8591" lon="4.25387">
        <ele>574.401</ele>
        <time>2019-09-30T12:50:32Z</time>
      </trkpt>
      <trkpt lat="45.85904" lon="4.25394">
        <ele>574.497</ele>
        <time>2019-09-30T12:50:37Z</time>
      </trkpt>
      <trkpt lat="45.85899" lon="4.25402">
        <ele>571.826</ele>
        <time>2019-09-30T12:50:42Z</time>
      </trkpt>
      <trkpt lat="45.85893" lon="4.25411">
        <ele>571.676</ele>
        <time>2019-09-30T12:50:48Z</time>
      </trkpt>
      <trkpt lat="45.85889" lon="4.25423">
        <ele>574.384</ele>
        <time>2019-09-30T12:50:54Z</time>
      </trkpt>
      <trkpt lat="45.85883" lon="4.25428">
        <ele>576.843</ele>
        <time>2019-09-30T12:50:59Z</time>
      </trkpt>
      <trkpt lat="45.8588" lon="4.25437">
        <ele>569.124</ele>
        <time>2019-09-30T12:51:05Z</time>
      </trkpt>
      <trkpt lat="45.85875" lon="4.25442">
        <ele>574.81</ele>
        <time>2019-09-30T12:51:11Z</time>
      </trkpt>
      <trkpt lat="45.85873" lon="4.2545">
        <ele>579.541</ele>
        <time>2019-09-30T12:51:16Z</time>
      </trkpt>
      <trkpt lat="45.85867" lon="4.2546">
        <ele>576.171</ele>
        <time>2019-09-30T12:51:22Z</time>
      </trkpt>
      <trkpt lat="45.85864" lon="4.25468">
        <ele>574.248</ele>
        <time>2019-09-30T12:51:27Z</time>
      </trkpt>
      <trkpt lat="45.8586" lon="4.25475">
        <ele>570.767</ele>
        <time>2019-09-30T12:51:33Z</time>
      </trkpt>
      <trkpt lat="45.85855" lon="4.25484">
        <ele>569.83</ele>
        <time>2019-09-30T12:51:38Z</time>
      </trkpt>
      <trkpt lat="45.85852" lon="4.2549">
        <ele>569.193</ele>
        <time>2019-09-30T12:51:43Z</time>
      </trkpt>
      <trkpt lat="45.85848" lon="4.25498">
        <ele>575.168</ele>
        <time>2019-09-30T12:51:49Z</time>
      </trkpt>
      <trkpt lat="45.85844" lon="4.25506">
        <ele>574.25</ele>
        <time>2019-09-30T12:51:54Z</time>
      </trkpt>
      <trkpt lat="45.85841" lon="4.25518">
        <ele>571.5</ele>
        <time>2019-09-30T12:52:00Z</time>
      </trkpt>
      <trkpt lat="45.85839" lon="4.25528">
        <ele>573.576</ele>
        <time>2019-09-30T12:52:05Z</time>
      </trkpt>
      <trkpt lat="45.85836" lon="4.25536">
        <ele>580.162</ele>
        <time>2019-09-30T12:52:10Z</time>
      </trkpt>
      <trkpt lat="45.85833" lon="4.25545">
        <ele>582.469</ele>
        <time>2019-09-30T12:52:16Z</time>
      </trkpt>
      <trkpt lat="45.8583" lon="4.25553">
        <ele>579.9</ele>
        <time>2019-09-30T12:52:21Z</time>
      </trkpt>
      <trkpt lat="45.85826" lon="4.25561">
        <ele>575.281</ele>
        <time>2019-09-30T12:52:27Z</time>
      </trkpt>
      <trkpt lat="45.85822" lon="4.2557">
        <ele>590.146</ele>
        <time>2019-09-30T12:52:33Z</time>
      </trkpt>
      <trkpt lat="45.85817" lon="4.2558">
        <ele>585.833</ele>
        <time>2019-09-30T12:52:39Z</time>
      </trkpt>
      <trkpt lat="45.85813" lon="4.25587">
        <ele>590.737</ele>
        <time>2019-09-30T12:52:44Z</time>
      </trkpt>
      <trkpt lat="45.85811" lon="4.25595">
        <ele>567.429</ele>
        <time>2019-09-30T12:52:50Z</time>
      </trkpt>
      <trkpt lat="45.85808" lon="4.25605">
        <ele>610.16</ele>
        <time>2019-09-30T12:52:56Z</time>
      </trkpt>
      <trkpt lat="45.85807" lon="4.25616">
        <ele>618.476</ele>
        <time>2019-09-30T12:53:01Z</time>
      </trkpt>
      <trkpt lat="45.85805" lon="4.25631">
        <ele>619.123</ele>
        <time>2019-09-30T12:53:07Z</time>
      </trkpt>
      <trkpt lat="45.85803" lon="4.2564">
        <ele>624.524</ele>
        <time>2019-09-30T12:53:12Z</time>
      </trkpt>
      <trkpt lat="45.85803" lon="4.25649">
        <ele>622.829</ele>
        <time>2019-09-30T12:53:17Z</time>
      </trkpt>
      <trkpt lat="45.85801" lon="4.25662">
        <ele>622.288</ele>
        <time>2019-09-30T12:53:23Z</time>
      </trkpt>
      <trkpt lat="45.85798" lon="4.25674">
        <ele>623.836</ele>
        <time>2019-09-30T12:53:29Z</time>
      </trkpt>
      <trkpt lat="45.85795" lon="4.25685">
        <ele>623.716</ele>
        <time>2019-09-30T12:53:34Z</time>
      </trkpt>
      <trkpt lat="45.85793" lon="4.25694">
        <ele>622.553</ele>
        <time>2019-09-30T12:53:40Z</time>
      </trkpt>
      <trkpt lat="45.85789" lon="4.25704">
        <ele>620.859</ele>
        <time>2019-09-30T12:53:46Z</time>
      </trkpt>
      <trkpt lat="45.85785" lon="4.25711">
        <ele>620.685</ele>
        <time>2019-09-30T12:53:51Z</time>
      </trkpt>
      <trkpt lat="45.8578" lon="4.2572">
        <ele>619.446</ele>
        <time>2019-09-30T12:53:57Z</time>
      </trkpt>
      <trkpt lat="45.85776" lon="4.25728">
        <ele>619.565</ele>
        <time>2019-09-30T12:54:03Z</time>
      </trkpt>
      <trkpt lat="45.85772" lon="4.25737">
        <ele>619.441</ele>
        <time>2019-09-30T12:54:08Z</time>
      </trkpt>
      <trkpt lat="45.85766" lon="4.2575">
        <ele>619.932</ele>
        <time>2019-09-30T12:54:14Z</time>
      </trkpt>
      <trkpt lat="45.85762" lon="4.25755">
        <ele>620.951</ele>
        <time>2019-09-30T12:54:19Z</time>
      </trkpt>
      <trkpt lat="45.85758" lon="4.25763">
        <ele>620.284</ele>
        <time>2019-09-30T12:54:24Z</time>
      </trkpt>
      <trkpt lat="45.85756" lon="4.25768">
        <ele>619.475</ele>
        <time>2019-09-30T12:54:29Z</time>
      </trkpt>
      <trkpt lat="45.85752" lon="4.25778">
        <ele>618.849</ele>
        <time>2019-09-30T12:54:35Z</time>
      </trkpt>
      <trkpt lat="45.85748" lon="4.25787">
        <ele>618.986</ele>
        <time>2019-09-30T12:54:41Z</time>
      </trkpt>
      <trkpt lat="45.85742" lon="4.25792">
        <ele>618.678</ele>
        <time>2019-09-30T12:54:47Z</time>
      </trkpt>
      <trkpt lat="45.85738" lon="4.25806">
        <ele>618.792</ele>
        <time>2019-09-30T12:54:53Z</time>
      </trkpt>
      <trkpt lat="45.85735" lon="4.25812">
        <ele>618.38</ele>
        <time>2019-09-30T12:54:59Z</time>
      </trkpt>
      <trkpt lat="45.85729" lon="4.25821">
        <ele>616.674</ele>
        <time>2019-09-30T12:55:05Z</time>
      </trkpt>
      <trkpt lat="45.85726" lon="4.25829">
        <ele>615.75</ele>
        <time>2019-09-30T12:55:11Z</time>
      </trkpt>
      <trkpt lat="45.85721" lon="4.25835">
        <ele>615.93</ele>
        <time>2019-09-30T12:55:16Z</time>
      </trkpt>
      <trkpt lat="45.85716" lon="4.25845">
        <ele>616.244</ele>
        <time>2019-09-30T12:55:21Z</time>
      </trkpt>
      <trkpt lat="45.85711" lon="4.25849">
        <ele>615.644</ele>
        <time>2019-09-30T12:55:27Z</time>
      </trkpt>
      <trkpt lat="45.85704" lon="4.25855">
        <ele>613.582</ele>
        <time>2019-09-30T12:55:33Z</time>
      </trkpt>
      <trkpt lat="45.857" lon="4.25863">
        <ele>605.454</ele>
        <time>2019-09-30T12:55:39Z</time>
      </trkpt>
      <trkpt lat="45.85692" lon="4.25871">
        <ele>565.44</ele>
        <time>2019-09-30T12:55:45Z</time>
      </trkpt>
      <trkpt lat="45.85688" lon="4.25884">
        <ele>557.014</ele>
        <time>2019-09-30T12:55:50Z</time>
      </trkpt>
      <trkpt lat="45.85683" lon="4.25893">
        <ele>550.537</ele>
        <time>2019-09-30T12:55:55Z</time>
      </trkpt>
      <trkpt lat="45.85678" lon="4.25905">
        <ele>554.484</ele>
        <time>2019-09-30T12:56:01Z</time>
      </trkpt>
      <trkpt lat="45.85681" lon="4.25916">
        <ele>569.141</ele>
        <time>2019-09-30T12:56:07Z</time>
      </trkpt>
      <trkpt lat="45.85689" lon="4.25924">
        <ele>555.768</ele>
        <time>2019-09-30T12:56:13Z</time>
      </trkpt>
      <trkpt lat="45.85697" lon="4.25931">
        <ele>604.253</ele>
        <time>2019-09-30T12:56:18Z</time>
      </trkpt>
      <trkpt lat="45.85705" lon="4.25927">
        <ele>603.084</ele>
        <time>2019-09-30T12:56:24Z</time>
      </trkpt>
      <trkpt lat="45.85711" lon="4.25926">
        <ele>598.989</ele>
        <time>2019-09-30T12:56:29Z</time>
      </trkpt>
      <trkpt lat="45.85719" lon="4.2592">
        <ele>601.84</ele>
        <time>2019-09-30T12:56:35Z</time>
      </trkpt>
      <trkpt lat="45.85725" lon="4.25917">
        <ele>599.055</ele>
        <time>2019-09-30T12:56:40Z</time>
      </trkpt>
      <trkpt lat="45.85734" lon="4.25914">
        <ele>596.972</ele>
        <time>2019-09-30T12:56:46Z</time>
      </trkpt>
      <trkpt lat="45.8574" lon="4.25908">
        <ele>601.971</ele>
        <time>2019-09-30T12:56:51Z</time>
      </trkpt>
      <trkpt lat="45.8575" lon="4.25909">
        <ele>605.101</ele>
        <time>2019-09-30T12:56:57Z</time>
      </trkpt>
      <trkpt lat="45.85756" lon="4.25902">
        <ele>603.474</ele>
        <time>2019-09-30T12:57:03Z</time>
      </trkpt>
      <trkpt lat="45.85763" lon="4.25895">
        <ele>600.009</ele>
        <time>2019-09-30T12:57:08Z</time>
      </trkpt>
      <trkpt lat="45.85768" lon="4.25889">
        <ele>598.042</ele>
        <time>2019-09-30T12:57:13Z</time>
      </trkpt>
      <trkpt lat="45.85775" lon="4.25885">
        <ele>600.772</ele>
        <time>2019-09-30T12:57:18Z</time>
      </trkpt>
      <trkpt lat="45.85781" lon="4.25877">
        <ele>601.35</ele>
        <time>2019-09-30T12:57:24Z</time>
      </trkpt>
      <trkpt lat="45.85788" lon="4.25872">
        <ele>603.296</ele>
        <time>2019-09-30T12:57:29Z</time>
      </trkpt>
      <trkpt lat="45.85795" lon="4.25865">
        <ele>599.533</ele>
        <time>2019-09-30T12:57:35Z</time>
      </trkpt>
      <trkpt lat="45.85803" lon="4.25862">
        <ele>600.636</ele>
        <time>2019-09-30T12:57:41Z</time>
      </trkpt>
      <trkpt lat="45.85811" lon="4.25861">
        <ele>601.048</ele>
        <time>2019-09-30T12:57:46Z</time>
      </trkpt>
      <trkpt lat="45.8582" lon="4.25859">
        <ele>598.979</ele>
        <time>2019-09-30T12:57:51Z</time>
      </trkpt>
      <trkpt lat="45.85828" lon="4.25855">
        <ele>595.743</ele>
        <time>2019-09-30T12:57:57Z</time>
      </trkpt>
      <trkpt lat="45.85834" lon="4.25852">
        <ele>596.678</ele>
        <time>2019-09-30T12:58:02Z</time>
      </trkpt>
      <trkpt lat="45.85838" lon="4.25846">
        <ele>593.457</ele>
        <time>2019-09-30T12:58:08Z</time>
      </trkpt>
      <trkpt lat="45.85844" lon="4.25842">
        <ele>601.234</ele>
        <time>2019-09-30T12:58:13Z</time>
      </trkpt>
      <trkpt lat="45.85853" lon="4.25847">
        <ele>586.976</ele>
        <time>2019-09-30T12:58:19Z</time>
      </trkpt>
      <trkpt lat="45.85856" lon="4.25855">
        <ele>573.544</ele>
        <time>2019-09-30T12:58:25Z</time>
      </trkpt>
      <trkpt lat="45.85857" lon="4.25862">
        <ele>572.821</ele>
        <time>2019-09-30T12:58:31Z</time>
      </trkpt>
      <trkpt lat="45.85858" lon="4.25865">
        <ele>572.029</ele>
        <time>2019-09-30T12:58:37Z</time>
      </trkpt>
      <trkpt lat="45.85858" lon="4.25866">
        <ele>572.681</ele>
        <time>2019-09-30T12:58:42Z</time>
      </trkpt>
      <trkpt lat="45.85858" lon="4.25865">
        <ele>572.601</ele>
        <time>2019-09-30T12:58:47Z</time>
      </trkpt>
      <trkpt lat="45.85858" lon="4.25865">
        <ele>572.817</ele>
        <time>2019-09-30T12:58:53Z</time>
      </trkpt>
      <trkpt lat="45.85858" lon="4.25865">
        <ele>572.825</ele>
        <time>2019-09-30T12:58:59Z</time>
      </trkpt>
      <trkpt lat="45.85858" lon="4.25865">
        <ele>572.833</ele>
        <time>2019-09-30T12:59:04Z</time>
      </trkpt>
      <trkpt lat="45.85858" lon="4.25865">
        <ele>572.962</ele>
        <time>2019-09-30T12:59:10Z</time>
      </trkpt>
      <trkpt lat="45.85858" lon="4.25865">
        <ele>572.914</ele>
        <time>2019-09-30T12:59:16Z</time>
      </trkpt>
      <trkpt lat="45.85858" lon="4.25865">
        <ele>572.874</ele>
        <time>2019-09-30T12:59:21Z</time>
      </trkpt>
      <trkpt lat="45.85858" lon="4.25865">
        <ele>572.84</ele>
        <time>2019-09-30T12:59:27Z</time>
      </trkpt>
      <trkpt lat="45.85858" lon="4.25865">
        <ele>572.828</ele>
        <time>2019-09-30T12:59:32Z</time>
      </trkpt>
      <trkpt lat="45.85858" lon="4.25865">
        <ele>572.87</ele>
        <time>2019-09-30T12:59:38Z</time>
      </trkpt>
      <trkpt lat="45.85858" lon="4.25865">
        <ele>572.966</ele>
        <time>2019-09-30T12:59:43Z</time>
      </trkpt>
      <trkpt lat="45.85858" lon="4.25865">
        <ele>572.954</ele>
        <time>2019-09-30T12:59:49Z</time>
      </trkpt>
      <trkpt lat="45.85858" lon="4.25865">
        <ele>572.953</ele>
        <time>2019-09-30T12:59:55Z</time>
      </trkpt>
      <trkpt lat="45.85858" lon="4.25865">
        <ele>572.964</ele>
        <time>2019-09-30T13:00:00Z</time>
      </trkpt>
      <trkpt lat="45.85859" lon="4.25865">
        <ele>571.761</ele>
        <time>2019-09-30T13:00:06Z</time>
      </trkpt>
      <trkpt lat="45.85859" lon="4.25866">
        <ele>572.068</ele>
        <time>2019-09-30T13:00:11Z</time>
      </trkpt>
      <trkpt lat="45.85859" lon="4.25868">
        <ele>570.802</ele>
        <time>2019-09-30T13:00:17Z</time>
      </trkpt>
      <trkpt lat="45.85859" lon="4.25868">
        <ele>569.994</ele>
        <time>2019-09-30T13:00:23Z</time>
      </trkpt>
      <trkpt lat="45.85859" lon="4.25868">
        <ele>569.231</ele>
        <time>2019-09-30T13:00:28Z</time>
      </trkpt>
      <trkpt lat="45.8586" lon="4.25869">
        <ele>568.407</ele>
        <time>2019-09-30T13:00:33Z</time>
      </trkpt>
      <trkpt lat="45.85859" lon="4.25869">
        <ele>570.473</ele>
        <time>2019-09-30T13:00:39Z</time>
      </trkpt>
      <trkpt lat="45.85859" lon="4.25867">
        <ele>570.038</ele>
        <time>2019-09-30T13:00:45Z</time>
      </trkpt>
      <trkpt lat="45.85858" lon="4.25864">
        <ele>568.767</ele>
        <time>2019-09-30T13:00:51Z</time>
      </trkpt>
      <trkpt lat="45.85854" lon="4.25864">
        <ele>568.488</ele>
        <time>2019-09-30T13:00:56Z</time>
      </trkpt>
      <trkpt lat="45.85852" lon="4.25864">
        <ele>571.169</ele>
        <time>2019-09-30T13:01:02Z</time>
      </trkpt>
      <trkpt lat="45.85852" lon="4.25864">
        <ele>571.145</ele>
        <time>2019-09-30T13:01:07Z</time>
      </trkpt>
      <trkpt lat="45.85855" lon="4.25868">
        <ele>561.757</ele>
        <time>2019-09-30T13:01:13Z</time>
      </trkpt>
      <trkpt lat="45.85855" lon="4.25869">
        <ele>563.187</ele>
        <time>2019-09-30T13:01:19Z</time>
      </trkpt>
      <trkpt lat="45.85854" lon="4.25868">
        <ele>566.906</ele>
        <time>2019-09-30T13:01:24Z</time>
      </trkpt>
      <trkpt lat="45.85854" lon="4.25866">
        <ele>566.401</ele>
        <time>2019-09-30T13:01:29Z</time>
      </trkpt>
      <trkpt lat="45.85854" lon="4.25867">
        <ele>565.24</ele>
        <time>2019-09-30T13:01:35Z</time>
      </trkpt>
      <trkpt lat="45.85855" lon="4.25867">
        <ele>567.888</ele>
        <time>2019-09-30T13:01:41Z</time>
      </trkpt>
      <trkpt lat="45.85855" lon="4.25867">
        <ele>566.929</ele>
        <time>2019-09-30T13:01:46Z</time>
      </trkpt>
      <trkpt lat="45.85857" lon="4.25867">
        <ele>565.73</ele>
        <time>2019-09-30T13:01:52Z</time>
      </trkpt>
      <trkpt lat="45.85857" lon="4.25867">
        <ele>564.992</ele>
        <time>2019-09-30T13:01:58Z</time>
      </trkpt>
      <trkpt lat="45.85857" lon="4.25867">
        <ele>564.871</ele>
        <time>2019-09-30T13:02:03Z</time>
      </trkpt>
      <trkpt lat="45.85857" lon="4.25867">
        <ele>564.876</ele>
        <time>2019-09-30T13:02:08Z</time>
      </trkpt>
      <trkpt lat="45.85857" lon="4.25867">
        <ele>565.535</ele>
        <time>2019-09-30T13:02:13Z</time>
      </trkpt>
      <trkpt lat="45.85857" lon="4.25866">
        <ele>566.479</ele>
        <time>2019-09-30T13:02:18Z</time>
      </trkpt>
      <trkpt lat="45.85857" lon="4.25866">
        <ele>567.082</ele>
        <time>2019-09-30T13:02:24Z</time>
      </trkpt>
      <trkpt lat="45.85858" lon="4.25866">
        <ele>566.327</ele>
        <time>2019-09-30T13:02:29Z</time>
      </trkpt>
      <trkpt lat="45.85858" lon="4.25866">
        <ele>566.284</ele>
        <time>2019-09-30T13:02:35Z</time>
      </trkpt>
      <trkpt lat="45.85865" lon="4.25864">
        <ele>565.27</ele>
        <time>2019-09-30T13:02:40Z</time>
      </trkpt>
      <trkpt lat="45.85875" lon="4.25857">
        <ele>563.281</ele>
        <time>2019-09-30T13:02:46Z</time>
      </trkpt>
      <trkpt lat="45.85882" lon="4.25852">
        <ele>562.367</ele>
        <time>2019-09-30T13:02:51Z</time>
      </trkpt>
      <trkpt lat="45.85888" lon="4.25849">
        <ele>562.298</ele>
        <time>2019-09-30T13:02:56Z</time>
      </trkpt>
      <trkpt lat="45.85894" lon="4.25846">
        <ele>561.448</ele>
        <time>2019-09-30T13:03:01Z</time>
      </trkpt>
      <trkpt lat="45.85899" lon="4.25842">
        <ele>556.926</ele>
        <time>2019-09-30T13:03:07Z</time>
      </trkpt>
      <trkpt lat="45.85904" lon="4.25837">
        <ele>557.361</ele>
        <time>2019-09-30T13:03:12Z</time>
      </trkpt>
      <trkpt lat="45.85912" lon="4.25834">
        <ele>558.274</ele>
        <time>2019-09-30T13:03:18Z</time>
      </trkpt>
      <trkpt lat="45.85916" lon="4.25832">
        <ele>557.595</ele>
        <time>2019-09-30T13:03:23Z</time>
      </trkpt>
      <trkpt lat="45.85922" lon="4.25828">
        <ele>559.403</ele>
        <time>2019-09-30T13:03:29Z</time>
      </trkpt>
      <trkpt lat="45.85926" lon="4.25823">
        <ele>558.406</ele>
        <time>2019-09-30T13:03:35Z</time>
      </trkpt>
      <trkpt lat="45.85931" lon="4.25817">
        <ele>557.175</ele>
        <time>2019-09-30T13:03:40Z</time>
      </trkpt>
      <trkpt lat="45.8594" lon="4.25811">
        <ele>550.748</ele>
        <time>2019-09-30T13:03:45Z</time>
      </trkpt>
      <trkpt lat="45.85949" lon="4.25807">
        <ele>548.047</ele>
        <time>2019-09-30T13:03:51Z</time>
      </trkpt>
      <trkpt lat="45.85956" lon="4.258">
        <ele>547.574</ele>
        <time>2019-09-30T13:03:57Z</time>
      </trkpt>
      <trkpt lat="45.85966" lon="4.25794">
        <ele>550.325</ele>
        <time>2019-09-30T13:04:03Z</time>
      </trkpt>
      <trkpt lat="45.85971" lon="4.25791">
        <ele>551.639</ele>
        <time>2019-09-30T13:04:09Z</time>
      </trkpt>
      <trkpt lat="45.85975" lon="4.25783">
        <ele>552.844</ele>
        <time>2019-09-30T13:04:15Z</time>
      </trkpt>
      <trkpt lat="45.85981" lon="4.25777">
        <ele>554.641</ele>
        <time>2019-09-30T13:04:20Z</time>
      </trkpt>
      <trkpt lat="45.85986" lon="4.2577">
        <ele>552.458</ele>
        <time>2019-09-30T13:04:25Z</time>
      </trkpt>
      <trkpt lat="45.85992" lon="4.25763">
        <ele>554.821</ele>
        <time>2019-09-30T13:04:30Z</time>
      </trkpt>
      <trkpt lat="45.85997" lon="4.25753">
        <ele>556.704</ele>
        <time>2019-09-30T13:04:36Z</time>
      </trkpt>
      <trkpt lat="45.86005" lon="4.25743">
        <ele>556.013</ele>
        <time>2019-09-30T13:04:42Z</time>
      </trkpt>
      <trkpt lat="45.86011" lon="4.25736">
        <ele>556.152</ele>
        <time>2019-09-30T13:04:48Z</time>
      </trkpt>
      <trkpt lat="45.86016" lon="4.25729">
        <ele>553.533</ele>
        <time>2019-09-30T13:04:54Z</time>
      </trkpt>
      <trkpt lat="45.86019" lon="4.25722">
        <ele>557.571</ele>
        <time>2019-09-30T13:04:59Z</time>
      </trkpt>
      <trkpt lat="45.86024" lon="4.25712">
        <ele>555.713</ele>
        <time>2019-09-30T13:05:05Z</time>
      </trkpt>
      <trkpt lat="45.86029" lon="4.25707">
        <ele>553.597</ele>
        <time>2019-09-30T13:05:10Z</time>
      </trkpt>
      <trkpt lat="45.86036" lon="4.25702">
        <ele>550.662</ele>
        <time>2019-09-30T13:05:16Z</time>
      </trkpt>
      <trkpt lat="45.86042" lon="4.25697">
        <ele>548.916</ele>
        <time>2019-09-30T13:05:21Z</time>
      </trkpt>
      <trkpt lat="45.86048" lon="4.2569">
        <ele>548.534</ele>
        <time>2019-09-30T13:05:27Z</time>
      </trkpt>
      <trkpt lat="45.86054" lon="4.25687">
        <ele>548.755</ele>
        <time>2019-09-30T13:05:32Z</time>
      </trkpt>
      <trkpt lat="45.86059" lon="4.25683">
        <ele>543.22</ele>
        <time>2019-09-30T13:05:37Z</time>
      </trkpt>
      <trkpt lat="45.86067" lon="4.25679">
        <ele>548.304</ele>
        <time>2019-09-30T13:05:43Z</time>
      </trkpt>
      <trkpt lat="45.86073" lon="4.25675">
        <ele>545.492</ele>
        <time>2019-09-30T13:05:48Z</time>
      </trkpt>
      <trkpt lat="45.86079" lon="4.25671">
        <ele>542.308</ele>
        <time>2019-09-30T13:05:54Z</time>
      </trkpt>
      <trkpt lat="45.86084" lon="4.25667">
        <ele>543.151</ele>
        <time>2019-09-30T13:05:59Z</time>
      </trkpt>
      <trkpt lat="45.8609" lon="4.25664">
        <ele>543.664</ele>
        <time>2019-09-30T13:06:05Z</time>
      </trkpt>
      <trkpt lat="45.86098" lon="4.25661">
        <ele>547.564</ele>
        <time>2019-09-30T13:06:11Z</time>
      </trkpt>
      <trkpt lat="45.86103" lon="4.25659">
        <ele>544.93</ele>
        <time>2019-09-30T13:06:16Z</time>
      </trkpt>
      <trkpt lat="45.86108" lon="4.25657">
        <ele>545.542</ele>
        <time>2019-09-30T13:06:21Z</time>
      </trkpt>
      <trkpt lat="45.86113" lon="4.25654">
        <ele>546.503</ele>
        <time>2019-09-30T13:06:27Z</time>
      </trkpt>
      <trkpt lat="45.86119" lon="4.25651">
        <ele>544.837</ele>
        <time>2019-09-30T13:06:33Z</time>
      </trkpt>
      <trkpt lat="45.86126" lon="4.25648">
        <ele>545.385</ele>
        <time>2019-09-30T13:06:39Z</time>
      </trkpt>
      <trkpt lat="45.86132" lon="4.25644">
        <ele>544.946</ele>
        <time>2019-09-30T13:06:44Z</time>
      </trkpt>
      <trkpt lat="45.86139" lon="4.25642">
        <ele>543.945</ele>
        <time>2019-09-30T13:06:49Z</time>
      </trkpt>
      <trkpt lat="45.86144" lon="4.25638">
        <ele>544.35</ele>
        <time>2019-09-30T13:06:54Z</time>
      </trkpt>
      <trkpt lat="45.86151" lon="4.25632">
        <ele>546.829</ele>
        <time>2019-09-30T13:07:00Z</time>
      </trkpt>
      <trkpt lat="45.86157" lon="4.25627">
        <ele>545.763</ele>
        <time>2019-09-30T13:07:06Z</time>
      </trkpt>
      <trkpt lat="45.86164" lon="4.25625">
        <ele>540.673</ele>
        <time>2019-09-30T13:07:11Z</time>
      </trkpt>
      <trkpt lat="45.8617" lon="4.25622">
        <ele>539.256</ele>
        <time>2019-09-30T13:07:16Z</time>
      </trkpt>
      <trkpt lat="45.86442" lon="4.25997">
        <ele>566.406</ele>
        <time>2019-09-30T13:14:32Z</time>
      </trkpt>
      <trkpt lat="45.86437" lon="4.26011">
        <ele>566.005</ele>
        <time>2019-09-30T13:14:38Z</time>
      </trkpt>
      <trkpt lat="45.86436" lon="4.26013">
        <ele>565.769</ele>
        <time>2019-09-30T13:14:44Z</time>
      </trkpt>
      <trkpt lat="45.86435" lon="4.26013">
        <ele>563.714</ele>
        <time>2019-09-30T13:14:49Z</time>
      </trkpt>
      <trkpt lat="45.86435" lon="4.26013">
        <ele>563.096</ele>
        <time>2019-09-30T13:14:55Z</time>
      </trkpt>
      <trkpt lat="45.86435" lon="4.26012">
        <ele>561.196</ele>
        <time>2019-09-30T13:15:00Z</time>
      </trkpt>
      <trkpt lat="45.86432" lon="4.26006">
        <ele>554.053</ele>
        <time>2019-09-30T13:15:05Z</time>
      </trkpt>
      <trkpt lat="45.86429" lon="4.25998">
        <ele>554.194</ele>
        <time>2019-09-30T13:15:11Z</time>
      </trkpt>
      <trkpt lat="45.86426" lon="4.2599">
        <ele>550.443</ele>
        <time>2019-09-30T13:15:16Z</time>
      </trkpt>
      <trkpt lat="45.86421" lon="4.25982">
        <ele>550.152</ele>
        <time>2019-09-30T13:15:22Z</time>
      </trkpt>
      <trkpt lat="45.86418" lon="4.25975">
        <ele>548.236</ele>
        <time>2019-09-30T13:15:27Z</time>
      </trkpt>
      <trkpt lat="45.86416" lon="4.25968">
        <ele>545.725</ele>
        <time>2019-09-30T13:15:33Z</time>
      </trkpt>
      <trkpt lat="45.86415" lon="4.25963">
        <ele>550.221</ele>
        <time>2019-09-30T13:15:38Z</time>
      </trkpt>
      <trkpt lat="45.86414" lon="4.25955">
        <ele>553.458</ele>
        <time>2019-09-30T13:15:44Z</time>
      </trkpt>
      <trkpt lat="45.86414" lon="4.25949">
        <ele>551.546</ele>
        <time>2019-09-30T13:15:49Z</time>
      </trkpt>
      <trkpt lat="45.86414" lon="4.25942">
        <ele>555.504</ele>
        <time>2019-09-30T13:15:54Z</time>
      </trkpt>
      <trkpt lat="45.86414" lon="4.25932">
        <ele>553.129</ele>
        <time>2019-09-30T13:16:00Z</time>
      </trkpt>
      <trkpt lat="45.86415" lon="4.25925">
        <ele>551.458</ele>
        <time>2019-09-30T13:16:05Z</time>
      </trkpt>
      <trkpt lat="45.86417" lon="4.25918">
        <ele>555.689</ele>
        <time>2019-09-30T13:16:11Z</time>
      </trkpt>
      <trkpt lat="45.86421" lon="4.25916">
        <ele>555.268</ele>
        <time>2019-09-30T13:16:16Z</time>
      </trkpt>
      <trkpt lat="45.86423" lon="4.25915">
        <ele>556.363</ele>
        <time>2019-09-30T13:16:22Z</time>
      </trkpt>
      <trkpt lat="45.86425" lon="4.25915">
        <ele>556.605</ele>
        <time>2019-09-30T13:16:28Z</time>
      </trkpt>
      <trkpt lat="45.86459" lon="4.25849">
        <ele>545.677</ele>
        <time>2019-09-30T13:17:07Z</time>
      </trkpt>
      <trkpt lat="45.86464" lon="4.25856">
        <ele>542.904</ele>
        <time>2019-09-30T13:17:13Z</time>
      </trkpt>
      <trkpt lat="45.86471" lon="4.25855">
        <ele>542.744</ele>
        <time>2019-09-30T13:17:19Z</time>
      </trkpt>
      <trkpt lat="45.86474" lon="4.25852">
        <ele>545.849</ele>
        <time>2019-09-30T13:17:24Z</time>
      </trkpt>
      <trkpt lat="45.86478" lon="4.25846">
        <ele>548.242</ele>
        <time>2019-09-30T13:17:30Z</time>
      </trkpt>
      <trkpt lat="45.86483" lon="4.25839">
        <ele>552.445</ele>
        <time>2019-09-30T13:17:36Z</time>
      </trkpt>
      <trkpt lat="45.86487" lon="4.25835">
        <ele>552.925</ele>
        <time>2019-09-30T13:17:41Z</time>
      </trkpt>
      <trkpt lat="45.86493" lon="4.2583">
        <ele>552.326</ele>
        <time>2019-09-30T13:17:47Z</time>
      </trkpt>
      <trkpt lat="45.86499" lon="4.25826">
        <ele>551.021</ele>
        <time>2019-09-30T13:17:53Z</time>
      </trkpt>
      <trkpt lat="45.86505" lon="4.25823">
        <ele>544.367</ele>
        <time>2019-09-30T13:17:59Z</time>
      </trkpt>
      <trkpt lat="45.86511" lon="4.25821">
        <ele>547.172</ele>
        <time>2019-09-30T13:18:04Z</time>
      </trkpt>
      <trkpt lat="45.86517" lon="4.2582">
        <ele>551.625</ele>
        <time>2019-09-30T13:18:10Z</time>
      </trkpt>
      <trkpt lat="45.86521" lon="4.25821">
        <ele>553.789</ele>
        <time>2019-09-30T13:18:15Z</time>
      </trkpt>
      <trkpt lat="45.86526" lon="4.25826">
        <ele>555.527</ele>
        <time>2019-09-30T13:18:21Z</time>
      </trkpt>
      <trkpt lat="45.86529" lon="4.25831">
        <ele>554.542</ele>
        <time>2019-09-30T13:18:26Z</time>
      </trkpt>
      <trkpt lat="45.86531" lon="4.2584">
        <ele>554.591</ele>
        <time>2019-09-30T13:18:32Z</time>
      </trkpt>
      <trkpt lat="45.8653" lon="4.2585">
        <ele>555.195</ele>
        <time>2019-09-30T13:18:38Z</time>
      </trkpt>
      <trkpt lat="45.86527" lon="4.25858">
        <ele>556.081</ele>
        <time>2019-09-30T13:18:43Z</time>
      </trkpt>
      <trkpt lat="45.86524" lon="4.25867">
        <ele>558.267</ele>
        <time>2019-09-30T13:18:49Z</time>
      </trkpt>
      <trkpt lat="45.86521" lon="4.25875">
        <ele>558.698</ele>
        <time>2019-09-30T13:18:55Z</time>
      </trkpt>
      <trkpt lat="45.86519" lon="4.25882">
        <ele>552.235</ele>
        <time>2019-09-30T13:19:01Z</time>
      </trkpt>
      <trkpt lat="45.86519" lon="4.25891">
        <ele>558.152</ele>
        <time>2019-09-30T13:19:07Z</time>
      </trkpt>
      <trkpt lat="45.8652" lon="4.25897">
        <ele>558.897</ele>
        <time>2019-09-30T13:19:12Z</time>
      </trkpt>
      <trkpt lat="45.86521" lon="4.25904">
        <ele>558.299</ele>
        <time>2019-09-30T13:19:17Z</time>
      </trkpt>
      <trkpt lat="45.86526" lon="4.25908">
        <ele>559.402</ele>
        <time>2019-09-30T13:19:23Z</time>
      </trkpt>
      <trkpt lat="45.86531" lon="4.25912">
        <ele>557.361</ele>
        <time>2019-09-30T13:19:29Z</time>
      </trkpt>
      <trkpt lat="45.86536" lon="4.25913">
        <ele>555.604</ele>
        <time>2019-09-30T13:19:35Z</time>
      </trkpt>
      <trkpt lat="45.86542" lon="4.25913">
        <ele>557.428</ele>
        <time>2019-09-30T13:19:40Z</time>
      </trkpt>
      <trkpt lat="45.86547" lon="4.25914">
        <ele>557.091</ele>
        <time>2019-09-30T13:19:45Z</time>
      </trkpt>
      <trkpt lat="45.86554" lon="4.25913">
        <ele>556.352</ele>
        <time>2019-09-30T13:19:51Z</time>
      </trkpt>
      <trkpt lat="45.86559" lon="4.25915">
        <ele>553.916</ele>
        <time>2019-09-30T13:19:56Z</time>
      </trkpt>
      <trkpt lat="45.86564" lon="4.25915">
        <ele>554.146</ele>
        <time>2019-09-30T13:20:01Z</time>
      </trkpt>
      <trkpt lat="45.8657" lon="4.25915">
        <ele>547.766</ele>
        <time>2019-09-30T13:20:07Z</time>
      </trkpt>
      <trkpt lat="45.86575" lon="4.25917">
        <ele>554.813</ele>
        <time>2019-09-30T13:20:12Z</time>
      </trkpt>
      <trkpt lat="45.8658" lon="4.25919">
        <ele>556.839</ele>
        <time>2019-09-30T13:20:18Z</time>
      </trkpt>
      <trkpt lat="45.86584" lon="4.25917">
        <ele>558.262</ele>
        <time>2019-09-30T13:20:24Z</time>
      </trkpt>
      <trkpt lat="45.86588" lon="4.25918">
        <ele>560.321</ele>
        <time>2019-09-30T13:20:30Z</time>
      </trkpt>
      <trkpt lat="45.86587" lon="4.25922">
        <ele>564.953</ele>
        <time>2019-09-30T13:20:36Z</time>
      </trkpt>
      <trkpt lat="45.86583" lon="4.25924">
        <ele>564.021</ele>
        <time>2019-09-30T13:20:42Z</time>
      </trkpt>
      <trkpt lat="45.86579" lon="4.25927">
        <ele>558.089</ele>
        <time>2019-09-30T13:20:48Z</time>
      </trkpt>
      <trkpt lat="45.86579" lon="4.25927">
        <ele>561.805</ele>
        <time>2019-09-30T13:20:54Z</time>
      </trkpt>
      <trkpt lat="45.8658" lon="4.25927">
        <ele>575.656</ele>
        <time>2019-09-30T13:20:59Z</time>
      </trkpt>
      <trkpt lat="45.8658" lon="4.25926">
        <ele>576.134</ele>
        <time>2019-09-30T13:21:04Z</time>
      </trkpt>
      <trkpt lat="45.86581" lon="4.25923">
        <ele>569.74</ele>
        <time>2019-09-30T13:21:10Z</time>
      </trkpt>
      <trkpt lat="45.86582" lon="4.25924">
        <ele>567.958</ele>
        <time>2019-09-30T13:21:15Z</time>
      </trkpt>
      <trkpt lat="45.86582" lon="4.25924">
        <ele>561.827</ele>
        <time>2019-09-30T13:21:20Z</time>
      </trkpt>
      <trkpt lat="45.86582" lon="4.25924">
        <ele>567.91</ele>
        <time>2019-09-30T13:21:26Z</time>
      </trkpt>
      <trkpt lat="45.86582" lon="4.25924">
        <ele>567.686</ele>
        <time>2019-09-30T13:21:32Z</time>
      </trkpt>
      <trkpt lat="45.86582" lon="4.25924">
        <ele>566.854</ele>
        <time>2019-09-30T13:21:38Z</time>
      </trkpt>
      <trkpt lat="45.86582" lon="4.25924">
        <ele>567.148</ele>
        <time>2019-09-30T13:21:44Z</time>
      </trkpt>
      <trkpt lat="45.86582" lon="4.25924">
        <ele>567.487</ele>
        <time>2019-09-30T13:21:50Z</time>
      </trkpt>
      <trkpt lat="45.86583" lon="4.25925">
        <ele>567.11</ele>
        <time>2019-09-30T13:21:55Z</time>
      </trkpt>
      <trkpt lat="45.86581" lon="4.25924">
        <ele>567.23</ele>
        <time>2019-09-30T13:22:01Z</time>
      </trkpt>
      <trkpt lat="45.86581" lon="4.25924">
        <ele>571.476</ele>
        <time>2019-09-30T13:22:06Z</time>
      </trkpt>
      <trkpt lat="45.86579" lon="4.25924">
        <ele>571.722</ele>
        <time>2019-09-30T13:22:11Z</time>
      </trkpt>
      <trkpt lat="45.86579" lon="4.25924">
        <ele>570.937</ele>
        <time>2019-09-30T13:22:16Z</time>
      </trkpt>
      <trkpt lat="45.86541" lon="4.25924">
        <ele>548.12</ele>
        <time>2019-09-30T13:25:21Z</time>
      </trkpt>
      <trkpt lat="45.86535" lon="4.25925">
        <ele>559.867</ele>
        <time>2019-09-30T13:25:27Z</time>
      </trkpt>
      <trkpt lat="45.86529" lon="4.25926">
        <ele>568.97</ele>
        <time>2019-09-30T13:25:32Z</time>
      </trkpt>
      <trkpt lat="45.86525" lon="4.25927">
        <ele>555.762</ele>
        <time>2019-09-30T13:25:38Z</time>
      </trkpt>
      <trkpt lat="45.86521" lon="4.25927">
        <ele>552.832</ele>
        <time>2019-09-30T13:25:43Z</time>
      </trkpt>
      <trkpt lat="45.86514" lon="4.25929">
        <ele>554.957</ele>
        <time>2019-09-30T13:25:49Z</time>
      </trkpt>
      <trkpt lat="45.86509" lon="4.25929">
        <ele>563.225</ele>
        <time>2019-09-30T13:25:55Z</time>
      </trkpt>
      <trkpt lat="45.86501" lon="4.2593">
        <ele>563.236</ele>
        <time>2019-09-30T13:26:01Z</time>
      </trkpt>
      <trkpt lat="45.86496" lon="4.25928">
        <ele>561.016</ele>
        <time>2019-09-30T13:26:06Z</time>
      </trkpt>
      <trkpt lat="45.86489" lon="4.25929">
        <ele>563.991</ele>
        <time>2019-09-30T13:26:12Z</time>
      </trkpt>
      <trkpt lat="45.86482" lon="4.25929">
        <ele>555.258</ele>
        <time>2019-09-30T13:26:18Z</time>
      </trkpt>
      <trkpt lat="45.86475" lon="4.25929">
        <ele>554.888</ele>
        <time>2019-09-30T13:26:23Z</time>
      </trkpt>
      <trkpt lat="45.8647" lon="4.25931">
        <ele>547.855</ele>
        <time>2019-09-30T13:26:29Z</time>
      </trkpt>
      <trkpt lat="45.86465" lon="4.25933">
        <ele>571.978</ele>
        <time>2019-09-30T13:26:34Z</time>
      </trkpt>
      <trkpt lat="45.86459" lon="4.25933">
        <ele>572.643</ele>
        <time>2019-09-30T13:26:39Z</time>
      </trkpt>
      <trkpt lat="45.86452" lon="4.25934">
        <ele>572.204</ele>
        <time>2019-09-30T13:26:45Z</time>
      </trkpt>
      <trkpt lat="45.86443" lon="4.25935">
        <ele>560.829</ele>
        <time>2019-09-30T13:26:51Z</time>
      </trkpt>
      <trkpt lat="45.86439" lon="4.25936">
        <ele>569.549</ele>
        <time>2019-09-30T13:26:56Z</time>
      </trkpt>
      <trkpt lat="45.86434" lon="4.25936">
        <ele>571.047</ele>
        <time>2019-09-30T13:27:01Z</time>
      </trkpt>
      <trkpt lat="45.86428" lon="4.25936">
        <ele>565.992</ele>
        <time>2019-09-30T13:27:07Z</time>
      </trkpt>
      <trkpt lat="45.86422" lon="4.25936">
        <ele>566.22</ele>
        <time>2019-09-30T13:27:13Z</time>
      </trkpt>
      <trkpt lat="45.86417" lon="4.25939">
        <ele>564.888</ele>
        <time>2019-09-30T13:27:19Z</time>
      </trkpt>
      <trkpt lat="45.86412" lon="4.25939">
        <ele>567.513</ele>
        <time>2019-09-30T13:27:24Z</time>
      </trkpt>
      <trkpt lat="45.86405" lon="4.2594">
        <ele>567.27</ele>
        <time>2019-09-30T13:27:30Z</time>
      </trkpt>
      <trkpt lat="45.86397" lon="4.25942">
        <ele>566.768</ele>
        <time>2019-09-30T13:27:36Z</time>
      </trkpt>
      <trkpt lat="45.86391" lon="4.25942">
        <ele>567.351</ele>
        <time>2019-09-30T13:27:42Z</time>
      </trkpt>
      <trkpt lat="45.86386" lon="4.25943">
        <ele>568.776</ele>
        <time>2019-09-30T13:27:47Z</time>
      </trkpt>
      <trkpt lat="45.8638" lon="4.25944">
        <ele>569.498</ele>
        <time>2019-09-30T13:27:53Z</time>
      </trkpt>
      <trkpt lat="45.86372" lon="4.25946">
        <ele>570.313</ele>
        <time>2019-09-30T13:27:59Z</time>
      </trkpt>
      <trkpt lat="45.86366" lon="4.25949">
        <ele>569.81</ele>
        <time>2019-09-30T13:28:05Z</time>
      </trkpt>
      <trkpt lat="45.86358" lon="4.2595">
        <ele>567.452</ele>
        <time>2019-09-30T13:28:10Z</time>
      </trkpt>
      <trkpt lat="45.86351" lon="4.2595">
        <ele>567.138</ele>
        <time>2019-09-30T13:28:16Z</time>
      </trkpt>
      <trkpt lat="45.86344" lon="4.25951">
        <ele>567.387</ele>
        <time>2019-09-30T13:28:21Z</time>
      </trkpt>
      <trkpt lat="45.86337" lon="4.25949">
        <ele>568.003</ele>
        <time>2019-09-30T13:28:27Z</time>
      </trkpt>
      <trkpt lat="45.86331" lon="4.25949">
        <ele>568.111</ele>
        <time>2019-09-30T13:28:32Z</time>
      </trkpt>
      <trkpt lat="45.86324" lon="4.25951">
        <ele>566.352</ele>
        <time>2019-09-30T13:28:37Z</time>
      </trkpt>
      <trkpt lat="45.86317" lon="4.25952">
        <ele>568.95</ele>
        <time>2019-09-30T13:28:43Z</time>
      </trkpt>
      <trkpt lat="45.86311" lon="4.25951">
        <ele>569.309</ele>
        <time>2019-09-30T13:28:48Z</time>
      </trkpt>
      <trkpt lat="45.86304" lon="4.2595">
        <ele>569.494</ele>
        <time>2019-09-30T13:28:54Z</time>
      </trkpt>
      <trkpt lat="45.86298" lon="4.2595">
        <ele>570.385</ele>
        <time>2019-09-30T13:28:59Z</time>
      </trkpt>
      <trkpt lat="45.86292" lon="4.25951">
        <ele>572.604</ele>
        <time>2019-09-30T13:29:05Z</time>
      </trkpt>
      <trkpt lat="45.86287" lon="4.25951">
        <ele>570.105</ele>
        <time>2019-09-30T13:29:11Z</time>
      </trkpt>
      <trkpt lat="45.86281" lon="4.25951">
        <ele>574.045</ele>
        <time>2019-09-30T13:29:17Z</time>
      </trkpt>
      <trkpt lat="45.86276" lon="4.25956">
        <ele>574.293</ele>
        <time>2019-09-30T13:29:22Z</time>
      </trkpt>
      <trkpt lat="45.86272" lon="4.25957">
        <ele>573.228</ele>
        <time>2019-09-30T13:29:28Z</time>
      </trkpt>
      <trkpt lat="45.8627" lon="4.25958">
        <ele>568.866</ele>
        <time>2019-09-30T13:29:33Z</time>
      </trkpt>
      <trkpt lat="45.86264" lon="4.25957">
        <ele>572.49</ele>
        <time>2019-09-30T13:29:39Z</time>
      </trkpt>
      <trkpt lat="45.86259" lon="4.25953">
        <ele>574.624</ele>
        <time>2019-09-30T13:29:44Z</time>
      </trkpt>
      <trkpt lat="45.86257" lon="4.25951">
        <ele>571.002</ele>
        <time>2019-09-30T13:29:50Z</time>
      </trkpt>
      <trkpt lat="45.86256" lon="4.2595">
        <ele>577.961</ele>
        <time>2019-09-30T13:29:56Z</time>
      </trkpt>
      <trkpt lat="45.86255" lon="4.25948">
        <ele>579.502</ele>
        <time>2019-09-30T13:30:01Z</time>
      </trkpt>
      <trkpt lat="45.86255" lon="4.25947">
        <ele>573.508</ele>
        <time>2019-09-30T13:30:06Z</time>
      </trkpt>
      <trkpt lat="45.86255" lon="4.25946">
        <ele>577.454</ele>
        <time>2019-09-30T13:30:12Z</time>
      </trkpt>
      <trkpt lat="45.86255" lon="4.25946">
        <ele>579.504</ele>
        <time>2019-09-30T13:30:17Z</time>
      </trkpt>
      <trkpt lat="45.86255" lon="4.25946">
        <ele>578.645</ele>
        <time>2019-09-30T13:30:23Z</time>
      </trkpt>
      <trkpt lat="45.86255" lon="4.25946">
        <ele>578.032</ele>
        <time>2019-09-30T13:30:29Z</time>
      </trkpt>
      <trkpt lat="45.86255" lon="4.25946">
        <ele>575.416</ele>
        <time>2019-09-30T13:30:34Z</time>
      </trkpt>
      <trkpt lat="45.86255" lon="4.25946">
        <ele>574.224</ele>
        <time>2019-09-30T13:30:40Z</time>
      </trkpt>
      <trkpt lat="45.86254" lon="4.25946">
        <ele>579.119</ele>
        <time>2019-09-30T13:30:46Z</time>
      </trkpt>
      <trkpt lat="45.86254" lon="4.25944">
        <ele>579.223</ele>
        <time>2019-09-30T13:30:52Z</time>
      </trkpt>
      <trkpt lat="45.86253" lon="4.25944">
        <ele>574.645</ele>
        <time>2019-09-30T13:30:58Z</time>
      </trkpt>
      <trkpt lat="45.8625" lon="4.25943">
        <ele>574.864</ele>
        <time>2019-09-30T13:31:04Z</time>
      </trkpt>
      <trkpt lat="45.86246" lon="4.25939">
        <ele>576.453</ele>
        <time>2019-09-30T13:31:09Z</time>
      </trkpt>
      <trkpt lat="45.86241" lon="4.25939">
        <ele>568.789</ele>
        <time>2019-09-30T13:31:15Z</time>
      </trkpt>
      <trkpt lat="45.86235" lon="4.25937">
        <ele>572.979</ele>
        <time>2019-09-30T13:31:21Z</time>
      </trkpt>
      <trkpt lat="45.8623" lon="4.25934">
        <ele>575.868</ele>
        <time>2019-09-30T13:31:26Z</time>
      </trkpt>
      <trkpt lat="45.86226" lon="4.2593">
        <ele>573.722</ele>
        <time>2019-09-30T13:31:31Z</time>
      </trkpt>
      <trkpt lat="45.86221" lon="4.25924">
        <ele>576.09</ele>
        <time>2019-09-30T13:31:37Z</time>
      </trkpt>
      <trkpt lat="45.86215" lon="4.25919">
        <ele>575.94</ele>
        <time>2019-09-30T13:31:43Z</time>
      </trkpt>
      <trkpt lat="45.8621" lon="4.25916">
        <ele>577.678</ele>
        <time>2019-09-30T13:31:48Z</time>
      </trkpt>
      <trkpt lat="45.86204" lon="4.25911">
        <ele>579.916</ele>
        <time>2019-09-30T13:31:54Z</time>
      </trkpt>
      <trkpt lat="45.86199" lon="4.25906">
        <ele>578.561</ele>
        <time>2019-09-30T13:32:00Z</time>
      </trkpt>
      <trkpt lat="45.86197" lon="4.25904">
        <ele>577.193</ele>
        <time>2019-09-30T13:32:06Z</time>
      </trkpt>
      <trkpt lat="45.86192" lon="4.25899">
        <ele>576.823</ele>
        <time>2019-09-30T13:32:12Z</time>
      </trkpt>
      <trkpt lat="45.86189" lon="4.25897">
        <ele>577.714</ele>
        <time>2019-09-30T13:32:17Z</time>
      </trkpt>
      <trkpt lat="45.86184" lon="4.25889">
        <ele>580.809</ele>
        <time>2019-09-30T13:32:23Z</time>
      </trkpt>
      <trkpt lat="45.8618" lon="4.25884">
        <ele>579.348</ele>
        <time>2019-09-30T13:32:28Z</time>
      </trkpt>
      <trkpt lat="45.86176" lon="4.25874">
        <ele>580.462</ele>
        <time>2019-09-30T13:32:34Z</time>
      </trkpt>
      <trkpt lat="45.86172" lon="4.25864">
        <ele>577.61</ele>
        <time>2019-09-30T13:32:40Z</time>
      </trkpt>
      <trkpt lat="45.86166" lon="4.25859">
        <ele>579.113</ele>
        <time>2019-09-30T13:32:45Z</time>
      </trkpt>
      <trkpt lat="45.8616" lon="4.25854">
        <ele>579.49</ele>
        <time>2019-09-30T13:32:51Z</time>
      </trkpt>
      <trkpt lat="45.86155" lon="4.2585">
        <ele>582.12</ele>
        <time>2019-09-30T13:32:56Z</time>
      </trkpt>
      <trkpt lat="45.86151" lon="4.25845">
        <ele>581.991</ele>
        <time>2019-09-30T13:33:02Z</time>
      </trkpt>
      <trkpt lat="45.86145" lon="4.25844">
        <ele>582.282</ele>
        <time>2019-09-30T13:33:08Z</time>
      </trkpt>
      <trkpt lat="45.86141" lon="4.2584">
        <ele>579.573</ele>
        <time>2019-09-30T13:33:13Z</time>
      </trkpt>
      <trkpt lat="45.86135" lon="4.25839">
        <ele>578.532</ele>
        <time>2019-09-30T13:33:19Z</time>
      </trkpt>
      <trkpt lat="45.86128" lon="4.25837">
        <ele>580.146</ele>
        <time>2019-09-30T13:33:24Z</time>
      </trkpt>
      <trkpt lat="45.86125" lon="4.25836">
        <ele>586.016</ele>
        <time>2019-09-30T13:33:30Z</time>
      </trkpt>
      <trkpt lat="45.86118" lon="4.25832">
        <ele>584.647</ele>
        <time>2019-09-30T13:33:36Z</time>
      </trkpt>
      <trkpt lat="45.8611" lon="4.2583">
        <ele>571.403</ele>
        <time>2019-09-30T13:33:41Z</time>
      </trkpt>
      <trkpt lat="45.86101" lon="4.25831">
        <ele>571.925</ele>
        <time>2019-09-30T13:33:47Z</time>
      </trkpt>
      <trkpt lat="45.86091" lon="4.25833">
        <ele>581.893</ele>
        <time>2019-09-30T13:33:53Z</time>
      </trkpt>
      <trkpt lat="45.86084" lon="4.25836">
        <ele>584.422</ele>
        <time>2019-09-30T13:33:58Z</time>
      </trkpt>
      <trkpt lat="45.8608" lon="4.25839">
        <ele>583.525</ele>
        <time>2019-09-30T13:34:03Z</time>
      </trkpt>
      <trkpt lat="45.86074" lon="4.25845">
        <ele>582.452</ele>
        <time>2019-09-30T13:34:09Z</time>
      </trkpt>
      <trkpt lat="45.86067" lon="4.25848">
        <ele>579.076</ele>
        <time>2019-09-30T13:34:15Z</time>
      </trkpt>
      <trkpt lat="45.86061" lon="4.25852">
        <ele>562.875</ele>
        <time>2019-09-30T13:34:21Z</time>
      </trkpt>
      <trkpt lat="45.86054" lon="4.25855">
        <ele>571.602</ele>
        <time>2019-09-30T13:34:26Z</time>
      </trkpt>
      <trkpt lat="45.86048" lon="4.25858">
        <ele>574.024</ele>
        <time>2019-09-30T13:34:31Z</time>
      </trkpt>
      <trkpt lat="45.86042" lon="4.25861">
        <ele>569.314</ele>
        <time>2019-09-30T13:34:37Z</time>
      </trkpt>
      <trkpt lat="45.86039" lon="4.25862">
        <ele>567.691</ele>
        <time>2019-09-30T13:34:42Z</time>
      </trkpt>
      <trkpt lat="45.86036" lon="4.25865">
        <ele>565.953</ele>
        <time>2019-09-30T13:34:48Z</time>
      </trkpt>
      <trkpt lat="45.86035" lon="4.25867">
        <ele>578.38</ele>
        <time>2019-09-30T13:34:54Z</time>
      </trkpt>
      <trkpt lat="45.86034" lon="4.25867">
        <ele>571.691</ele>
        <time>2019-09-30T13:34:59Z</time>
      </trkpt>
      <trkpt lat="45.86024" lon="4.25873">
        <ele>577.645</ele>
        <time>2019-09-30T13:35:04Z</time>
      </trkpt>
      <trkpt lat="45.86014" lon="4.25884">
        <ele>576.122</ele>
        <time>2019-09-30T13:35:10Z</time>
      </trkpt>
      <trkpt lat="45.86008" lon="4.25886">
        <ele>576.334</ele>
        <time>2019-09-30T13:35:15Z</time>
      </trkpt>
      <trkpt lat="45.86002" lon="4.25891">
        <ele>577.346</ele>
        <time>2019-09-30T13:35:21Z</time>
      </trkpt>
      <trkpt lat="45.85995" lon="4.25894">
        <ele>575.703</ele>
        <time>2019-09-30T13:35:26Z</time>
      </trkpt>
      <trkpt lat="45.85988" lon="4.25901">
        <ele>574.918</ele>
        <time>2019-09-30T13:35:32Z</time>
      </trkpt>
      <trkpt lat="45.85979" lon="4.25905">
        <ele>574.898</ele>
        <time>2019-09-30T13:35:38Z</time>
      </trkpt>
      <trkpt lat="45.85974" lon="4.2591">
        <ele>575.357</ele>
        <time>2019-09-30T13:35:44Z</time>
      </trkpt>
      <trkpt lat="45.85968" lon="4.25915">
        <ele>576.41</ele>
        <time>2019-09-30T13:35:49Z</time>
      </trkpt>
      <trkpt lat="45.8596" lon="4.25919">
        <ele>582.187</ele>
        <time>2019-09-30T13:35:55Z</time>
      </trkpt>
      <trkpt lat="45.85954" lon="4.25925">
        <ele>579.399</ele>
        <time>2019-09-30T13:36:01Z</time>
      </trkpt>
      <trkpt lat="45.85949" lon="4.25931">
        <ele>577.845</ele>
        <time>2019-09-30T13:36:06Z</time>
      </trkpt>
      <trkpt lat="45.85944" lon="4.25933">
        <ele>578.932</ele>
        <time>2019-09-30T13:36:11Z</time>
      </trkpt>
      <trkpt lat="45.85938" lon="4.25937">
        <ele>573.53</ele>
        <time>2019-09-30T13:36:17Z</time>
      </trkpt>
      <trkpt lat="45.85933" lon="4.25945">
        <ele>568.68</ele>
        <time>2019-09-30T13:36:23Z</time>
      </trkpt>
      <trkpt lat="45.85929" lon="4.25953">
        <ele>575.422</ele>
        <time>2019-09-30T13:36:29Z</time>
      </trkpt>
      <trkpt lat="45.85923" lon="4.25961">
        <ele>578.418</ele>
        <time>2019-09-30T13:36:34Z</time>
      </trkpt>
      <trkpt lat="45.85919" lon="4.25968">
        <ele>570.322</ele>
        <time>2019-09-30T13:36:40Z</time>
      </trkpt>
      <trkpt lat="45.85915" lon="4.25972">
        <ele>578.995</ele>
        <time>2019-09-30T13:36:45Z</time>
      </trkpt>
      <trkpt lat="45.85911" lon="4.2598">
        <ele>580.417</ele>
        <time>2019-09-30T13:36:50Z</time>
      </trkpt>
      <trkpt lat="45.85908" lon="4.2599">
        <ele>575.796</ele>
        <time>2019-09-30T13:36:56Z</time>
      </trkpt>
      <trkpt lat="45.85905" lon="4.25995">
        <ele>569.164</ele>
        <time>2019-09-30T13:37:02Z</time>
      </trkpt>
      <trkpt lat="45.85899" lon="4.26002">
        <ele>567.762</ele>
        <time>2019-09-30T13:37:07Z</time>
      </trkpt>
      <trkpt lat="45.85892" lon="4.2601">
        <ele>568.932</ele>
        <time>2019-09-30T13:37:13Z</time>
      </trkpt>
      <trkpt lat="45.85888" lon="4.26018">
        <ele>568.081</ele>
        <time>2019-09-30T13:37:18Z</time>
      </trkpt>
      <trkpt lat="45.85882" lon="4.26028">
        <ele>569.608</ele>
        <time>2019-09-30T13:37:24Z</time>
      </trkpt>
      <trkpt lat="45.85875" lon="4.26036">
        <ele>573.017</ele>
        <time>2019-09-30T13:37:29Z</time>
      </trkpt>
      <trkpt lat="45.8587" lon="4.26044">
        <ele>572.622</ele>
        <time>2019-09-30T13:37:35Z</time>
      </trkpt>
      <trkpt lat="45.85866" lon="4.26049">
        <ele>580.044</ele>
        <time>2019-09-30T13:37:40Z</time>
      </trkpt>
      <trkpt lat="45.85862" lon="4.26056">
        <ele>576.46</ele>
        <time>2019-09-30T13:37:46Z</time>
      </trkpt>
      <trkpt lat="45.85855" lon="4.26064">
        <ele>567.337</ele>
        <time>2019-09-30T13:37:52Z</time>
      </trkpt>
      <trkpt lat="45.85853" lon="4.26067">
        <ele>574.62</ele>
        <time>2019-09-30T13:37:57Z</time>
      </trkpt>
      <trkpt lat="45.8585" lon="4.26071">
        <ele>573.536</ele>
        <time>2019-09-30T13:38:03Z</time>
      </trkpt>
      <trkpt lat="45.85842" lon="4.26075">
        <ele>571.512</ele>
        <time>2019-09-30T13:38:08Z</time>
      </trkpt>
      <trkpt lat="45.85835" lon="4.26079">
        <ele>574.257</ele>
        <time>2019-09-30T13:38:13Z</time>
      </trkpt>
      <trkpt lat="45.85829" lon="4.26081">
        <ele>575.758</ele>
        <time>2019-09-30T13:38:18Z</time>
      </trkpt>
      <trkpt lat="45.85822" lon="4.26081">
        <ele>566.635</ele>
        <time>2019-09-30T13:38:23Z</time>
      </trkpt>
      <trkpt lat="45.85815" lon="4.26085">
        <ele>564.386</ele>
        <time>2019-09-30T13:38:29Z</time>
      </trkpt>
      <trkpt lat="45.85806" lon="4.2609">
        <ele>562.644</ele>
        <time>2019-09-30T13:38:34Z</time>
      </trkpt>
      <trkpt lat="45.85797" lon="4.26094">
        <ele>566.236</ele>
        <time>2019-09-30T13:38:40Z</time>
      </trkpt>
      <trkpt lat="45.85793" lon="4.26098">
        <ele>574.885</ele>
        <time>2019-09-30T13:38:45Z</time>
      </trkpt>
      <trkpt lat="45.85788" lon="4.26102">
        <ele>586.403</ele>
        <time>2019-09-30T13:38:51Z</time>
      </trkpt>
      <trkpt lat="45.85782" lon="4.26102">
        <ele>586.963</ele>
        <time>2019-09-30T13:38:56Z</time>
      </trkpt>
      <trkpt lat="45.85774" lon="4.26101">
        <ele>585.408</ele>
        <time>2019-09-30T13:39:02Z</time>
      </trkpt>
      <trkpt lat="45.85765" lon="4.26101">
        <ele>585.471</ele>
        <time>2019-09-30T13:39:08Z</time>
      </trkpt>
      <trkpt lat="45.85759" lon="4.26102">
        <ele>586.195</ele>
        <time>2019-09-30T13:39:13Z</time>
      </trkpt>
      <trkpt lat="45.85753" lon="4.26103">
        <ele>587.352</ele>
        <time>2019-09-30T13:39:18Z</time>
      </trkpt>
      <trkpt lat="45.85747" lon="4.26105">
        <ele>589.314</ele>
        <time>2019-09-30T13:39:23Z</time>
      </trkpt>
      <trkpt lat="45.85739" lon="4.26104">
        <ele>596.306</ele>
        <time>2019-09-30T13:39:29Z</time>
      </trkpt>
      <trkpt lat="45.85733" lon="4.26106">
        <ele>592.556</ele>
        <time>2019-09-30T13:39:35Z</time>
      </trkpt>
      <trkpt lat="45.85726" lon="4.26111">
        <ele>586.919</ele>
        <time>2019-09-30T13:39:40Z</time>
      </trkpt>
      <trkpt lat="45.85718" lon="4.2612">
        <ele>588.003</ele>
        <time>2019-09-30T13:39:46Z</time>
      </trkpt>
      <trkpt lat="45.85709" lon="4.26125">
        <ele>589.868</ele>
        <time>2019-09-30T13:39:52Z</time>
      </trkpt>
      <trkpt lat="45.857" lon="4.26132">
        <ele>591.29</ele>
        <time>2019-09-30T13:39:58Z</time>
      </trkpt>
      <trkpt lat="45.85698" lon="4.26137">
        <ele>585.916</ele>
        <time>2019-09-30T13:40:04Z</time>
      </trkpt>
      <trkpt lat="45.85696" lon="4.26142">
        <ele>589.908</ele>
        <time>2019-09-30T13:40:10Z</time>
      </trkpt>
      <trkpt lat="45.85694" lon="4.26149">
        <ele>587.209</ele>
        <time>2019-09-30T13:40:16Z</time>
      </trkpt>
      <trkpt lat="45.85687" lon="4.26157">
        <ele>590.631</ele>
        <time>2019-09-30T13:40:22Z</time>
      </trkpt>
      <trkpt lat="45.85678" lon="4.26165">
        <ele>594.182</ele>
        <time>2019-09-30T13:40:28Z</time>
      </trkpt>
      <trkpt lat="45.85672" lon="4.26174">
        <ele>591.191</ele>
        <time>2019-09-30T13:40:33Z</time>
      </trkpt>
      <trkpt lat="45.85667" lon="4.26183">
        <ele>591.748</ele>
        <time>2019-09-30T13:40:38Z</time>
      </trkpt>
      <trkpt lat="45.85662" lon="4.26191">
        <ele>586.144</ele>
        <time>2019-09-30T13:40:43Z</time>
      </trkpt>
      <trkpt lat="45.8566" lon="4.26198">
        <ele>585.24</ele>
        <time>2019-09-30T13:40:48Z</time>
      </trkpt>
      <trkpt lat="45.85655" lon="4.26208">
        <ele>589.897</ele>
        <time>2019-09-30T13:40:54Z</time>
      </trkpt>
      <trkpt lat="45.85647" lon="4.26211">
        <ele>590.793</ele>
        <time>2019-09-30T13:40:59Z</time>
      </trkpt>
      <trkpt lat="45.85639" lon="4.26216">
        <ele>612.362</ele>
        <time>2019-09-30T13:41:05Z</time>
      </trkpt>
      <trkpt lat="45.85633" lon="4.26221">
        <ele>613.572</ele>
        <time>2019-09-30T13:41:10Z</time>
      </trkpt>
      <trkpt lat="45.85624" lon="4.26227">
        <ele>614.098</ele>
        <time>2019-09-30T13:41:16Z</time>
      </trkpt>
      <trkpt lat="45.85619" lon="4.26231">
        <ele>613.818</ele>
        <time>2019-09-30T13:41:21Z</time>
      </trkpt>
      <trkpt lat="45.85615" lon="4.26236">
        <ele>614.49</ele>
        <time>2019-09-30T13:41:27Z</time>
      </trkpt>
      <trkpt lat="45.85616" lon="4.26235">
        <ele>614.862</ele>
        <time>2019-09-30T13:41:33Z</time>
      </trkpt>
      <trkpt lat="45.85616" lon="4.26236">
        <ele>615.694</ele>
        <time>2019-09-30T13:41:38Z</time>
      </trkpt>
      <trkpt lat="45.85616" lon="4.26236">
        <ele>615.817</ele>
        <time>2019-09-30T13:41:44Z</time>
      </trkpt>
      <trkpt lat="45.85616" lon="4.26236">
        <ele>615.921</ele>
        <time>2019-09-30T13:41:50Z</time>
      </trkpt>
      <trkpt lat="45.85617" lon="4.26235">
        <ele>616.448</ele>
        <time>2019-09-30T13:41:55Z</time>
      </trkpt>
      <trkpt lat="45.85617" lon="4.26235">
        <ele>617.152</ele>
        <time>2019-09-30T13:42:01Z</time>
      </trkpt>
      <trkpt lat="45.85617" lon="4.26235">
        <ele>616.407</ele>
        <time>2019-09-30T13:42:07Z</time>
      </trkpt>
      <trkpt lat="45.85617" lon="4.26235">
        <ele>616.104</ele>
        <time>2019-09-30T13:42:12Z</time>
      </trkpt>
      <trkpt lat="45.85617" lon="4.26235">
        <ele>616.14</ele>
        <time>2019-09-30T13:42:18Z</time>
      </trkpt>
      <trkpt lat="45.85617" lon="4.26235">
        <ele>616.325</ele>
        <time>2019-09-30T13:42:24Z</time>
      </trkpt>
      <trkpt lat="45.85617" lon="4.26235">
        <ele>616.178</ele>
        <time>2019-09-30T13:42:30Z</time>
      </trkpt>
      <trkpt lat="45.85617" lon="4.26235">
        <ele>616.438</ele>
        <time>2019-09-30T13:42:35Z</time>
      </trkpt>
      <trkpt lat="45.85617" lon="4.26235">
        <ele>616.519</ele>
        <time>2019-09-30T13:42:41Z</time>
      </trkpt>
      <trkpt lat="45.85617" lon="4.26235">
        <ele>616.327</ele>
        <time>2019-09-30T13:42:47Z</time>
      </trkpt>
      <trkpt lat="45.85617" lon="4.26235">
        <ele>616.346</ele>
        <time>2019-09-30T13:42:53Z</time>
      </trkpt>
      <trkpt lat="45.85617" lon="4.26235">
        <ele>616.455</ele>
        <time>2019-09-30T13:42:58Z</time>
      </trkpt>
      <trkpt lat="45.85617" lon="4.26235">
        <ele>616.625</ele>
        <time>2019-09-30T13:43:04Z</time>
      </trkpt>
      <trkpt lat="45.85617" lon="4.26235">
        <ele>616.593</ele>
        <time>2019-09-30T13:43:09Z</time>
      </trkpt>
      <trkpt lat="45.85617" lon="4.26235">
        <ele>616.677</ele>
        <time>2019-09-30T13:43:14Z</time>
      </trkpt>
      <trkpt lat="45.85617" lon="4.26235">
        <ele>616.538</ele>
        <time>2019-09-30T13:43:20Z</time>
      </trkpt>
      <trkpt lat="45.85617" lon="4.26235">
        <ele>616.259</ele>
        <time>2019-09-30T13:43:26Z</time>
      </trkpt>
      <trkpt lat="45.85617" lon="4.26235">
        <ele>616.336</ele>
        <time>2019-09-30T13:43:31Z</time>
      </trkpt>
      <trkpt lat="45.85617" lon="4.26235">
        <ele>616.431</ele>
        <time>2019-09-30T13:43:37Z</time>
      </trkpt>
      <trkpt lat="45.85617" lon="4.26234">
        <ele>617.122</ele>
        <time>2019-09-30T13:43:42Z</time>
      </trkpt>
      <trkpt lat="45.85617" lon="4.26234">
        <ele>617.707</ele>
        <time>2019-09-30T13:43:47Z</time>
      </trkpt>
      <trkpt lat="45.85617" lon="4.26234">
        <ele>616.888</ele>
        <time>2019-09-30T13:43:53Z</time>
      </trkpt>
      <trkpt lat="45.85617" lon="4.26234">
        <ele>616.584</ele>
        <time>2019-09-30T13:43:59Z</time>
      </trkpt>
      <trkpt lat="45.85617" lon="4.26234">
        <ele>616.763</ele>
        <time>2019-09-30T13:44:04Z</time>
      </trkpt>
      <trkpt lat="45.85617" lon="4.26234">
        <ele>616.761</ele>
        <time>2019-09-30T13:44:10Z</time>
      </trkpt>
      <trkpt lat="45.85617" lon="4.26234">
        <ele>616.421</ele>
        <time>2019-09-30T13:44:15Z</time>
      </trkpt>
      <trkpt lat="45.85616" lon="4.26233">
        <ele>615.564</ele>
        <time>2019-09-30T13:44:20Z</time>
      </trkpt>
      <trkpt lat="45.85616" lon="4.26233">
        <ele>615.216</ele>
        <time>2019-09-30T13:44:26Z</time>
      </trkpt>
      <trkpt lat="45.85616" lon="4.26233">
        <ele>615.298</ele>
        <time>2019-09-30T13:44:31Z</time>
      </trkpt>
      <trkpt lat="45.85616" lon="4.26233">
        <ele>615.202</ele>
        <time>2019-09-30T13:44:36Z</time>
      </trkpt>
      <trkpt lat="45.85616" lon="4.26233">
        <ele>615.354</ele>
        <time>2019-09-30T13:44:42Z</time>
      </trkpt>
      <trkpt lat="45.85616" lon="4.26233">
        <ele>615.215</ele>
        <time>2019-09-30T13:44:47Z</time>
      </trkpt>
      <trkpt lat="45.85616" lon="4.26233">
        <ele>615.233</ele>
        <time>2019-09-30T13:44:53Z</time>
      </trkpt>
      <trkpt lat="45.85616" lon="4.26233">
        <ele>615.226</ele>
        <time>2019-09-30T13:44:59Z</time>
      </trkpt>
      <trkpt lat="45.85616" lon="4.26233">
        <ele>615.012</ele>
        <time>2019-09-30T13:45:05Z</time>
      </trkpt>
      <trkpt lat="45.85616" lon="4.26233">
        <ele>615.172</ele>
        <time>2019-09-30T13:45:11Z</time>
      </trkpt>
      <trkpt lat="45.85616" lon="4.26231">
        <ele>615.109</ele>
        <time>2019-09-30T13:45:16Z</time>
      </trkpt>
      <trkpt lat="45.85616" lon="4.26231">
        <ele>615.246</ele>
        <time>2019-09-30T13:45:21Z</time>
      </trkpt>
      <trkpt lat="45.8561" lon="4.26235">
        <ele>615.797</ele>
        <time>2019-09-30T13:45:27Z</time>
      </trkpt>
      <trkpt lat="45.85606" lon="4.26238">
        <ele>614.836</ele>
        <time>2019-09-30T13:45:33Z</time>
      </trkpt>
      <trkpt lat="45.85602" lon="4.26241">
        <ele>615.642</ele>
        <time>2019-09-30T13:45:38Z</time>
      </trkpt>
      <trkpt lat="45.85597" lon="4.26242">
        <ele>616.32</ele>
        <time>2019-09-30T13:45:44Z</time>
      </trkpt>
      <trkpt lat="45.85591" lon="4.26243">
        <ele>613.14</ele>
        <time>2019-09-30T13:45:49Z</time>
      </trkpt>
      <trkpt lat="45.85583" lon="4.26244">
        <ele>613.403</ele>
        <time>2019-09-30T13:45:54Z</time>
      </trkpt>
      <trkpt lat="45.85574" lon="4.26243">
        <ele>614.992</ele>
        <time>2019-09-30T13:46:00Z</time>
      </trkpt>
      <trkpt lat="45.85567" lon="4.26241">
        <ele>615.568</ele>
        <time>2019-09-30T13:46:05Z</time>
      </trkpt>
      <trkpt lat="45.85559" lon="4.26239">
        <ele>615.743</ele>
        <time>2019-09-30T13:46:11Z</time>
      </trkpt>
      <trkpt lat="45.85555" lon="4.26237">
        <ele>617.197</ele>
        <time>2019-09-30T13:46:16Z</time>
      </trkpt>
      <trkpt lat="45.85547" lon="4.26235">
        <ele>615.166</ele>
        <time>2019-09-30T13:46:22Z</time>
      </trkpt>
      <trkpt lat="45.8554" lon="4.26234">
        <ele>614.852</ele>
        <time>2019-09-30T13:46:27Z</time>
      </trkpt>
      <trkpt lat="45.85536" lon="4.2623">
        <ele>615.287</ele>
        <time>2019-09-30T13:46:33Z</time>
      </trkpt>
      <trkpt lat="45.85532" lon="4.26226">
        <ele>615.546</ele>
        <time>2019-09-30T13:46:39Z</time>
      </trkpt>
      <trkpt lat="45.85525" lon="4.26218">
        <ele>615.46</ele>
        <time>2019-09-30T13:46:45Z</time>
      </trkpt>
      <trkpt lat="45.8552" lon="4.26212">
        <ele>615.183</ele>
        <time>2019-09-30T13:46:51Z</time>
      </trkpt>
      <trkpt lat="45.85513" lon="4.26206">
        <ele>616.502</ele>
        <time>2019-09-30T13:46:56Z</time>
      </trkpt>
      <trkpt lat="45.85509" lon="4.26198">
        <ele>618.236</ele>
        <time>2019-09-30T13:47:02Z</time>
      </trkpt>
      <trkpt lat="45.85506" lon="4.26191">
        <ele>619.623</ele>
        <time>2019-09-30T13:47:07Z</time>
      </trkpt>
      <trkpt lat="45.85503" lon="4.26187">
        <ele>619.571</ele>
        <time>2019-09-30T13:47:13Z</time>
      </trkpt>
      <trkpt lat="45.85501" lon="4.26185">
        <ele>620.402</ele>
        <time>2019-09-30T13:47:18Z</time>
      </trkpt>
      <trkpt lat="45.85495" lon="4.26176">
        <ele>619.487</ele>
        <time>2019-09-30T13:47:23Z</time>
      </trkpt>
      <trkpt lat="45.8549" lon="4.26166">
        <ele>617.552</ele>
        <time>2019-09-30T13:47:28Z</time>
      </trkpt>
      <trkpt lat="45.85484" lon="4.26155">
        <ele>616.756</ele>
        <time>2019-09-30T13:47:33Z</time>
      </trkpt>
      <trkpt lat="45.85481" lon="4.26144">
        <ele>615.311</ele>
        <time>2019-09-30T13:47:39Z</time>
      </trkpt>
      <trkpt lat="45.85478" lon="4.26135">
        <ele>616.873</ele>
        <time>2019-09-30T13:47:44Z</time>
      </trkpt>
      <trkpt lat="45.85475" lon="4.26131">
        <ele>616.032</ele>
        <time>2019-09-30T13:47:49Z</time>
      </trkpt>
      <trkpt lat="45.85473" lon="4.26124">
        <ele>614.995</ele>
        <time>2019-09-30T13:47:55Z</time>
      </trkpt>
      <trkpt lat="45.85474" lon="4.26119">
        <ele>614.204</ele>
        <time>2019-09-30T13:48:01Z</time>
      </trkpt>
      <trkpt lat="45.85474" lon="4.2611">
        <ele>617.188</ele>
        <time>2019-09-30T13:48:06Z</time>
      </trkpt>
      <trkpt lat="45.85474" lon="4.26108">
        <ele>616.612</ele>
        <time>2019-09-30T13:48:12Z</time>
      </trkpt>
      <trkpt lat="45.85474" lon="4.26106">
        <ele>617.238</ele>
        <time>2019-09-30T13:48:18Z</time>
      </trkpt>
      <trkpt lat="45.85474" lon="4.26103">
        <ele>620.101</ele>
        <time>2019-09-30T13:48:23Z</time>
      </trkpt>
      <trkpt lat="45.85475" lon="4.26104">
        <ele>619.149</ele>
        <time>2019-09-30T13:48:29Z</time>
      </trkpt>
      <trkpt lat="45.85475" lon="4.26104">
        <ele>619.528</ele>
        <time>2019-09-30T13:48:34Z</time>
      </trkpt>
      <trkpt lat="45.85475" lon="4.26104">
        <ele>619.651</ele>
        <time>2019-09-30T13:48:40Z</time>
      </trkpt>
      <trkpt lat="45.85475" lon="4.26103">
        <ele>619.883</ele>
        <time>2019-09-30T13:48:45Z</time>
      </trkpt>
      <trkpt lat="45.85475" lon="4.26103">
        <ele>619.917</ele>
        <time>2019-09-30T13:48:50Z</time>
      </trkpt>
      <trkpt lat="45.85474" lon="4.26101">
        <ele>619.7</ele>
        <time>2019-09-30T13:48:56Z</time>
      </trkpt>
      <trkpt lat="45.85472" lon="4.26099">
        <ele>619.634</ele>
        <time>2019-09-30T13:49:02Z</time>
      </trkpt>
      <trkpt lat="45.85472" lon="4.26098">
        <ele>619.97</ele>
        <time>2019-09-30T13:49:07Z</time>
      </trkpt>
      <trkpt lat="45.85472" lon="4.26097">
        <ele>619.887</ele>
        <time>2019-09-30T13:49:12Z</time>
      </trkpt>
      <trkpt lat="45.85473" lon="4.26095">
        <ele>620.29</ele>
        <time>2019-09-30T13:49:18Z</time>
      </trkpt>
      <trkpt lat="45.85472" lon="4.26093">
        <ele>621.113</ele>
        <time>2019-09-30T13:49:24Z</time>
      </trkpt>
      <trkpt lat="45.85472" lon="4.26093">
        <ele>621.274</ele>
        <time>2019-09-30T13:49:29Z</time>
      </trkpt>
      <trkpt lat="45.85472" lon="4.26092">
        <ele>623.689</ele>
        <time>2019-09-30T13:49:34Z</time>
      </trkpt>
      <trkpt lat="45.85473" lon="4.26088">
        <ele>623.103</ele>
        <time>2019-09-30T13:49:40Z</time>
      </trkpt>
      <trkpt lat="45.85473" lon="4.26083">
        <ele>623.286</ele>
        <time>2019-09-30T13:49:46Z</time>
      </trkpt>
      <trkpt lat="45.85473" lon="4.2608">
        <ele>623.297</ele>
        <time>2019-09-30T13:49:52Z</time>
      </trkpt>
      <trkpt lat="45.85474" lon="4.26074">
        <ele>623.482</ele>
        <time>2019-09-30T13:49:57Z</time>
      </trkpt>
      <trkpt lat="45.85475" lon="4.26068">
        <ele>622.358</ele>
        <time>2019-09-30T13:50:03Z</time>
      </trkpt>
      <trkpt lat="45.85475" lon="4.26057">
        <ele>623.164</ele>
        <time>2019-09-30T13:50:09Z</time>
      </trkpt>
      <trkpt lat="45.85475" lon="4.26048">
        <ele>621.677</ele>
        <time>2019-09-30T13:50:14Z</time>
      </trkpt>
      <trkpt lat="45.85475" lon="4.26039">
        <ele>621.863</ele>
        <time>2019-09-30T13:50:20Z</time>
      </trkpt>
      <trkpt lat="45.85475" lon="4.2603">
        <ele>623.86</ele>
        <time>2019-09-30T13:50:26Z</time>
      </trkpt>
      <trkpt lat="45.85475" lon="4.26024">
        <ele>623.953</ele>
        <time>2019-09-30T13:50:31Z</time>
      </trkpt>
      <trkpt lat="45.85476" lon="4.26016">
        <ele>624.8</ele>
        <time>2019-09-30T13:50:36Z</time>
      </trkpt>
      <trkpt lat="45.85477" lon="4.26007">
        <ele>624.736</ele>
        <time>2019-09-30T13:50:42Z</time>
      </trkpt>
      <trkpt lat="45.85476" lon="4.25998">
        <ele>624.622</ele>
        <time>2019-09-30T13:50:48Z</time>
      </trkpt>
      <trkpt lat="45.85475" lon="4.25992">
        <ele>624.847</ele>
        <time>2019-09-30T13:50:53Z</time>
      </trkpt>
      <trkpt lat="45.85473" lon="4.25986">
        <ele>625.204</ele>
        <time>2019-09-30T13:50:59Z</time>
      </trkpt>
      <trkpt lat="45.85471" lon="4.25976">
        <ele>625.604</ele>
        <time>2019-09-30T13:51:05Z</time>
      </trkpt>
      <trkpt lat="45.85469" lon="4.2597">
        <ele>625.976</ele>
        <time>2019-09-30T13:51:11Z</time>
      </trkpt>
      <trkpt lat="45.85469" lon="4.25964">
        <ele>626.125</ele>
        <time>2019-09-30T13:51:16Z</time>
      </trkpt>
      <trkpt lat="45.85467" lon="4.25956">
        <ele>627.273</ele>
        <time>2019-09-30T13:51:22Z</time>
      </trkpt>
      <trkpt lat="45.85464" lon="4.25949">
        <ele>626.571</ele>
        <time>2019-09-30T13:51:28Z</time>
      </trkpt>
      <trkpt lat="45.85464" lon="4.25942">
        <ele>626.745</ele>
        <time>2019-09-30T13:51:34Z</time>
      </trkpt>
      <trkpt lat="45.8546" lon="4.25935">
        <ele>627.745</ele>
        <time>2019-09-30T13:51:40Z</time>
      </trkpt>
      <trkpt lat="45.85458" lon="4.2593">
        <ele>628.357</ele>
        <time>2019-09-30T13:51:46Z</time>
      </trkpt>
      <trkpt lat="45.85456" lon="4.25926">
        <ele>627.338</ele>
        <time>2019-09-30T13:51:51Z</time>
      </trkpt>
      <trkpt lat="45.85454" lon="4.25917">
        <ele>627.442</ele>
        <time>2019-09-30T13:51:57Z</time>
      </trkpt>
      <trkpt lat="45.85451" lon="4.25911">
        <ele>627.654</ele>
        <time>2019-09-30T13:52:02Z</time>
      </trkpt>
      <trkpt lat="45.85449" lon="4.25906">
        <ele>627.599</ele>
        <time>2019-09-30T13:52:07Z</time>
      </trkpt>
      <trkpt lat="45.85446" lon="4.25897">
        <ele>629.265</ele>
        <time>2019-09-30T13:52:13Z</time>
      </trkpt>
      <trkpt lat="45.85443" lon="4.25895">
        <ele>628.438</ele>
        <time>2019-09-30T13:52:18Z</time>
      </trkpt>
      <trkpt lat="45.8544" lon="4.25895">
        <ele>628.401</ele>
        <time>2019-09-30T13:52:24Z</time>
      </trkpt>
      <trkpt lat="45.8544" lon="4.25893">
        <ele>629.203</ele>
        <time>2019-09-30T13:52:29Z</time>
      </trkpt>
      <trkpt lat="45.85439" lon="4.25891">
        <ele>630.167</ele>
        <time>2019-09-30T13:52:35Z</time>
      </trkpt>
      <trkpt lat="45.8544" lon="4.2589">
        <ele>630.247</ele>
        <time>2019-09-30T13:52:41Z</time>
      </trkpt>
      <trkpt lat="45.85439" lon="4.25887">
        <ele>603.259</ele>
        <time>2019-09-30T13:52:47Z</time>
      </trkpt>
      <trkpt lat="45.85435" lon="4.25884">
        <ele>599.679</ele>
        <time>2019-09-30T13:52:52Z</time>
      </trkpt>
      <trkpt lat="45.85432" lon="4.25889">
        <ele>603.973</ele>
        <time>2019-09-30T13:52:58Z</time>
      </trkpt>
      <trkpt lat="45.85429" lon="4.25891">
        <ele>607.486</ele>
        <time>2019-09-30T13:53:03Z</time>
      </trkpt>
      <trkpt lat="45.85424" lon="4.25895">
        <ele>607.292</ele>
        <time>2019-09-30T13:53:09Z</time>
      </trkpt>
      <trkpt lat="45.8542" lon="4.25899">
        <ele>615.287</ele>
        <time>2019-09-30T13:53:14Z</time>
      </trkpt>
      <trkpt lat="45.85413" lon="4.25903">
        <ele>616.37</ele>
        <time>2019-09-30T13:53:20Z</time>
      </trkpt>
      <trkpt lat="45.85408" lon="4.25907">
        <ele>615.562</ele>
        <time>2019-09-30T13:53:25Z</time>
      </trkpt>
      <trkpt lat="45.85402" lon="4.25908">
        <ele>617.771</ele>
        <time>2019-09-30T13:53:30Z</time>
      </trkpt>
      <trkpt lat="45.85396" lon="4.2591">
        <ele>607.424</ele>
        <time>2019-09-30T13:53:35Z</time>
      </trkpt>
      <trkpt lat="45.8539" lon="4.25913">
        <ele>605.271</ele>
        <time>2019-09-30T13:53:41Z</time>
      </trkpt>
      <trkpt lat="45.85386" lon="4.25913">
        <ele>607.892</ele>
        <time>2019-09-30T13:53:46Z</time>
      </trkpt>
      <trkpt lat="45.85382" lon="4.25914">
        <ele>618.209</ele>
        <time>2019-09-30T13:53:51Z</time>
      </trkpt>
      <trkpt lat="45.85377" lon="4.25917">
        <ele>604.052</ele>
        <time>2019-09-30T13:53:57Z</time>
      </trkpt>
      <trkpt lat="45.85372" lon="4.25917">
        <ele>603.728</ele>
        <time>2019-09-30T13:54:02Z</time>
      </trkpt>
      <trkpt lat="45.85366" lon="4.25919">
        <ele>608.282</ele>
        <time>2019-09-30T13:54:07Z</time>
      </trkpt>
      <trkpt lat="45.85365" lon="4.25919">
        <ele>598.407</ele>
        <time>2019-09-30T13:54:13Z</time>
      </trkpt>
      <trkpt lat="45.8536" lon="4.2592">
        <ele>601.696</ele>
        <time>2019-09-30T13:54:18Z</time>
      </trkpt>
      <trkpt lat="45.85354" lon="4.25923">
        <ele>598.956</ele>
        <time>2019-09-30T13:54:23Z</time>
      </trkpt>
      <trkpt lat="45.85348" lon="4.25925">
        <ele>602.98</ele>
        <time>2019-09-30T13:54:29Z</time>
      </trkpt>
      <trkpt lat="45.85342" lon="4.25925">
        <ele>608.904</ele>
        <time>2019-09-30T13:54:34Z</time>
      </trkpt>
      <trkpt lat="45.85339" lon="4.25925">
        <ele>603.52</ele>
        <time>2019-09-30T13:54:39Z</time>
      </trkpt>
      <trkpt lat="45.85338" lon="4.25927">
        <ele>606.719</ele>
        <time>2019-09-30T13:54:44Z</time>
      </trkpt>
      <trkpt lat="45.85333" lon="4.25926">
        <ele>609.273</ele>
        <time>2019-09-30T13:54:49Z</time>
      </trkpt>
      <trkpt lat="45.85327" lon="4.2593">
        <ele>602.333</ele>
        <time>2019-09-30T13:54:55Z</time>
      </trkpt>
      <trkpt lat="45.85321" lon="4.25931">
        <ele>599.564</ele>
        <time>2019-09-30T13:55:00Z</time>
      </trkpt>
      <trkpt lat="45.85314" lon="4.25929">
        <ele>604.575</ele>
        <time>2019-09-30T13:55:06Z</time>
      </trkpt>
      <trkpt lat="45.85306" lon="4.25926">
        <ele>613.829</ele>
        <time>2019-09-30T13:55:12Z</time>
      </trkpt>
      <trkpt lat="45.85298" lon="4.25925">
        <ele>607.059</ele>
        <time>2019-09-30T13:55:18Z</time>
      </trkpt>
      <trkpt lat="45.85294" lon="4.25923">
        <ele>607.221</ele>
        <time>2019-09-30T13:55:23Z</time>
      </trkpt>
      <trkpt lat="45.85287" lon="4.25922">
        <ele>604.129</ele>
        <time>2019-09-30T13:55:28Z</time>
      </trkpt>
      <trkpt lat="45.85281" lon="4.25922">
        <ele>603.83</ele>
        <time>2019-09-30T13:55:34Z</time>
      </trkpt>
      <trkpt lat="45.85274" lon="4.25918">
        <ele>601.474</ele>
        <time>2019-09-30T13:55:40Z</time>
      </trkpt>
      <trkpt lat="45.85269" lon="4.25916">
        <ele>602.031</ele>
        <time>2019-09-30T13:55:45Z</time>
      </trkpt>
      <trkpt lat="45.85262" lon="4.25915">
        <ele>615.141</ele>
        <time>2019-09-30T13:55:51Z</time>
      </trkpt>
      <trkpt lat="45.85255" lon="4.25912">
        <ele>619.707</ele>
        <time>2019-09-30T13:55:57Z</time>
      </trkpt>
      <trkpt lat="45.85252" lon="4.2591">
        <ele>621.904</ele>
        <time>2019-09-30T13:56:02Z</time>
      </trkpt>
      <trkpt lat="45.85245" lon="4.25909">
        <ele>617.548</ele>
        <time>2019-09-30T13:56:07Z</time>
      </trkpt>
      <trkpt lat="45.85238" lon="4.25907">
        <ele>620.276</ele>
        <time>2019-09-30T13:56:13Z</time>
      </trkpt>
      <trkpt lat="45.85231" lon="4.25904">
        <ele>611.409</ele>
        <time>2019-09-30T13:56:18Z</time>
      </trkpt>
      <trkpt lat="45.85227" lon="4.25903">
        <ele>610.393</ele>
        <time>2019-09-30T13:56:23Z</time>
      </trkpt>
      <trkpt lat="45.85219" lon="4.25903">
        <ele>613.195</ele>
        <time>2019-09-30T13:56:28Z</time>
      </trkpt>
      <trkpt lat="45.85213" lon="4.25903">
        <ele>612.735</ele>
        <time>2019-09-30T13:56:34Z</time>
      </trkpt>
      <trkpt lat="45.85206" lon="4.25903">
        <ele>610.09</ele>
        <time>2019-09-30T13:56:40Z</time>
      </trkpt>
      <trkpt lat="45.85201" lon="4.25902">
        <ele>608.031</ele>
        <time>2019-09-30T13:56:45Z</time>
      </trkpt>
      <trkpt lat="45.85193" lon="4.25905">
        <ele>603.205</ele>
        <time>2019-09-30T13:56:51Z</time>
      </trkpt>
      <trkpt lat="45.85187" lon="4.25902">
        <ele>601.455</ele>
        <time>2019-09-30T13:56:56Z</time>
      </trkpt>
      <trkpt lat="45.85179" lon="4.25899">
        <ele>612.55</ele>
        <time>2019-09-30T13:57:02Z</time>
      </trkpt>
      <trkpt lat="45.85171" lon="4.25895">
        <ele>614.238</ele>
        <time>2019-09-30T13:57:08Z</time>
      </trkpt>
      <trkpt lat="45.85164" lon="4.25894">
        <ele>613.256</ele>
        <time>2019-09-30T13:57:13Z</time>
      </trkpt>
      <trkpt lat="45.85156" lon="4.25891">
        <ele>613.537</ele>
        <time>2019-09-30T13:57:18Z</time>
      </trkpt>
      <trkpt lat="45.8515" lon="4.25887">
        <ele>610.747</ele>
        <time>2019-09-30T13:57:24Z</time>
      </trkpt>
      <trkpt lat="45.85142" lon="4.25886">
        <ele>622.405</ele>
        <time>2019-09-30T13:57:30Z</time>
      </trkpt>
      <trkpt lat="45.85136" lon="4.25884">
        <ele>625.854</ele>
        <time>2019-09-30T13:57:35Z</time>
      </trkpt>
      <trkpt lat="45.85128" lon="4.25879">
        <ele>621.183</ele>
        <time>2019-09-30T13:57:41Z</time>
      </trkpt>
      <trkpt lat="45.85119" lon="4.25875">
        <ele>616.728</ele>
        <time>2019-09-30T13:57:47Z</time>
      </trkpt>
      <trkpt lat="45.8511" lon="4.25874">
        <ele>601.02</ele>
        <time>2019-09-30T13:57:53Z</time>
      </trkpt>
      <trkpt lat="45.85103" lon="4.25873">
        <ele>607.238</ele>
        <time>2019-09-30T13:57:58Z</time>
      </trkpt>
      <trkpt lat="45.85095" lon="4.25871">
        <ele>606.046</ele>
        <time>2019-09-30T13:58:04Z</time>
      </trkpt>
      <trkpt lat="45.8509" lon="4.25873">
        <ele>600.304</ele>
        <time>2019-09-30T13:58:10Z</time>
      </trkpt>
      <trkpt lat="45.85084" lon="4.25874">
        <ele>593.069</ele>
        <time>2019-09-30T13:58:16Z</time>
      </trkpt>
      <trkpt lat="45.85081" lon="4.25872">
        <ele>593.719</ele>
        <time>2019-09-30T13:58:22Z</time>
      </trkpt>
      <trkpt lat="45.8508" lon="4.25873">
        <ele>601.294</ele>
        <time>2019-09-30T13:58:27Z</time>
      </trkpt>
      <trkpt lat="45.85074" lon="4.25871">
        <ele>599.34</ele>
        <time>2019-09-30T13:58:32Z</time>
      </trkpt>
      <trkpt lat="45.85063" lon="4.25869">
        <ele>596.463</ele>
        <time>2019-09-30T13:58:38Z</time>
      </trkpt>
      <trkpt lat="45.85055" lon="4.25867">
        <ele>592.79</ele>
        <time>2019-09-30T13:58:44Z</time>
      </trkpt>
      <trkpt lat="45.85046" lon="4.25863">
        <ele>591.199</ele>
        <time>2019-09-30T13:58:50Z</time>
      </trkpt>
      <trkpt lat="45.85035" lon="4.25858">
        <ele>596.774</ele>
        <time>2019-09-30T13:58:56Z</time>
      </trkpt>
      <trkpt lat="45.85024" lon="4.25856">
        <ele>592.642</ele>
        <time>2019-09-30T13:59:02Z</time>
      </trkpt>
      <trkpt lat="45.85016" lon="4.25851">
        <ele>598.212</ele>
        <time>2019-09-30T13:59:08Z</time>
      </trkpt>
      <trkpt lat="45.85007" lon="4.25849">
        <ele>603.396</ele>
        <time>2019-09-30T13:59:14Z</time>
      </trkpt>
      <trkpt lat="45.84999" lon="4.25847">
        <ele>606.384</ele>
        <time>2019-09-30T13:59:19Z</time>
      </trkpt>
      <trkpt lat="45.84989" lon="4.25844">
        <ele>617.77</ele>
        <time>2019-09-30T13:59:25Z</time>
      </trkpt>
      <trkpt lat="45.84982" lon="4.25841">
        <ele>618.227</ele>
        <time>2019-09-30T13:59:30Z</time>
      </trkpt>
      <trkpt lat="45.84978" lon="4.2584">
        <ele>613.719</ele>
        <time>2019-09-30T13:59:36Z</time>
      </trkpt>
      <trkpt lat="45.84971" lon="4.25839">
        <ele>621.82</ele>
        <time>2019-09-30T13:59:42Z</time>
      </trkpt>
      <trkpt lat="45.84963" lon="4.25842">
        <ele>617.448</ele>
        <time>2019-09-30T13:59:48Z</time>
      </trkpt>
      <trkpt lat="45.84956" lon="4.25843">
        <ele>604.872</ele>
        <time>2019-09-30T13:59:54Z</time>
      </trkpt>
      <trkpt lat="45.84951" lon="4.25845">
        <ele>601.753</ele>
        <time>2019-09-30T13:59:59Z</time>
      </trkpt>
      <trkpt lat="45.84944" lon="4.25849">
        <ele>605.533</ele>
        <time>2019-09-30T14:00:04Z</time>
      </trkpt>
      <trkpt lat="45.84937" lon="4.25851">
        <ele>604.904</ele>
        <time>2019-09-30T14:00:09Z</time>
      </trkpt>
      <trkpt lat="45.84929" lon="4.25853">
        <ele>600.927</ele>
        <time>2019-09-30T14:00:15Z</time>
      </trkpt>
      <trkpt lat="45.8492" lon="4.25857">
        <ele>600.534</ele>
        <time>2019-09-30T14:00:20Z</time>
      </trkpt>
      <trkpt lat="45.84911" lon="4.2586">
        <ele>599.692</ele>
        <time>2019-09-30T14:00:26Z</time>
      </trkpt>
      <trkpt lat="45.84905" lon="4.25867">
        <ele>592.158</ele>
        <time>2019-09-30T14:00:32Z</time>
      </trkpt>
      <trkpt lat="45.84897" lon="4.25871">
        <ele>641.214</ele>
        <time>2019-09-30T14:00:38Z</time>
      </trkpt>
      <trkpt lat="45.8489" lon="4.25868">
        <ele>642.345</ele>
        <time>2019-09-30T14:00:43Z</time>
      </trkpt>
      <trkpt lat="45.84884" lon="4.2586">
        <ele>643.209</ele>
        <time>2019-09-30T14:00:49Z</time>
      </trkpt>
      <trkpt lat="45.84883" lon="4.2585">
        <ele>596.298</ele>
        <time>2019-09-30T14:00:54Z</time>
      </trkpt>
      <trkpt lat="45.84887" lon="4.2584">
        <ele>602.313</ele>
        <time>2019-09-30T14:00:59Z</time>
      </trkpt>
      <trkpt lat="45.84892" lon="4.25833">
        <ele>602.295</ele>
        <time>2019-09-30T14:01:05Z</time>
      </trkpt>
      <trkpt lat="45.84894" lon="4.25825">
        <ele>610.679</ele>
        <time>2019-09-30T14:01:10Z</time>
      </trkpt>
      <trkpt lat="45.84893" lon="4.25812">
        <ele>609.151</ele>
        <time>2019-09-30T14:01:15Z</time>
      </trkpt>
      <trkpt lat="45.84895" lon="4.25804">
        <ele>612.792</ele>
        <time>2019-09-30T14:01:20Z</time>
      </trkpt>
      <trkpt lat="45.84897" lon="4.25799">
        <ele>609.529</ele>
        <time>2019-09-30T14:01:26Z</time>
      </trkpt>
      <trkpt lat="45.84901" lon="4.25792">
        <ele>616.941</ele>
        <time>2019-09-30T14:01:31Z</time>
      </trkpt>
      <trkpt lat="45.84905" lon="4.25782">
        <ele>617.38</ele>
        <time>2019-09-30T14:01:37Z</time>
      </trkpt>
      <trkpt lat="45.84907" lon="4.25773">
        <ele>600.012</ele>
        <time>2019-09-30T14:01:43Z</time>
      </trkpt>
      <trkpt lat="45.84908" lon="4.25765">
        <ele>603.596</ele>
        <time>2019-09-30T14:01:48Z</time>
      </trkpt>
      <trkpt lat="45.84909" lon="4.25751">
        <ele>603.741</ele>
        <time>2019-09-30T14:01:54Z</time>
      </trkpt>
      <trkpt lat="45.84912" lon="4.25739">
        <ele>618.575</ele>
        <time>2019-09-30T14:02:00Z</time>
      </trkpt>
      <trkpt lat="45.84914" lon="4.25732">
        <ele>618.72</ele>
        <time>2019-09-30T14:02:05Z</time>
      </trkpt>
      <trkpt lat="45.84917" lon="4.25722">
        <ele>605.736</ele>
        <time>2019-09-30T14:02:11Z</time>
      </trkpt>
      <trkpt lat="45.8492" lon="4.25711">
        <ele>610.552</ele>
        <time>2019-09-30T14:02:17Z</time>
      </trkpt>
      <trkpt lat="45.84921" lon="4.25703">
        <ele>609.788</ele>
        <time>2019-09-30T14:02:23Z</time>
      </trkpt>
      <trkpt lat="45.84924" lon="4.25691">
        <ele>601.061</ele>
        <time>2019-09-30T14:02:29Z</time>
      </trkpt>
      <trkpt lat="45.84925" lon="4.25682">
        <ele>609.453</ele>
        <time>2019-09-30T14:02:35Z</time>
      </trkpt>
      <trkpt lat="45.84927" lon="4.25675">
        <ele>610.359</ele>
        <time>2019-09-30T14:02:40Z</time>
      </trkpt>
      <trkpt lat="45.84929" lon="4.25665">
        <ele>598.162</ele>
        <time>2019-09-30T14:02:46Z</time>
      </trkpt>
      <trkpt lat="45.84932" lon="4.25656">
        <ele>597.212</ele>
        <time>2019-09-30T14:02:52Z</time>
      </trkpt>
      <trkpt lat="45.84935" lon="4.2564">
        <ele>596.252</ele>
        <time>2019-09-30T14:02:58Z</time>
      </trkpt>
      <trkpt lat="45.84937" lon="4.25628">
        <ele>601.034</ele>
        <time>2019-09-30T14:03:03Z</time>
      </trkpt>
      <trkpt lat="45.84938" lon="4.25615">
        <ele>613.307</ele>
        <time>2019-09-30T14:03:09Z</time>
      </trkpt>
      <trkpt lat="45.84942" lon="4.25605">
        <ele>617.201</ele>
        <time>2019-09-30T14:03:15Z</time>
      </trkpt>
      <trkpt lat="45.84944" lon="4.25596">
        <ele>619.362</ele>
        <time>2019-09-30T14:03:20Z</time>
      </trkpt>
      <trkpt lat="45.84947" lon="4.25586">
        <ele>620.618</ele>
        <time>2019-09-30T14:03:26Z</time>
      </trkpt>
      <trkpt lat="45.84949" lon="4.25578">
        <ele>616.808</ele>
        <time>2019-09-30T14:03:32Z</time>
      </trkpt>
      <trkpt lat="45.84952" lon="4.2557">
        <ele>614.169</ele>
        <time>2019-09-30T14:03:37Z</time>
      </trkpt>
      <trkpt lat="45.84954" lon="4.25556">
        <ele>613.105</ele>
        <time>2019-09-30T14:03:43Z</time>
      </trkpt>
      <trkpt lat="45.84957" lon="4.25545">
        <ele>609.24</ele>
        <time>2019-09-30T14:03:49Z</time>
      </trkpt>
      <trkpt lat="45.84956" lon="4.25537">
        <ele>626.854</ele>
        <time>2019-09-30T14:03:54Z</time>
      </trkpt>
      <trkpt lat="45.84959" lon="4.25526">
        <ele>625.943</ele>
        <time>2019-09-30T14:03:59Z</time>
      </trkpt>
      <trkpt lat="45.84962" lon="4.25512">
        <ele>626.081</ele>
        <time>2019-09-30T14:04:05Z</time>
      </trkpt>
      <trkpt lat="45.84965" lon="4.25502">
        <ele>625.293</ele>
        <time>2019-09-30T14:04:11Z</time>
      </trkpt>
      <trkpt lat="45.84967" lon="4.25493">
        <ele>623.953</ele>
        <time>2019-09-30T14:04:16Z</time>
      </trkpt>
      <trkpt lat="45.84971" lon="4.25483">
        <ele>592.206</ele>
        <time>2019-09-30T14:04:22Z</time>
      </trkpt>
      <trkpt lat="45.84974" lon="4.25473">
        <ele>591.346</ele>
        <time>2019-09-30T14:04:28Z</time>
      </trkpt>
      <trkpt lat="45.84977" lon="4.25463">
        <ele>595.331</ele>
        <time>2019-09-30T14:04:33Z</time>
      </trkpt>
      <trkpt lat="45.84979" lon="4.25451">
        <ele>594.356</ele>
        <time>2019-09-30T14:04:39Z</time>
      </trkpt>
      <trkpt lat="45.8498" lon="4.25442">
        <ele>601.799</ele>
        <time>2019-09-30T14:04:44Z</time>
      </trkpt>
      <trkpt lat="45.84982" lon="4.25431">
        <ele>602.308</ele>
        <time>2019-09-30T14:04:50Z</time>
      </trkpt>
      <trkpt lat="45.84984" lon="4.25421">
        <ele>600.961</ele>
        <time>2019-09-30T14:04:55Z</time>
      </trkpt>
      <trkpt lat="45.84984" lon="4.25407">
        <ele>599.128</ele>
        <time>2019-09-30T14:05:01Z</time>
      </trkpt>
      <trkpt lat="45.84982" lon="4.25396">
        <ele>606.378</ele>
        <time>2019-09-30T14:05:07Z</time>
      </trkpt>
      <trkpt lat="45.84979" lon="4.25387">
        <ele>620.77</ele>
        <time>2019-09-30T14:05:13Z</time>
      </trkpt>
      <trkpt lat="45.84976" lon="4.25376">
        <ele>619.34</ele>
        <time>2019-09-30T14:05:19Z</time>
      </trkpt>
      <trkpt lat="45.84973" lon="4.25367">
        <ele>618.355</ele>
        <time>2019-09-30T14:05:25Z</time>
      </trkpt>
      <trkpt lat="45.84967" lon="4.25357">
        <ele>616.782</ele>
        <time>2019-09-30T14:05:31Z</time>
      </trkpt>
      <trkpt lat="45.84963" lon="4.25348">
        <ele>616.176</ele>
        <time>2019-09-30T14:05:36Z</time>
      </trkpt>
      <trkpt lat="45.84959" lon="4.25338">
        <ele>616.17</ele>
        <time>2019-09-30T14:05:42Z</time>
      </trkpt>
      <trkpt lat="45.84956" lon="4.25329">
        <ele>616.399</ele>
        <time>2019-09-30T14:05:47Z</time>
      </trkpt>
      <trkpt lat="45.84953" lon="4.25322">
        <ele>616.271</ele>
        <time>2019-09-30T14:05:52Z</time>
      </trkpt>
      <trkpt lat="45.8495" lon="4.25312">
        <ele>594.319</ele>
        <time>2019-09-30T14:05:58Z</time>
      </trkpt>
      <trkpt lat="45.84947" lon="4.25303">
        <ele>589.983</ele>
        <time>2019-09-30T14:06:04Z</time>
      </trkpt>
      <trkpt lat="45.84942" lon="4.25295">
        <ele>590.986</ele>
        <time>2019-09-30T14:06:09Z</time>
      </trkpt>
      <trkpt lat="45.84937" lon="4.25283">
        <ele>594.508</ele>
        <time>2019-09-30T14:06:15Z</time>
      </trkpt>
      <trkpt lat="45.84934" lon="4.25272">
        <ele>595.476</ele>
        <time>2019-09-30T14:06:21Z</time>
      </trkpt>
      <trkpt lat="45.84931" lon="4.25263">
        <ele>592.083</ele>
        <time>2019-09-30T14:06:26Z</time>
      </trkpt>
      <trkpt lat="45.84929" lon="4.25254">
        <ele>592.191</ele>
        <time>2019-09-30T14:06:31Z</time>
      </trkpt>
      <trkpt lat="45.84925" lon="4.25244">
        <ele>591.27</ele>
        <time>2019-09-30T14:06:37Z</time>
      </trkpt>
      <trkpt lat="45.84924" lon="4.25235">
        <ele>587.726</ele>
        <time>2019-09-30T14:06:43Z</time>
      </trkpt>
      <trkpt lat="45.84921" lon="4.25226">
        <ele>591.125</ele>
        <time>2019-09-30T14:06:48Z</time>
      </trkpt>
      <trkpt lat="45.84918" lon="4.25213">
        <ele>595.017</ele>
        <time>2019-09-30T14:06:54Z</time>
      </trkpt>
      <trkpt lat="45.84914" lon="4.25202">
        <ele>609.456</ele>
        <time>2019-09-30T14:07:00Z</time>
      </trkpt>
      <trkpt lat="45.8491" lon="4.25191">
        <ele>593.901</ele>
        <time>2019-09-30T14:07:06Z</time>
      </trkpt>
      <trkpt lat="45.84908" lon="4.25182">
        <ele>583.374</ele>
        <time>2019-09-30T14:07:12Z</time>
      </trkpt>
      <trkpt lat="45.84909" lon="4.25169">
        <ele>584.331</ele>
        <time>2019-09-30T14:07:18Z</time>
      </trkpt>
      <trkpt lat="45.84911" lon="4.25157">
        <ele>574.876</ele>
        <time>2019-09-30T14:07:24Z</time>
      </trkpt>
      <trkpt lat="45.84912" lon="4.25146">
        <ele>583.799</ele>
        <time>2019-09-30T14:07:30Z</time>
      </trkpt>
      <trkpt lat="45.84912" lon="4.25138">
        <ele>584.972</ele>
        <time>2019-09-30T14:07:35Z</time>
      </trkpt>
      <trkpt lat="45.84911" lon="4.25125">
        <ele>582.251</ele>
        <time>2019-09-30T14:07:41Z</time>
      </trkpt>
      <trkpt lat="45.8491" lon="4.25112">
        <ele>610.655</ele>
        <time>2019-09-30T14:07:47Z</time>
      </trkpt>
      <trkpt lat="45.84909" lon="4.25103">
        <ele>609.029</ele>
        <time>2019-09-30T14:07:52Z</time>
      </trkpt>
      <trkpt lat="45.84909" lon="4.25094">
        <ele>589.694</ele>
        <time>2019-09-30T14:07:58Z</time>
      </trkpt>
      <trkpt lat="45.84908" lon="4.25082">
        <ele>587.297</ele>
        <time>2019-09-30T14:08:04Z</time>
      </trkpt>
      <trkpt lat="45.84909" lon="4.25068">
        <ele>587.893</ele>
        <time>2019-09-30T14:08:10Z</time>
      </trkpt>
      <trkpt lat="45.84908" lon="4.25056">
        <ele>590.006</ele>
        <time>2019-09-30T14:08:16Z</time>
      </trkpt>
      <trkpt lat="45.84907" lon="4.25046">
        <ele>589.792</ele>
        <time>2019-09-30T14:08:21Z</time>
      </trkpt>
      <trkpt lat="45.84908" lon="4.25036">
        <ele>588.902</ele>
        <time>2019-09-30T14:08:27Z</time>
      </trkpt>
      <trkpt lat="45.84909" lon="4.25026">
        <ele>587.862</ele>
        <time>2019-09-30T14:08:32Z</time>
      </trkpt>
      <trkpt lat="45.84908" lon="4.25018">
        <ele>606.554</ele>
        <time>2019-09-30T14:08:38Z</time>
      </trkpt>
      <trkpt lat="45.84906" lon="4.25011">
        <ele>607.11</ele>
        <time>2019-09-30T14:08:43Z</time>
      </trkpt>
      <trkpt lat="45.84905" lon="4.25002">
        <ele>606.477</ele>
        <time>2019-09-30T14:08:49Z</time>
      </trkpt>
      <trkpt lat="45.84904" lon="4.24991">
        <ele>603.595</ele>
        <time>2019-09-30T14:08:55Z</time>
      </trkpt>
      <trkpt lat="45.84903" lon="4.24981">
        <ele>601.599</ele>
        <time>2019-09-30T14:09:01Z</time>
      </trkpt>
      <trkpt lat="45.84902" lon="4.24971">
        <ele>602.405</ele>
        <time>2019-09-30T14:09:06Z</time>
      </trkpt>
      <trkpt lat="45.84901" lon="4.24964">
        <ele>603.921</ele>
        <time>2019-09-30T14:09:11Z</time>
      </trkpt>
      <trkpt lat="45.849" lon="4.24958">
        <ele>603.517</ele>
        <time>2019-09-30T14:09:17Z</time>
      </trkpt>
      <trkpt lat="45.84899" lon="4.24952">
        <ele>606.143</ele>
        <time>2019-09-30T14:09:22Z</time>
      </trkpt>
      <trkpt lat="45.84897" lon="4.24946">
        <ele>607.325</ele>
        <time>2019-09-30T14:09:27Z</time>
      </trkpt>
      <trkpt lat="45.84895" lon="4.24933">
        <ele>608.122</ele>
        <time>2019-09-30T14:09:33Z</time>
      </trkpt>
      <trkpt lat="45.84893" lon="4.24922">
        <ele>608.55</ele>
        <time>2019-09-30T14:09:38Z</time>
      </trkpt>
      <trkpt lat="45.84893" lon="4.24909">
        <ele>603.073</ele>
        <time>2019-09-30T14:09:44Z</time>
      </trkpt>
      <trkpt lat="45.84891" lon="4.24896">
        <ele>601.35</ele>
        <time>2019-09-30T14:09:50Z</time>
      </trkpt>
      <trkpt lat="45.84889" lon="4.24886">
        <ele>601.159</ele>
        <time>2019-09-30T14:09:56Z</time>
      </trkpt>
      <trkpt lat="45.84888" lon="4.24878">
        <ele>607.492</ele>
        <time>2019-09-30T14:10:01Z</time>
      </trkpt>
      <trkpt lat="45.84884" lon="4.24864">
        <ele>608.487</ele>
        <time>2019-09-30T14:10:07Z</time>
      </trkpt>
      <trkpt lat="45.84882" lon="4.24853">
        <ele>595.01</ele>
        <time>2019-09-30T14:10:13Z</time>
      </trkpt>
      <trkpt lat="45.84878" lon="4.24843">
        <ele>591.531</ele>
        <time>2019-09-30T14:10:19Z</time>
      </trkpt>
      <trkpt lat="45.84876" lon="4.24833">
        <ele>589.99</ele>
        <time>2019-09-30T14:10:25Z</time>
      </trkpt>
      <trkpt lat="45.84874" lon="4.24821">
        <ele>589.333</ele>
        <time>2019-09-30T14:10:31Z</time>
      </trkpt>
      <trkpt lat="45.84872" lon="4.24812">
        <ele>589.626</ele>
        <time>2019-09-30T14:10:36Z</time>
      </trkpt>
      <trkpt lat="45.84868" lon="4.248">
        <ele>589.579</ele>
        <time>2019-09-30T14:10:41Z</time>
      </trkpt>
      <trkpt lat="45.84861" lon="4.24793">
        <ele>590.26</ele>
        <time>2019-09-30T14:10:46Z</time>
      </trkpt>
      <trkpt lat="45.84857" lon="4.24785">
        <ele>590.049</ele>
        <time>2019-09-30T14:10:51Z</time>
      </trkpt>
      <trkpt lat="45.84852" lon="4.2478">
        <ele>591.874</ele>
        <time>2019-09-30T14:10:57Z</time>
      </trkpt>
      <trkpt lat="45.84847" lon="4.24772">
        <ele>590.264</ele>
        <time>2019-09-30T14:11:03Z</time>
      </trkpt>
      <trkpt lat="45.84845" lon="4.24766">
        <ele>588.528</ele>
        <time>2019-09-30T14:11:08Z</time>
      </trkpt>
      <trkpt lat="45.84839" lon="4.24758">
        <ele>586.396</ele>
        <time>2019-09-30T14:11:14Z</time>
      </trkpt>
      <trkpt lat="45.84836" lon="4.24753">
        <ele>583.109</ele>
        <time>2019-09-30T14:11:19Z</time>
      </trkpt>
      <trkpt lat="45.84831" lon="4.24748">
        <ele>589.423</ele>
        <time>2019-09-30T14:11:24Z</time>
      </trkpt>
      <trkpt lat="45.84825" lon="4.24744">
        <ele>587.608</ele>
        <time>2019-09-30T14:11:30Z</time>
      </trkpt>
      <trkpt lat="45.8482" lon="4.24738">
        <ele>585.502</ele>
        <time>2019-09-30T14:11:36Z</time>
      </trkpt>
      <trkpt lat="45.84815" lon="4.24732">
        <ele>586.226</ele>
        <time>2019-09-30T14:11:42Z</time>
      </trkpt>
      <trkpt lat="45.84809" lon="4.24728">
        <ele>585.288</ele>
        <time>2019-09-30T14:11:47Z</time>
      </trkpt>
      <trkpt lat="45.84802" lon="4.2472">
        <ele>586.326</ele>
        <time>2019-09-30T14:11:53Z</time>
      </trkpt>
      <trkpt lat="45.84797" lon="4.24714">
        <ele>584.101</ele>
        <time>2019-09-30T14:11:59Z</time>
      </trkpt>
      <trkpt lat="45.84793" lon="4.24709">
        <ele>582.53</ele>
        <time>2019-09-30T14:12:04Z</time>
      </trkpt>
      <trkpt lat="45.84789" lon="4.24702">
        <ele>582.485</ele>
        <time>2019-09-30T14:12:09Z</time>
      </trkpt>
      <trkpt lat="45.84784" lon="4.24696">
        <ele>583.568</ele>
        <time>2019-09-30T14:12:15Z</time>
      </trkpt>
      <trkpt lat="45.84779" lon="4.24689">
        <ele>580.994</ele>
        <time>2019-09-30T14:12:21Z</time>
      </trkpt>
      <trkpt lat="45.84774" lon="4.24687">
        <ele>581.725</ele>
        <time>2019-09-30T14:12:27Z</time>
      </trkpt>
      <trkpt lat="45.8477" lon="4.24686">
        <ele>583.277</ele>
        <time>2019-09-30T14:12:32Z</time>
      </trkpt>
      <trkpt lat="45.84767" lon="4.24683">
        <ele>582.704</ele>
        <time>2019-09-30T14:12:37Z</time>
      </trkpt>
      <trkpt lat="45.84761" lon="4.24677">
        <ele>580.202</ele>
        <time>2019-09-30T14:12:42Z</time>
      </trkpt>
      <trkpt lat="45.84758" lon="4.24672">
        <ele>582.423</ele>
        <time>2019-09-30T14:12:48Z</time>
      </trkpt>
      <trkpt lat="45.84754" lon="4.24666">
        <ele>581.528</ele>
        <time>2019-09-30T14:12:53Z</time>
      </trkpt>
      <trkpt lat="45.84752" lon="4.24664">
        <ele>578.092</ele>
        <time>2019-09-30T14:12:58Z</time>
      </trkpt>
      <trkpt lat="45.84747" lon="4.24662">
        <ele>575.061</ele>
        <time>2019-09-30T14:13:03Z</time>
      </trkpt>
      <trkpt lat="45.84738" lon="4.24657">
        <ele>575.863</ele>
        <time>2019-09-30T14:13:09Z</time>
      </trkpt>
      <trkpt lat="45.8473" lon="4.24649">
        <ele>573.413</ele>
        <time>2019-09-30T14:13:15Z</time>
      </trkpt>
      <trkpt lat="45.84724" lon="4.24644">
        <ele>573.264</ele>
        <time>2019-09-30T14:13:21Z</time>
      </trkpt>
      <trkpt lat="45.84718" lon="4.24636">
        <ele>571.648</ele>
        <time>2019-09-30T14:13:27Z</time>
      </trkpt>
      <trkpt lat="45.84714" lon="4.24631">
        <ele>571.691</ele>
        <time>2019-09-30T14:13:32Z</time>
      </trkpt>
      <trkpt lat="45.8471" lon="4.24621">
        <ele>575.866</ele>
        <time>2019-09-30T14:13:38Z</time>
      </trkpt>
      <trkpt lat="45.84705" lon="4.24613">
        <ele>576.581</ele>
        <time>2019-09-30T14:13:44Z</time>
      </trkpt>
      <trkpt lat="45.847" lon="4.24602">
        <ele>578.57</ele>
        <time>2019-09-30T14:13:49Z</time>
      </trkpt>
      <trkpt lat="45.84695" lon="4.24594">
        <ele>577.7</ele>
        <time>2019-09-30T14:13:55Z</time>
      </trkpt>
      <trkpt lat="45.84692" lon="4.24587">
        <ele>577.858</ele>
        <time>2019-09-30T14:14:00Z</time>
      </trkpt>
      <trkpt lat="45.84694" lon="4.24579">
        <ele>577.104</ele>
        <time>2019-09-30T14:14:06Z</time>
      </trkpt>
      <trkpt lat="45.84689" lon="4.24565">
        <ele>574.734</ele>
        <time>2019-09-30T14:14:12Z</time>
      </trkpt>
      <trkpt lat="45.84681" lon="4.24556">
        <ele>573.894</ele>
        <time>2019-09-30T14:14:18Z</time>
      </trkpt>
      <trkpt lat="45.84682" lon="4.24549">
        <ele>574.083</ele>
        <time>2019-09-30T14:14:24Z</time>
      </trkpt>
      <trkpt lat="45.84677" lon="4.24538">
        <ele>574.532</ele>
        <time>2019-09-30T14:14:30Z</time>
      </trkpt>
      <trkpt lat="45.84673" lon="4.24531">
        <ele>577.494</ele>
        <time>2019-09-30T14:14:36Z</time>
      </trkpt>
      <trkpt lat="45.84663" lon="4.24525">
        <ele>577.792</ele>
        <time>2019-09-30T14:14:42Z</time>
      </trkpt>
      <trkpt lat="45.8466" lon="4.24518">
        <ele>572.872</ele>
        <time>2019-09-30T14:14:47Z</time>
      </trkpt>
      <trkpt lat="45.84658" lon="4.24517">
        <ele>572.361</ele>
        <time>2019-09-30T14:14:53Z</time>
      </trkpt>
      <trkpt lat="45.84651" lon="4.2451">
        <ele>567.352</ele>
        <time>2019-09-30T14:14:58Z</time>
      </trkpt>
      <trkpt lat="45.84648" lon="4.24501">
        <ele>563.122</ele>
        <time>2019-09-30T14:15:03Z</time>
      </trkpt>
      <trkpt lat="45.84644" lon="4.2449">
        <ele>560.448</ele>
        <time>2019-09-30T14:15:09Z</time>
      </trkpt>
      <trkpt lat="45.84638" lon="4.24483">
        <ele>556.232</ele>
        <time>2019-09-30T14:15:15Z</time>
      </trkpt>
      <trkpt lat="45.84632" lon="4.24475">
        <ele>554.552</ele>
        <time>2019-09-30T14:15:21Z</time>
      </trkpt>
      <trkpt lat="45.84627" lon="4.24471">
        <ele>557.88</ele>
        <time>2019-09-30T14:15:26Z</time>
      </trkpt>
      <trkpt lat="45.84624" lon="4.24464">
        <ele>553.285</ele>
        <time>2019-09-30T14:15:32Z</time>
      </trkpt>
      <trkpt lat="45.84615" lon="4.24462">
        <ele>553.953</ele>
        <time>2019-09-30T14:15:38Z</time>
      </trkpt>
      <trkpt lat="45.84608" lon="4.24458">
        <ele>555.02</ele>
        <time>2019-09-30T14:15:44Z</time>
      </trkpt>
      <trkpt lat="45.84601" lon="4.24456">
        <ele>555.367</ele>
        <time>2019-09-30T14:15:49Z</time>
      </trkpt>
      <trkpt lat="45.84597" lon="4.24451">
        <ele>551.917</ele>
        <time>2019-09-30T14:15:54Z</time>
      </trkpt>
      <trkpt lat="45.84594" lon="4.24442">
        <ele>552.451</ele>
        <time>2019-09-30T14:16:00Z</time>
      </trkpt>
      <trkpt lat="45.84596" lon="4.24431">
        <ele>553.228</ele>
        <time>2019-09-30T14:16:05Z</time>
      </trkpt>
      <trkpt lat="45.84598" lon="4.24428">
        <ele>554.975</ele>
        <time>2019-09-30T14:16:10Z</time>
      </trkpt>
      <trkpt lat="45.84598" lon="4.24429">
        <ele>555.304</ele>
        <time>2019-09-30T14:16:16Z</time>
      </trkpt>
      <trkpt lat="45.84597" lon="4.24428">
        <ele>554.386</ele>
        <time>2019-09-30T14:16:22Z</time>
      </trkpt>
      <trkpt lat="45.84597" lon="4.24428">
        <ele>554.166</ele>
        <time>2019-09-30T14:16:27Z</time>
      </trkpt>
      <trkpt lat="45.84597" lon="4.24428">
        <ele>554.247</ele>
        <time>2019-09-30T14:16:33Z</time>
      </trkpt>
      <trkpt lat="45.84597" lon="4.24428">
        <ele>554.293</ele>
        <time>2019-09-30T14:16:38Z</time>
      </trkpt>
      <trkpt lat="45.84595" lon="4.24425">
        <ele>554.506</ele>
        <time>2019-09-30T14:16:44Z</time>
      </trkpt>
      <trkpt lat="45.84592" lon="4.24423">
        <ele>552.29</ele>
        <time>2019-09-30T14:16:49Z</time>
      </trkpt>
      <trkpt lat="45.84588" lon="4.24413">
        <ele>553.044</ele>
        <time>2019-09-30T14:16:54Z</time>
      </trkpt>
      <trkpt lat="45.84585" lon="4.24402">
        <ele>547.768</ele>
        <time>2019-09-30T14:17:00Z</time>
      </trkpt>
      <trkpt lat="45.84581" lon="4.24397">
        <ele>550.329</ele>
        <time>2019-09-30T14:17:05Z</time>
      </trkpt>
      <trkpt lat="45.84578" lon="4.24392">
        <ele>552.454</ele>
        <time>2019-09-30T14:17:10Z</time>
      </trkpt>
      <trkpt lat="45.84574" lon="4.2439">
        <ele>549.669</ele>
        <time>2019-09-30T14:17:16Z</time>
      </trkpt>
      <trkpt lat="45.84566" lon="4.24385">
        <ele>548.794</ele>
        <time>2019-09-30T14:17:21Z</time>
      </trkpt>
      <trkpt lat="45.84565" lon="4.24379">
        <ele>545.057</ele>
        <time>2019-09-30T14:17:26Z</time>
      </trkpt>
      <trkpt lat="45.84563" lon="4.24377">
        <ele>544.213</ele>
        <time>2019-09-30T14:17:31Z</time>
      </trkpt>
      <trkpt lat="45.84565" lon="4.24376">
        <ele>544.642</ele>
        <time>2019-09-30T14:17:37Z</time>
      </trkpt>
      <trkpt lat="45.84563" lon="4.24377">
        <ele>545.593</ele>
        <time>2019-09-30T14:17:43Z</time>
      </trkpt>
      <trkpt lat="45.84563" lon="4.24377">
        <ele>545.668</ele>
        <time>2019-09-30T14:17:49Z</time>
      </trkpt>
      <trkpt lat="45.84561" lon="4.24372">
        <ele>545.632</ele>
        <time>2019-09-30T14:17:55Z</time>
      </trkpt>
      <trkpt lat="45.84557" lon="4.24367">
        <ele>544.877</ele>
        <time>2019-09-30T14:18:01Z</time>
      </trkpt>
      <trkpt lat="45.8455" lon="4.2436">
        <ele>542.844</ele>
        <time>2019-09-30T14:18:07Z</time>
      </trkpt>
      <trkpt lat="45.84545" lon="4.24353">
        <ele>542.21</ele>
        <time>2019-09-30T14:18:12Z</time>
      </trkpt>
      <trkpt lat="45.84543" lon="4.24346">
        <ele>542.47</ele>
        <time>2019-09-30T14:18:18Z</time>
      </trkpt>
      <trkpt lat="45.84539" lon="4.24338">
        <ele>542.615</ele>
        <time>2019-09-30T14:18:24Z</time>
      </trkpt>
      <trkpt lat="45.84535" lon="4.24331">
        <ele>542.318</ele>
        <time>2019-09-30T14:18:30Z</time>
      </trkpt>
      <trkpt lat="45.84532" lon="4.24322">
        <ele>543.257</ele>
        <time>2019-09-30T14:18:36Z</time>
      </trkpt>
      <trkpt lat="45.84527" lon="4.24316">
        <ele>543.544</ele>
        <time>2019-09-30T14:18:42Z</time>
      </trkpt>
      <trkpt lat="45.84522" lon="4.2431">
        <ele>541.477</ele>
        <time>2019-09-30T14:18:48Z</time>
      </trkpt>
      <trkpt lat="45.84515" lon="4.24304">
        <ele>539.764</ele>
        <time>2019-09-30T14:18:54Z</time>
      </trkpt>
      <trkpt lat="45.84511" lon="4.24299">
        <ele>539.617</ele>
        <time>2019-09-30T14:18:59Z</time>
      </trkpt>
      <trkpt lat="45.84503" lon="4.24298">
        <ele>539.757</ele>
        <time>2019-09-30T14:19:05Z</time>
      </trkpt>
      <trkpt lat="45.84499" lon="4.24293">
        <ele>540.648</ele>
        <time>2019-09-30T14:19:11Z</time>
      </trkpt>
      <trkpt lat="45.84496" lon="4.24287">
        <ele>537.316</ele>
        <time>2019-09-30T14:19:16Z</time>
      </trkpt>
      <trkpt lat="45.84485" lon="4.24289">
        <ele>539.382</ele>
        <time>2019-09-30T14:19:22Z</time>
      </trkpt>
      <trkpt lat="45.84481" lon="4.24291">
        <ele>515.721</ele>
        <time>2019-09-30T14:19:27Z</time>
      </trkpt>
      <trkpt lat="45.8448" lon="4.24291">
        <ele>520.477</ele>
        <time>2019-09-30T14:19:32Z</time>
      </trkpt>
      <trkpt lat="45.84481" lon="4.24291">
        <ele>519.525</ele>
        <time>2019-09-30T14:19:38Z</time>
      </trkpt>
      <trkpt lat="45.84477" lon="4.24288">
        <ele>519.848</ele>
        <time>2019-09-30T14:19:43Z</time>
      </trkpt>
      <trkpt lat="45.84469" lon="4.24286">
        <ele>519.3</ele>
        <time>2019-09-30T14:19:49Z</time>
      </trkpt>
      <trkpt lat="45.84464" lon="4.24284">
        <ele>519.927</ele>
        <time>2019-09-30T14:19:55Z</time>
      </trkpt>
      <trkpt lat="45.84457" lon="4.24281">
        <ele>519.907</ele>
        <time>2019-09-30T14:20:01Z</time>
      </trkpt>
      <trkpt lat="45.84452" lon="4.24279">
        <ele>521.452</ele>
        <time>2019-09-30T14:20:07Z</time>
      </trkpt>
      <trkpt lat="45.84448" lon="4.24276">
        <ele>518.263</ele>
        <time>2019-09-30T14:20:12Z</time>
      </trkpt>
      <trkpt lat="45.84442" lon="4.24276">
        <ele>520.598</ele>
        <time>2019-09-30T14:20:17Z</time>
      </trkpt>
      <trkpt lat="45.84435" lon="4.24275">
        <ele>520.189</ele>
        <time>2019-09-30T14:20:23Z</time>
      </trkpt>
      <trkpt lat="45.84428" lon="4.24277">
        <ele>518.981</ele>
        <time>2019-09-30T14:20:29Z</time>
      </trkpt>
      <trkpt lat="45.84419" lon="4.24277">
        <ele>513.501</ele>
        <time>2019-09-30T14:20:34Z</time>
      </trkpt>
      <trkpt lat="45.8441" lon="4.2428">
        <ele>518.005</ele>
        <time>2019-09-30T14:20:40Z</time>
      </trkpt>
      <trkpt lat="45.84401" lon="4.2428">
        <ele>520.003</ele>
        <time>2019-09-30T14:20:46Z</time>
      </trkpt>
      <trkpt lat="45.84394" lon="4.24278">
        <ele>518.968</ele>
        <time>2019-09-30T14:20:52Z</time>
      </trkpt>
      <trkpt lat="45.84388" lon="4.24279">
        <ele>518.585</ele>
        <time>2019-09-30T14:20:58Z</time>
      </trkpt>
      <trkpt lat="45.84384" lon="4.24279">
        <ele>515.277</ele>
        <time>2019-09-30T14:21:03Z</time>
      </trkpt>
      <trkpt lat="45.84377" lon="4.24277">
        <ele>516.006</ele>
        <time>2019-09-30T14:21:08Z</time>
      </trkpt>
      <trkpt lat="45.84371" lon="4.24275">
        <ele>515.665</ele>
        <time>2019-09-30T14:21:14Z</time>
      </trkpt>
      <trkpt lat="45.84372" lon="4.24276">
        <ele>515.231</ele>
        <time>2019-09-30T14:21:19Z</time>
      </trkpt>
      <trkpt lat="45.84372" lon="4.24277">
        <ele>515.139</ele>
        <time>2019-09-30T14:21:24Z</time>
      </trkpt>
      <trkpt lat="45.84372" lon="4.24277">
        <ele>516.017</ele>
        <time>2019-09-30T14:21:30Z</time>
      </trkpt>
      <trkpt lat="45.84368" lon="4.24276">
        <ele>514.099</ele>
        <time>2019-09-30T14:21:35Z</time>
      </trkpt>
      <trkpt lat="45.8436" lon="4.24275">
        <ele>514.763</ele>
        <time>2019-09-30T14:21:41Z</time>
      </trkpt>
      <trkpt lat="45.84351" lon="4.24275">
        <ele>514.157</ele>
        <time>2019-09-30T14:21:47Z</time>
      </trkpt>
      <trkpt lat="45.84344" lon="4.24275">
        <ele>511.17</ele>
        <time>2019-09-30T14:21:53Z</time>
      </trkpt>
      <trkpt lat="45.8434" lon="4.24275">
        <ele>511.237</ele>
        <time>2019-09-30T14:21:58Z</time>
      </trkpt>
      <trkpt lat="45.84333" lon="4.24275">
        <ele>512.432</ele>
        <time>2019-09-30T14:22:03Z</time>
      </trkpt>
      <trkpt lat="45.84325" lon="4.24273">
        <ele>512.256</ele>
        <time>2019-09-30T14:22:09Z</time>
      </trkpt>
      <trkpt lat="45.84318" lon="4.24272">
        <ele>511.938</ele>
        <time>2019-09-30T14:22:14Z</time>
      </trkpt>
      <trkpt lat="45.84312" lon="4.24271">
        <ele>511.822</ele>
        <time>2019-09-30T14:22:20Z</time>
      </trkpt>
      <trkpt lat="45.84305" lon="4.24264">
        <ele>509.817</ele>
        <time>2019-09-30T14:22:26Z</time>
      </trkpt>
      <trkpt lat="45.84297" lon="4.24255">
        <ele>508.912</ele>
        <time>2019-09-30T14:22:32Z</time>
      </trkpt>
      <trkpt lat="45.8429" lon="4.24249">
        <ele>506.533</ele>
        <time>2019-09-30T14:22:38Z</time>
      </trkpt>
      <trkpt lat="45.84284" lon="4.24244">
        <ele>507.234</ele>
        <time>2019-09-30T14:22:43Z</time>
      </trkpt>
      <trkpt lat="45.84278" lon="4.24237">
        <ele>507.335</ele>
        <time>2019-09-30T14:22:48Z</time>
      </trkpt>
      <trkpt lat="45.84272" lon="4.24232">
        <ele>506.93</ele>
        <time>2019-09-30T14:22:53Z</time>
      </trkpt>
      <trkpt lat="45.84267" lon="4.24224">
        <ele>506.844</ele>
        <time>2019-09-30T14:22:59Z</time>
      </trkpt>
      <trkpt lat="45.84263" lon="4.2422">
        <ele>504.473</ele>
        <time>2019-09-30T14:23:04Z</time>
      </trkpt>
      <trkpt lat="45.84258" lon="4.24213">
        <ele>505.072</ele>
        <time>2019-09-30T14:23:10Z</time>
      </trkpt>
      <trkpt lat="45.84254" lon="4.24207">
        <ele>504.711</ele>
        <time>2019-09-30T14:23:15Z</time>
      </trkpt>
      <trkpt lat="45.8425" lon="4.24199">
        <ele>505.047</ele>
        <time>2019-09-30T14:23:21Z</time>
      </trkpt>
      <trkpt lat="45.84247" lon="4.24186">
        <ele>504.549</ele>
        <time>2019-09-30T14:23:27Z</time>
      </trkpt>
      <trkpt lat="45.84242" lon="4.24174">
        <ele>505.641</ele>
        <time>2019-09-30T14:23:33Z</time>
      </trkpt>
      <trkpt lat="45.84238" lon="4.24166">
        <ele>505.091</ele>
        <time>2019-09-30T14:23:39Z</time>
      </trkpt>
      <trkpt lat="45.84236" lon="4.24159">
        <ele>503.703</ele>
        <time>2019-09-30T14:23:44Z</time>
      </trkpt>
      <trkpt lat="45.84233" lon="4.24153">
        <ele>502.028</ele>
        <time>2019-09-30T14:23:50Z</time>
      </trkpt>
      <trkpt lat="45.84228" lon="4.24146">
        <ele>503.892</ele>
        <time>2019-09-30T14:23:55Z</time>
      </trkpt>
      <trkpt lat="45.84223" lon="4.24138">
        <ele>504.938</ele>
        <time>2019-09-30T14:24:00Z</time>
      </trkpt>
      <trkpt lat="45.84219" lon="4.24129">
        <ele>504.879</ele>
        <time>2019-09-30T14:24:06Z</time>
      </trkpt>
      <trkpt lat="45.84215" lon="4.24122">
        <ele>504.041</ele>
        <time>2019-09-30T14:24:11Z</time>
      </trkpt>
      <trkpt lat="45.8421" lon="4.24116">
        <ele>503.83</ele>
        <time>2019-09-30T14:24:16Z</time>
      </trkpt>
      <trkpt lat="45.84208" lon="4.24109">
        <ele>502.592</ele>
        <time>2019-09-30T14:24:21Z</time>
      </trkpt>
      <trkpt lat="45.84202" lon="4.24103">
        <ele>501.64</ele>
        <time>2019-09-30T14:24:27Z</time>
      </trkpt>
      <trkpt lat="45.84196" lon="4.24099">
        <ele>502.067</ele>
        <time>2019-09-30T14:24:33Z</time>
      </trkpt>
      <trkpt lat="45.84191" lon="4.24092">
        <ele>502.809</ele>
        <time>2019-09-30T14:24:38Z</time>
      </trkpt>
      <trkpt lat="45.84187" lon="4.24086">
        <ele>499.689</ele>
        <time>2019-09-30T14:24:43Z</time>
      </trkpt>
      <trkpt lat="45.84184" lon="4.24078">
        <ele>498.42</ele>
        <time>2019-09-30T14:24:49Z</time>
      </trkpt>
      <trkpt lat="45.84181" lon="4.24065">
        <ele>499.795</ele>
        <time>2019-09-30T14:24:55Z</time>
      </trkpt>
      <trkpt lat="45.8418" lon="4.24055">
        <ele>499.253</ele>
        <time>2019-09-30T14:25:00Z</time>
      </trkpt>
      <trkpt lat="45.84175" lon="4.24043">
        <ele>499.188</ele>
        <time>2019-09-30T14:25:06Z</time>
      </trkpt>
      <trkpt lat="45.84169" lon="4.24035">
        <ele>496.021</ele>
        <time>2019-09-30T14:25:12Z</time>
      </trkpt>
      <trkpt lat="45.84167" lon="4.24028">
        <ele>494.904</ele>
        <time>2019-09-30T14:25:17Z</time>
      </trkpt>
      <trkpt lat="45.84161" lon="4.24023">
        <ele>496.055</ele>
        <time>2019-09-30T14:25:23Z</time>
      </trkpt>
      <trkpt lat="45.84156" lon="4.24013">
        <ele>496.906</ele>
        <time>2019-09-30T14:25:29Z</time>
      </trkpt>
      <trkpt lat="45.84155" lon="4.24003">
        <ele>497.28</ele>
        <time>2019-09-30T14:25:35Z</time>
      </trkpt>
      <trkpt lat="45.84153" lon="4.23997">
        <ele>498.075</ele>
        <time>2019-09-30T14:25:40Z</time>
      </trkpt>
      <trkpt lat="45.84153" lon="4.2399">
        <ele>496.789</ele>
        <time>2019-09-30T14:25:46Z</time>
      </trkpt>
      <trkpt lat="45.84155" lon="4.23988">
        <ele>495.527</ele>
        <time>2019-09-30T14:25:52Z</time>
      </trkpt>
      <trkpt lat="45.84155" lon="4.23988">
        <ele>496.513</ele>
        <time>2019-09-30T14:25:58Z</time>
      </trkpt>
      <trkpt lat="45.84155" lon="4.23988">
        <ele>496.854</ele>
        <time>2019-09-30T14:26:03Z</time>
      </trkpt>
      <trkpt lat="45.84154" lon="4.23985">
        <ele>496.954</ele>
        <time>2019-09-30T14:26:08Z</time>
      </trkpt>
      <trkpt lat="45.84151" lon="4.23981">
        <ele>497.405</ele>
        <time>2019-09-30T14:26:13Z</time>
      </trkpt>
      <trkpt lat="45.84149" lon="4.23978">
        <ele>497.012</ele>
        <time>2019-09-30T14:26:19Z</time>
      </trkpt>
      <trkpt lat="45.84141" lon="4.23968">
        <ele>497.126</ele>
        <time>2019-09-30T14:26:25Z</time>
      </trkpt>
      <trkpt lat="45.84139" lon="4.23956">
        <ele>497.553</ele>
        <time>2019-09-30T14:26:31Z</time>
      </trkpt>
      <trkpt lat="45.84136" lon="4.23949">
        <ele>500.451</ele>
        <time>2019-09-30T14:26:36Z</time>
      </trkpt>
      <trkpt lat="45.84134" lon="4.23941">
        <ele>502.103</ele>
        <time>2019-09-30T14:26:42Z</time>
      </trkpt>
      <trkpt lat="45.84129" lon="4.23938">
        <ele>501.779</ele>
        <time>2019-09-30T14:26:48Z</time>
      </trkpt>
      <trkpt lat="45.84129" lon="4.23937">
        <ele>501.183</ele>
        <time>2019-09-30T14:26:54Z</time>
      </trkpt>
      <trkpt lat="45.84129" lon="4.23937">
        <ele>501.041</ele>
        <time>2019-09-30T14:27:00Z</time>
      </trkpt>
      <trkpt lat="45.84129" lon="4.23937">
        <ele>501.295</ele>
        <time>2019-09-30T14:27:06Z</time>
      </trkpt>
      <trkpt lat="45.84128" lon="4.23937">
        <ele>501.094</ele>
        <time>2019-09-30T14:27:11Z</time>
      </trkpt>
      <trkpt lat="45.84128" lon="4.23937">
        <ele>501.62</ele>
        <time>2019-09-30T14:27:17Z</time>
      </trkpt>
      <trkpt lat="45.84128" lon="4.23937">
        <ele>501.283</ele>
        <time>2019-09-30T14:27:22Z</time>
      </trkpt>
      <trkpt lat="45.84128" lon="4.23937">
        <ele>501.244</ele>
        <time>2019-09-30T14:27:28Z</time>
      </trkpt>
      <trkpt lat="45.84128" lon="4.23937">
        <ele>501.549</ele>
        <time>2019-09-30T14:27:33Z</time>
      </trkpt>
      <trkpt lat="45.84128" lon="4.23937">
        <ele>501.489</ele>
        <time>2019-09-30T14:27:39Z</time>
      </trkpt>
      <trkpt lat="45.84128" lon="4.23937">
        <ele>501.062</ele>
        <time>2019-09-30T14:27:45Z</time>
      </trkpt>
      <trkpt lat="45.84128" lon="4.23937">
        <ele>501.786</ele>
        <time>2019-09-30T14:27:50Z</time>
      </trkpt>
      <trkpt lat="45.84128" lon="4.23937">
        <ele>501.752</ele>
        <time>2019-09-30T14:27:56Z</time>
      </trkpt>
      <trkpt lat="45.84128" lon="4.23937">
        <ele>501.378</ele>
        <time>2019-09-30T14:28:01Z</time>
      </trkpt>
      <trkpt lat="45.84128" lon="4.23937">
        <ele>501.367</ele>
        <time>2019-09-30T14:28:07Z</time>
      </trkpt>
      <trkpt lat="45.84128" lon="4.23937">
        <ele>501.654</ele>
        <time>2019-09-30T14:28:12Z</time>
      </trkpt>
      <trkpt lat="45.84128" lon="4.23937">
        <ele>501.41</ele>
        <time>2019-09-30T14:28:18Z</time>
      </trkpt>
      <trkpt lat="45.84128" lon="4.23937">
        <ele>501.64</ele>
        <time>2019-09-30T14:28:23Z</time>
      </trkpt>
      <trkpt lat="45.84128" lon="4.23937">
        <ele>501.437</ele>
        <time>2019-09-30T14:28:29Z</time>
      </trkpt>
      <trkpt lat="45.84128" lon="4.23937">
        <ele>501.695</ele>
        <time>2019-09-30T14:28:34Z</time>
      </trkpt>
      <trkpt lat="45.84128" lon="4.23937">
        <ele>501.548</ele>
        <time>2019-09-30T14:28:40Z</time>
      </trkpt>
      <trkpt lat="45.84128" lon="4.23937">
        <ele>501.763</ele>
        <time>2019-09-30T14:28:46Z</time>
      </trkpt>
      <trkpt lat="45.84128" lon="4.23937">
        <ele>501.326</ele>
        <time>2019-09-30T14:28:52Z</time>
      </trkpt>
      <trkpt lat="45.84128" lon="4.23936">
        <ele>501.415</ele>
        <time>2019-09-30T14:28:58Z</time>
      </trkpt>
      <trkpt lat="45.8413" lon="4.23932">
        <ele>503.042</ele>
        <time>2019-09-30T14:29:03Z</time>
      </trkpt>
      <trkpt lat="45.84132" lon="4.23926">
        <ele>501.2</ele>
        <time>2019-09-30T14:29:08Z</time>
      </trkpt>
      <trkpt lat="45.84127" lon="4.23922">
        <ele>500.635</ele>
        <time>2019-09-30T14:29:13Z</time>
      </trkpt>
      <trkpt lat="45.84124" lon="4.23917">
        <ele>501.196</ele>
        <time>2019-09-30T14:29:19Z</time>
      </trkpt>
      <trkpt lat="45.84127" lon="4.23911">
        <ele>501.595</ele>
        <time>2019-09-30T14:29:24Z</time>
      </trkpt>
      <trkpt lat="45.84127" lon="4.23904">
        <ele>497.891</ele>
        <time>2019-09-30T14:29:29Z</time>
      </trkpt>
      <trkpt lat="45.84124" lon="4.23901">
        <ele>497.946</ele>
        <time>2019-09-30T14:29:35Z</time>
      </trkpt>
      <trkpt lat="45.84125" lon="4.23897">
        <ele>498.161</ele>
        <time>2019-09-30T14:29:41Z</time>
      </trkpt>
      <trkpt lat="45.84125" lon="4.23888">
        <ele>499.772</ele>
        <time>2019-09-30T14:29:47Z</time>
      </trkpt>
      <trkpt lat="45.84124" lon="4.23878">
        <ele>500.889</ele>
        <time>2019-09-30T14:29:53Z</time>
      </trkpt>
      <trkpt lat="45.84124" lon="4.2387">
        <ele>500.086</ele>
        <time>2019-09-30T14:29:59Z</time>
      </trkpt>
      <trkpt lat="45.84124" lon="4.23863">
        <ele>501.137</ele>
        <time>2019-09-30T14:30:05Z</time>
      </trkpt>
      <trkpt lat="45.84123" lon="4.23856">
        <ele>501.117</ele>
        <time>2019-09-30T14:30:10Z</time>
      </trkpt>
      <trkpt lat="45.84124" lon="4.23849">
        <ele>506.79</ele>
        <time>2019-09-30T14:30:15Z</time>
      </trkpt>
      <trkpt lat="45.84126" lon="4.23841">
        <ele>506.229</ele>
        <time>2019-09-30T14:30:20Z</time>
      </trkpt>
      <trkpt lat="45.84129" lon="4.23834">
        <ele>519.269</ele>
        <time>2019-09-30T14:30:25Z</time>
      </trkpt>
      <trkpt lat="45.84132" lon="4.23826">
        <ele>518.157</ele>
        <time>2019-09-30T14:30:31Z</time>
      </trkpt>
      <trkpt lat="45.84133" lon="4.23819">
        <ele>522.249</ele>
        <time>2019-09-30T14:30:37Z</time>
      </trkpt>
      <trkpt lat="45.84135" lon="4.23814">
        <ele>519.804</ele>
        <time>2019-09-30T14:30:43Z</time>
      </trkpt>
      <trkpt lat="45.84134" lon="4.23807">
        <ele>516.901</ele>
        <time>2019-09-30T14:30:48Z</time>
      </trkpt>
      <trkpt lat="45.84134" lon="4.23804">
        <ele>517.999</ele>
        <time>2019-09-30T14:30:54Z</time>
      </trkpt>
      <trkpt lat="45.84131" lon="4.238">
        <ele>514.114</ele>
        <time>2019-09-30T14:31:00Z</time>
      </trkpt>
      <trkpt lat="45.8413" lon="4.23797">
        <ele>512.36</ele>
        <time>2019-09-30T14:31:05Z</time>
      </trkpt>
      <trkpt lat="45.84131" lon="4.23797">
        <ele>510.63</ele>
        <time>2019-09-30T14:31:11Z</time>
      </trkpt>
      <trkpt lat="45.84131" lon="4.23796">
        <ele>512.635</ele>
        <time>2019-09-30T14:31:17Z</time>
      </trkpt>
      <trkpt lat="45.84123" lon="4.23797">
        <ele>510.521</ele>
        <time>2019-09-30T14:31:23Z</time>
      </trkpt>
      <trkpt lat="45.84118" lon="4.23797">
        <ele>511.363</ele>
        <time>2019-09-30T14:31:28Z</time>
      </trkpt>
      <trkpt lat="45.84111" lon="4.23803">
        <ele>514.917</ele>
        <time>2019-09-30T14:31:34Z</time>
      </trkpt>
      <trkpt lat="45.84104" lon="4.23807">
        <ele>519.161</ele>
        <time>2019-09-30T14:31:40Z</time>
      </trkpt>
      <trkpt lat="45.84099" lon="4.2381">
        <ele>512.387</ele>
        <time>2019-09-30T14:31:45Z</time>
      </trkpt>
      <trkpt lat="45.84094" lon="4.23802">
        <ele>511.911</ele>
        <time>2019-09-30T14:31:50Z</time>
      </trkpt>
      <trkpt lat="45.8409" lon="4.23791">
        <ele>507.676</ele>
        <time>2019-09-30T14:31:56Z</time>
      </trkpt>
      <trkpt lat="45.84087" lon="4.23785">
        <ele>507.809</ele>
        <time>2019-09-30T14:32:01Z</time>
      </trkpt>
      <trkpt lat="45.84081" lon="4.23779">
        <ele>510.718</ele>
        <time>2019-09-30T14:32:07Z</time>
      </trkpt>
      <trkpt lat="45.84078" lon="4.23774">
        <ele>512.332</ele>
        <time>2019-09-30T14:32:12Z</time>
      </trkpt>
      <trkpt lat="45.84073" lon="4.23772">
        <ele>514.148</ele>
        <time>2019-09-30T14:32:17Z</time>
      </trkpt>
      <trkpt lat="45.84066" lon="4.23769">
        <ele>518.63</ele>
        <time>2019-09-30T14:32:22Z</time>
      </trkpt>
      <trkpt lat="45.84063" lon="4.23762">
        <ele>517.133</ele>
        <time>2019-09-30T14:32:27Z</time>
      </trkpt>
      <trkpt lat="45.8406" lon="4.23754">
        <ele>517.511</ele>
        <time>2019-09-30T14:32:33Z</time>
      </trkpt>
      <trkpt lat="45.84053" lon="4.23748">
        <ele>514.949</ele>
        <time>2019-09-30T14:32:39Z</time>
      </trkpt>
      <trkpt lat="45.84045" lon="4.23744">
        <ele>511.362</ele>
        <time>2019-09-30T14:32:45Z</time>
      </trkpt>
      <trkpt lat="45.84039" lon="4.23739">
        <ele>514.813</ele>
        <time>2019-09-30T14:32:50Z</time>
      </trkpt>
      <trkpt lat="45.84032" lon="4.23733">
        <ele>518.036</ele>
        <time>2019-09-30T14:32:56Z</time>
      </trkpt>
      <trkpt lat="45.84024" lon="4.2373">
        <ele>519.348</ele>
        <time>2019-09-30T14:33:02Z</time>
      </trkpt>
      <trkpt lat="45.84017" lon="4.23725">
        <ele>519.34</ele>
        <time>2019-09-30T14:33:08Z</time>
      </trkpt>
      <trkpt lat="45.84011" lon="4.23718">
        <ele>517.561</ele>
        <time>2019-09-30T14:33:14Z</time>
      </trkpt>
      <trkpt lat="45.84008" lon="4.23714">
        <ele>514.301</ele>
        <time>2019-09-30T14:33:19Z</time>
      </trkpt>
      <trkpt lat="45.84" lon="4.23708">
        <ele>512.873</ele>
        <time>2019-09-30T14:33:25Z</time>
      </trkpt>
      <trkpt lat="45.83993" lon="4.23704">
        <ele>512.225</ele>
        <time>2019-09-30T14:33:30Z</time>
      </trkpt>
      <trkpt lat="45.83985" lon="4.23703">
        <ele>510.489</ele>
        <time>2019-09-30T14:33:36Z</time>
      </trkpt>
      <trkpt lat="45.83979" lon="4.23703">
        <ele>509.27</ele>
        <time>2019-09-30T14:33:41Z</time>
      </trkpt>
      <trkpt lat="45.83972" lon="4.23703">
        <ele>522.702</ele>
        <time>2019-09-30T14:33:46Z</time>
      </trkpt>
      <trkpt lat="45.83965" lon="4.23702">
        <ele>532.599</ele>
        <time>2019-09-30T14:33:51Z</time>
      </trkpt>
      <trkpt lat="45.8396" lon="4.23695">
        <ele>531.158</ele>
        <time>2019-09-30T14:33:57Z</time>
      </trkpt>
      <trkpt lat="45.83963" lon="4.23685">
        <ele>528.766</ele>
        <time>2019-09-30T14:34:03Z</time>
      </trkpt>
      <trkpt lat="45.83967" lon="4.23677">
        <ele>527.18</ele>
        <time>2019-09-30T14:34:08Z</time>
      </trkpt>
      <trkpt lat="45.83972" lon="4.23671">
        <ele>524.51</ele>
        <time>2019-09-30T14:34:13Z</time>
      </trkpt>
      <trkpt lat="45.83977" lon="4.23661">
        <ele>522.902</ele>
        <time>2019-09-30T14:34:19Z</time>
      </trkpt>
      <trkpt lat="45.83983" lon="4.23654">
        <ele>523.452</ele>
        <time>2019-09-30T14:34:25Z</time>
      </trkpt>
      <trkpt lat="45.83986" lon="4.2365">
        <ele>522.414</ele>
        <time>2019-09-30T14:34:30Z</time>
      </trkpt>
      <trkpt lat="45.83987" lon="4.23646">
        <ele>523.742</ele>
        <time>2019-09-30T14:34:35Z</time>
      </trkpt>
      <trkpt lat="45.83986" lon="4.23646">
        <ele>524.871</ele>
        <time>2019-09-30T14:34:41Z</time>
      </trkpt>
      <trkpt lat="45.83986" lon="4.23645">
        <ele>527.817</ele>
        <time>2019-09-30T14:34:46Z</time>
      </trkpt>
      <trkpt lat="45.83986" lon="4.23645">
        <ele>527.292</ele>
        <time>2019-09-30T14:34:52Z</time>
      </trkpt>
      <trkpt lat="45.83985" lon="4.23644">
        <ele>525.291</ele>
        <time>2019-09-30T14:34:57Z</time>
      </trkpt>
      <trkpt lat="45.83983" lon="4.23645">
        <ele>527.278</ele>
        <time>2019-09-30T14:35:02Z</time>
      </trkpt>
      <trkpt lat="45.83974" lon="4.23648">
        <ele>529.39</ele>
        <time>2019-09-30T14:35:08Z</time>
      </trkpt>
      <trkpt lat="45.83969" lon="4.23649">
        <ele>527.199</ele>
        <time>2019-09-30T14:35:13Z</time>
      </trkpt>
      <trkpt lat="45.83965" lon="4.23649">
        <ele>526.372</ele>
        <time>2019-09-30T14:35:18Z</time>
      </trkpt>
      <trkpt lat="45.8396" lon="4.23647">
        <ele>527.103</ele>
        <time>2019-09-30T14:35:24Z</time>
      </trkpt>
      <trkpt lat="45.83956" lon="4.23649">
        <ele>529.389</ele>
        <time>2019-09-30T14:35:29Z</time>
      </trkpt>
      <trkpt lat="45.8395" lon="4.23652">
        <ele>526.528</ele>
        <time>2019-09-30T14:35:35Z</time>
      </trkpt>
      <trkpt lat="45.83951" lon="4.2365">
        <ele>528.725</ele>
        <time>2019-09-30T14:35:40Z</time>
      </trkpt>
      <trkpt lat="45.83947" lon="4.23654">
        <ele>528.835</ele>
        <time>2019-09-30T14:35:46Z</time>
      </trkpt>
      <trkpt lat="45.83943" lon="4.23659">
        <ele>530.267</ele>
        <time>2019-09-30T14:35:51Z</time>
      </trkpt>
      <trkpt lat="45.83938" lon="4.23661">
        <ele>531.203</ele>
        <time>2019-09-30T14:35:56Z</time>
      </trkpt>
      <trkpt lat="45.83932" lon="4.23663">
        <ele>532.677</ele>
        <time>2019-09-30T14:36:01Z</time>
      </trkpt>
      <trkpt lat="45.83925" lon="4.23667">
        <ele>534.963</ele>
        <time>2019-09-30T14:36:07Z</time>
      </trkpt>
      <trkpt lat="45.83926" lon="4.23666">
        <ele>533.977</ele>
        <time>2019-09-30T14:36:12Z</time>
      </trkpt>
      <trkpt lat="45.83924" lon="4.23665">
        <ele>532.8</ele>
        <time>2019-09-30T14:36:18Z</time>
      </trkpt>
      <trkpt lat="45.83918" lon="4.23666">
        <ele>532.014</ele>
        <time>2019-09-30T14:36:24Z</time>
      </trkpt>
      <trkpt lat="45.83916" lon="4.23667">
        <ele>532.79</ele>
        <time>2019-09-30T14:36:29Z</time>
      </trkpt>
      <trkpt lat="45.83915" lon="4.23663">
        <ele>531.379</ele>
        <time>2019-09-30T14:36:35Z</time>
      </trkpt>
      <trkpt lat="45.83915" lon="4.23662">
        <ele>532.111</ele>
        <time>2019-09-30T14:36:41Z</time>
      </trkpt>
      <trkpt lat="45.83915" lon="4.23662">
        <ele>532.337</ele>
        <time>2019-09-30T14:36:47Z</time>
      </trkpt>
      <trkpt lat="45.83915" lon="4.23662">
        <ele>533.283</ele>
        <time>2019-09-30T14:36:52Z</time>
      </trkpt>
      <trkpt lat="45.83915" lon="4.23662">
        <ele>534.164</ele>
        <time>2019-09-30T14:36:58Z</time>
      </trkpt>
      <trkpt lat="45.83915" lon="4.23663">
        <ele>534.52</ele>
        <time>2019-09-30T14:37:04Z</time>
      </trkpt>
      <trkpt lat="45.83914" lon="4.23663">
        <ele>533.219</ele>
        <time>2019-09-30T14:37:09Z</time>
      </trkpt>
      <trkpt lat="45.83904" lon="4.23669">
        <ele>532.593</ele>
        <time>2019-09-30T14:37:15Z</time>
      </trkpt>
      <trkpt lat="45.83892" lon="4.23672">
        <ele>532.96</ele>
        <time>2019-09-30T14:37:21Z</time>
      </trkpt>
      <trkpt lat="45.83885" lon="4.2367">
        <ele>532.103</ele>
        <time>2019-09-30T14:37:27Z</time>
      </trkpt>
      <trkpt lat="45.83881" lon="4.23671">
        <ele>533.459</ele>
        <time>2019-09-30T14:37:32Z</time>
      </trkpt>
      <trkpt lat="45.83875" lon="4.2367">
        <ele>533.979</ele>
        <time>2019-09-30T14:37:37Z</time>
      </trkpt>
      <trkpt lat="45.83871" lon="4.23667">
        <ele>534.701</ele>
        <time>2019-09-30T14:37:43Z</time>
      </trkpt>
      <trkpt lat="45.83869" lon="4.23663">
        <ele>533.284</ele>
        <time>2019-09-30T14:37:49Z</time>
      </trkpt>
      <trkpt lat="45.83868" lon="4.23659">
        <ele>534.514</ele>
        <time>2019-09-30T14:37:54Z</time>
      </trkpt>
      <trkpt lat="45.83869" lon="4.23659">
        <ele>534.126</ele>
        <time>2019-09-30T14:37:59Z</time>
      </trkpt>
      <trkpt lat="45.83869" lon="4.23658">
        <ele>533.017</ele>
        <time>2019-09-30T14:38:05Z</time>
      </trkpt>
      <trkpt lat="45.83866" lon="4.23659">
        <ele>531.789</ele>
        <time>2019-09-30T14:38:11Z</time>
      </trkpt>
      <trkpt lat="45.83866" lon="4.2366">
        <ele>532.475</ele>
        <time>2019-09-30T14:38:17Z</time>
      </trkpt>
      <trkpt lat="45.83863" lon="4.23662">
        <ele>532.247</ele>
        <time>2019-09-30T14:38:23Z</time>
      </trkpt>
      <trkpt lat="45.83862" lon="4.23663">
        <ele>532.901</ele>
        <time>2019-09-30T14:38:28Z</time>
      </trkpt>
      <trkpt lat="45.83861" lon="4.23664">
        <ele>533.562</ele>
        <time>2019-09-30T14:38:34Z</time>
      </trkpt>
      <trkpt lat="45.83861" lon="4.23664">
        <ele>532.58</ele>
        <time>2019-09-30T14:38:39Z</time>
      </trkpt>
      <trkpt lat="45.83861" lon="4.23664">
        <ele>533.088</ele>
        <time>2019-09-30T14:38:44Z</time>
      </trkpt>
      <trkpt lat="45.8386" lon="4.23664">
        <ele>533.092</ele>
        <time>2019-09-30T14:38:49Z</time>
      </trkpt>
      <trkpt lat="45.8386" lon="4.23664">
        <ele>532.827</ele>
        <time>2019-09-30T14:38:55Z</time>
      </trkpt>
      <trkpt lat="45.8386" lon="4.23664">
        <ele>532.336</ele>
        <time>2019-09-30T14:39:00Z</time>
      </trkpt>
      <trkpt lat="45.8386" lon="4.23664">
        <ele>532.788</ele>
        <time>2019-09-30T14:39:06Z</time>
      </trkpt>
      <trkpt lat="45.8386" lon="4.23664">
        <ele>533.286</ele>
        <time>2019-09-30T14:39:12Z</time>
      </trkpt>
      <trkpt lat="45.8386" lon="4.23664">
        <ele>533.299</ele>
        <time>2019-09-30T14:39:18Z</time>
      </trkpt>
      <trkpt lat="45.8386" lon="4.23664">
        <ele>533.513</ele>
        <time>2019-09-30T14:39:24Z</time>
      </trkpt>
      <trkpt lat="45.8386" lon="4.23664">
        <ele>533.566</ele>
        <time>2019-09-30T14:39:30Z</time>
      </trkpt>
      <trkpt lat="45.83859" lon="4.23663">
        <ele>533.374</ele>
        <time>2019-09-30T14:39:36Z</time>
      </trkpt>
      <trkpt lat="45.83859" lon="4.23665">
        <ele>534.088</ele>
        <time>2019-09-30T14:39:42Z</time>
      </trkpt>
      <trkpt lat="45.83859" lon="4.23664">
        <ele>534.043</ele>
        <time>2019-09-30T14:39:47Z</time>
      </trkpt>
      <trkpt lat="45.83858" lon="4.23664">
        <ele>533.792</ele>
        <time>2019-09-30T14:39:52Z</time>
      </trkpt>
      <trkpt lat="45.83858" lon="4.23664">
        <ele>533.798</ele>
        <time>2019-09-30T14:39:58Z</time>
      </trkpt>
      <trkpt lat="45.83858" lon="4.23664">
        <ele>533.82</ele>
        <time>2019-09-30T14:40:04Z</time>
      </trkpt>
      <trkpt lat="45.83857" lon="4.23663">
        <ele>535.537</ele>
        <time>2019-09-30T14:40:09Z</time>
      </trkpt>
      <trkpt lat="45.83857" lon="4.23663">
        <ele>535.553</ele>
        <time>2019-09-30T14:40:15Z</time>
      </trkpt>
      <trkpt lat="45.83857" lon="4.23663">
        <ele>535.511</ele>
        <time>2019-09-30T14:40:21Z</time>
      </trkpt>
      <trkpt lat="45.83857" lon="4.23663">
        <ele>535.598</ele>
        <time>2019-09-30T14:40:27Z</time>
      </trkpt>
      <trkpt lat="45.83857" lon="4.23663">
        <ele>535.587</ele>
        <time>2019-09-30T14:40:33Z</time>
      </trkpt>
      <trkpt lat="45.83857" lon="4.23663">
        <ele>535.611</ele>
        <time>2019-09-30T14:40:39Z</time>
      </trkpt>
      <trkpt lat="45.83857" lon="4.23662">
        <ele>535.384</ele>
        <time>2019-09-30T14:40:45Z</time>
      </trkpt>
      <trkpt lat="45.83855" lon="4.23663">
        <ele>534.909</ele>
        <time>2019-09-30T14:40:50Z</time>
      </trkpt>
      <trkpt lat="45.83855" lon="4.23664">
        <ele>534.714</ele>
        <time>2019-09-30T14:40:56Z</time>
      </trkpt>
      <trkpt lat="45.83855" lon="4.23664">
        <ele>535.052</ele>
        <time>2019-09-30T14:41:01Z</time>
      </trkpt>
      <trkpt lat="45.83856" lon="4.23664">
        <ele>535.256</ele>
        <time>2019-09-30T14:41:07Z</time>
      </trkpt>
      <trkpt lat="45.83858" lon="4.23661">
        <ele>535.289</ele>
        <time>2019-09-30T14:41:13Z</time>
      </trkpt>
      <trkpt lat="45.83859" lon="4.23661">
        <ele>535.079</ele>
        <time>2019-09-30T14:41:19Z</time>
      </trkpt>
      <trkpt lat="45.83859" lon="4.23663">
        <ele>534.208</ele>
        <time>2019-09-30T14:41:24Z</time>
      </trkpt>
      <trkpt lat="45.83858" lon="4.23663">
        <ele>532.207</ele>
        <time>2019-09-30T14:41:30Z</time>
      </trkpt>
    </trkseg>
  </trk>
</gpx>